<?xml version="1.0" encoding="UTF-8" standalone="no" ?>
<gpx xmlns="http://www.topografix.com/GPX/1/1" xmlns:xsi="http://www.w3.org/2001/XMLSchema-instance" xsi:schemaLocation="http://www.topografix.com/GPX/1/1 http://www.topografix.com/GPX/1/1/gpx.xsd" version="1.1" creator="VisuGPX - https://www.visugpx.com">
  <metadata>
    <name>Sortie VTT 8 Septembre 2012</name>
    <desc><![CDATA[Sortie VTT 8 Septembre 2012
Escalquens / Corronsac / Monbrun / Mongiscard]]></desc>
  </metadata>
  <trk>
    <name><![CDATA[sortie du 9 septembre]]></name>
    <trkseg>
      <trkpt lat="43.50983" lon="1.55491">
        <ele>155</ele>
        <time>2012-09-09T05:44:44Z</time>
      </trkpt>
      <trkpt lat="43.50983" lon="1.55491">
        <ele>156</ele>
        <time>2012-09-09T05:44:48Z</time>
      </trkpt>
      <trkpt lat="43.50982" lon="1.55492">
        <ele>154</ele>
        <time>2012-09-09T05:44:52Z</time>
      </trkpt>
      <trkpt lat="43.50981" lon="1.55493">
        <ele>152</ele>
        <time>2012-09-09T05:44:56Z</time>
      </trkpt>
      <trkpt lat="43.50979" lon="1.555">
        <ele>153</ele>
        <time>2012-09-09T05:45:00Z</time>
      </trkpt>
      <trkpt lat="43.50972" lon="1.55518">
        <ele>153</ele>
        <time>2012-09-09T05:45:04Z</time>
      </trkpt>
      <trkpt lat="43.50964" lon="1.55538">
        <ele>153</ele>
        <time>2012-09-09T05:45:08Z</time>
      </trkpt>
      <trkpt lat="43.50945" lon="1.55572">
        <ele>158</ele>
        <time>2012-09-09T05:45:12Z</time>
      </trkpt>
      <trkpt lat="43.50933" lon="1.5559">
        <ele>158</ele>
        <time>2012-09-09T05:45:16Z</time>
      </trkpt>
      <trkpt lat="43.50922" lon="1.55604">
        <ele>159</ele>
        <time>2012-09-09T05:45:20Z</time>
      </trkpt>
      <trkpt lat="43.50907" lon="1.5562">
        <ele>161</ele>
        <time>2012-09-09T05:45:25Z</time>
      </trkpt>
      <trkpt lat="43.50897" lon="1.55632">
        <ele>167</ele>
        <time>2012-09-09T05:45:28Z</time>
      </trkpt>
      <trkpt lat="43.50893" lon="1.55635">
        <ele>167</ele>
        <time>2012-09-09T05:45:29Z</time>
      </trkpt>
      <trkpt lat="43.50867" lon="1.55654">
        <ele>166</ele>
        <time>2012-09-09T05:45:36Z</time>
      </trkpt>
      <trkpt lat="43.50851" lon="1.55656">
        <ele>164</ele>
        <time>2012-09-09T05:45:40Z</time>
      </trkpt>
      <trkpt lat="43.50821" lon="1.55656">
        <ele>161</ele>
        <time>2012-09-09T05:45:48Z</time>
      </trkpt>
      <trkpt lat="43.50801" lon="1.55663">
        <ele>163</ele>
        <time>2012-09-09T05:45:52Z</time>
      </trkpt>
      <trkpt lat="43.50777" lon="1.55674">
        <ele>163</ele>
        <time>2012-09-09T05:45:56Z</time>
      </trkpt>
      <trkpt lat="43.50771" lon="1.55676">
        <ele>163</ele>
        <time>2012-09-09T05:45:57Z</time>
      </trkpt>
      <trkpt lat="43.50757" lon="1.55677">
        <ele>162</ele>
        <time>2012-09-09T05:46:00Z</time>
      </trkpt>
      <trkpt lat="43.5074" lon="1.5568">
        <ele>156</ele>
        <time>2012-09-09T05:46:04Z</time>
      </trkpt>
      <trkpt lat="43.50723" lon="1.55688">
        <ele>154</ele>
        <time>2012-09-09T05:46:08Z</time>
      </trkpt>
      <trkpt lat="43.50719" lon="1.55688">
        <ele>154</ele>
        <time>2012-09-09T05:46:09Z</time>
      </trkpt>
      <trkpt lat="43.50704" lon="1.55683">
        <ele>154</ele>
        <time>2012-09-09T05:46:13Z</time>
      </trkpt>
      <trkpt lat="43.50668" lon="1.5568">
        <ele>153</ele>
        <time>2012-09-09T05:46:20Z</time>
      </trkpt>
      <trkpt lat="43.50647" lon="1.55669">
        <ele>152</ele>
        <time>2012-09-09T05:46:24Z</time>
      </trkpt>
      <trkpt lat="43.50629" lon="1.55665">
        <ele>152</ele>
        <time>2012-09-09T05:46:28Z</time>
      </trkpt>
      <trkpt lat="43.50591" lon="1.55645">
        <ele>150</ele>
        <time>2012-09-09T05:46:36Z</time>
      </trkpt>
      <trkpt lat="43.50581" lon="1.5562">
        <ele>148</ele>
        <time>2012-09-09T05:46:40Z</time>
      </trkpt>
      <trkpt lat="43.5056" lon="1.55596">
        <ele>150</ele>
        <time>2012-09-09T05:46:45Z</time>
      </trkpt>
      <trkpt lat="43.50546" lon="1.55599">
        <ele>150</ele>
        <time>2012-09-09T05:46:48Z</time>
      </trkpt>
      <trkpt lat="43.50539" lon="1.55574">
        <ele>150</ele>
        <time>2012-09-09T05:46:52Z</time>
      </trkpt>
      <trkpt lat="43.50537" lon="1.55569">
        <ele>150</ele>
        <time>2012-09-09T05:46:53Z</time>
      </trkpt>
      <trkpt lat="43.50534" lon="1.55546">
        <ele>149</ele>
        <time>2012-09-09T05:46:56Z</time>
      </trkpt>
      <trkpt lat="43.50531" lon="1.55543">
        <ele>149</ele>
        <time>2012-09-09T05:46:57Z</time>
      </trkpt>
      <trkpt lat="43.50511" lon="1.5555">
        <ele>150</ele>
        <time>2012-09-09T05:47:01Z</time>
      </trkpt>
      <trkpt lat="43.505" lon="1.55552">
        <ele>150</ele>
        <time>2012-09-09T05:47:04Z</time>
      </trkpt>
      <trkpt lat="43.50481" lon="1.55565">
        <ele>152</ele>
        <time>2012-09-09T05:47:08Z</time>
      </trkpt>
      <trkpt lat="43.50462" lon="1.55564">
        <ele>152</ele>
        <time>2012-09-09T05:47:12Z</time>
      </trkpt>
      <trkpt lat="43.50457" lon="1.55563">
        <ele>152</ele>
        <time>2012-09-09T05:47:13Z</time>
      </trkpt>
      <trkpt lat="43.50446" lon="1.55531">
        <ele>150</ele>
        <time>2012-09-09T05:47:17Z</time>
      </trkpt>
      <trkpt lat="43.50431" lon="1.55516">
        <ele>152</ele>
        <time>2012-09-09T05:47:20Z</time>
      </trkpt>
      <trkpt lat="43.50414" lon="1.55487">
        <ele>151</ele>
        <time>2012-09-09T05:47:25Z</time>
      </trkpt>
      <trkpt lat="43.50402" lon="1.5547">
        <ele>153</ele>
        <time>2012-09-09T05:47:28Z</time>
      </trkpt>
      <trkpt lat="43.50398" lon="1.55464">
        <ele>153</ele>
        <time>2012-09-09T05:47:29Z</time>
      </trkpt>
      <trkpt lat="43.50371" lon="1.55432">
        <ele>151</ele>
        <time>2012-09-09T05:47:36Z</time>
      </trkpt>
      <trkpt lat="43.50354" lon="1.55408">
        <ele>151</ele>
        <time>2012-09-09T05:47:40Z</time>
      </trkpt>
      <trkpt lat="43.50349" lon="1.55403">
        <ele>151</ele>
        <time>2012-09-09T05:47:41Z</time>
      </trkpt>
      <trkpt lat="43.50337" lon="1.55389">
        <ele>151</ele>
        <time>2012-09-09T05:47:44Z</time>
      </trkpt>
      <trkpt lat="43.50293" lon="1.55354">
        <ele>153</ele>
        <time>2012-09-09T05:47:52Z</time>
      </trkpt>
      <trkpt lat="43.50275" lon="1.55336">
        <ele>152</ele>
        <time>2012-09-09T05:47:56Z</time>
      </trkpt>
      <trkpt lat="43.50249" lon="1.55319">
        <ele>153</ele>
        <time>2012-09-09T05:48:00Z</time>
      </trkpt>
      <trkpt lat="43.50224" lon="1.55302">
        <ele>151</ele>
        <time>2012-09-09T05:48:04Z</time>
      </trkpt>
      <trkpt lat="43.50202" lon="1.55279">
        <ele>152</ele>
        <time>2012-09-09T05:48:08Z</time>
      </trkpt>
      <trkpt lat="43.50177" lon="1.55254">
        <ele>154</ele>
        <time>2012-09-09T05:48:12Z</time>
      </trkpt>
      <trkpt lat="43.50164" lon="1.55217">
        <ele>153</ele>
        <time>2012-09-09T05:48:16Z</time>
      </trkpt>
      <trkpt lat="43.50155" lon="1.55176">
        <ele>150</ele>
        <time>2012-09-09T05:48:20Z</time>
      </trkpt>
      <trkpt lat="43.50145" lon="1.55142">
        <ele>151</ele>
        <time>2012-09-09T05:48:24Z</time>
      </trkpt>
      <trkpt lat="43.5014" lon="1.551">
        <ele>151</ele>
        <time>2012-09-09T05:48:28Z</time>
      </trkpt>
      <trkpt lat="43.50132" lon="1.55058">
        <ele>148</ele>
        <time>2012-09-09T05:48:32Z</time>
      </trkpt>
      <trkpt lat="43.50121" lon="1.55014">
        <ele>149</ele>
        <time>2012-09-09T05:48:36Z</time>
      </trkpt>
      <trkpt lat="43.5011" lon="1.54964">
        <ele>149</ele>
        <time>2012-09-09T05:48:40Z</time>
      </trkpt>
      <trkpt lat="43.50098" lon="1.54914">
        <ele>148</ele>
        <time>2012-09-09T05:48:44Z</time>
      </trkpt>
      <trkpt lat="43.50086" lon="1.54872">
        <ele>145</ele>
        <time>2012-09-09T05:48:48Z</time>
      </trkpt>
      <trkpt lat="43.50078" lon="1.54833">
        <ele>146</ele>
        <time>2012-09-09T05:48:52Z</time>
      </trkpt>
      <trkpt lat="43.5007" lon="1.54796">
        <ele>146</ele>
        <time>2012-09-09T05:48:56Z</time>
      </trkpt>
      <trkpt lat="43.5006" lon="1.54757">
        <ele>151</ele>
        <time>2012-09-09T05:49:00Z</time>
      </trkpt>
      <trkpt lat="43.50051" lon="1.54722">
        <ele>151</ele>
        <time>2012-09-09T05:49:04Z</time>
      </trkpt>
      <trkpt lat="43.50043" lon="1.54686">
        <ele>151</ele>
        <time>2012-09-09T05:49:08Z</time>
      </trkpt>
      <trkpt lat="43.50033" lon="1.54649">
        <ele>148</ele>
        <time>2012-09-09T05:49:12Z</time>
      </trkpt>
      <trkpt lat="43.50025" lon="1.54612">
        <ele>149</ele>
        <time>2012-09-09T05:49:16Z</time>
      </trkpt>
      <trkpt lat="43.50015" lon="1.54581">
        <ele>152</ele>
        <time>2012-09-09T05:49:20Z</time>
      </trkpt>
      <trkpt lat="43.50006" lon="1.54553">
        <ele>152</ele>
        <time>2012-09-09T05:49:24Z</time>
      </trkpt>
      <trkpt lat="43.50003" lon="1.54527">
        <ele>151</ele>
        <time>2012-09-09T05:49:28Z</time>
      </trkpt>
      <trkpt lat="43.49995" lon="1.54491">
        <ele>150</ele>
        <time>2012-09-09T05:49:32Z</time>
      </trkpt>
      <trkpt lat="43.4998" lon="1.54455">
        <ele>151</ele>
        <time>2012-09-09T05:49:36Z</time>
      </trkpt>
      <trkpt lat="43.49965" lon="1.54417">
        <ele>148</ele>
        <time>2012-09-09T05:49:40Z</time>
      </trkpt>
      <trkpt lat="43.49951" lon="1.54386">
        <ele>147</ele>
        <time>2012-09-09T05:49:44Z</time>
      </trkpt>
      <trkpt lat="43.49932" lon="1.54352">
        <ele>146</ele>
        <time>2012-09-09T05:49:48Z</time>
      </trkpt>
      <trkpt lat="43.49916" lon="1.54321">
        <ele>146</ele>
        <time>2012-09-09T05:49:52Z</time>
      </trkpt>
      <trkpt lat="43.499" lon="1.54289">
        <ele>146</ele>
        <time>2012-09-09T05:49:56Z</time>
      </trkpt>
      <trkpt lat="43.49884" lon="1.54258">
        <ele>146</ele>
        <time>2012-09-09T05:50:00Z</time>
      </trkpt>
      <trkpt lat="43.49865" lon="1.54229">
        <ele>145</ele>
        <time>2012-09-09T05:50:04Z</time>
      </trkpt>
      <trkpt lat="43.49851" lon="1.54195">
        <ele>145</ele>
        <time>2012-09-09T05:50:08Z</time>
      </trkpt>
      <trkpt lat="43.49836" lon="1.54166">
        <ele>143</ele>
        <time>2012-09-09T05:50:12Z</time>
      </trkpt>
      <trkpt lat="43.49818" lon="1.54137">
        <ele>144</ele>
        <time>2012-09-09T05:50:16Z</time>
      </trkpt>
      <trkpt lat="43.49804" lon="1.54113">
        <ele>145</ele>
        <time>2012-09-09T05:50:20Z</time>
      </trkpt>
      <trkpt lat="43.49789" lon="1.54091">
        <ele>146</ele>
        <time>2012-09-09T05:50:24Z</time>
      </trkpt>
      <trkpt lat="43.49772" lon="1.54068">
        <ele>147</ele>
        <time>2012-09-09T05:50:28Z</time>
      </trkpt>
      <trkpt lat="43.49757" lon="1.54046">
        <ele>149</ele>
        <time>2012-09-09T05:50:32Z</time>
      </trkpt>
      <trkpt lat="43.49746" lon="1.54028">
        <ele>148</ele>
        <time>2012-09-09T05:50:36Z</time>
      </trkpt>
      <trkpt lat="43.49735" lon="1.54002">
        <ele>150</ele>
        <time>2012-09-09T05:50:40Z</time>
      </trkpt>
      <trkpt lat="43.49725" lon="1.53974">
        <ele>150</ele>
        <time>2012-09-09T05:50:44Z</time>
      </trkpt>
      <trkpt lat="43.49714" lon="1.53949">
        <ele>151</ele>
        <time>2012-09-09T05:50:48Z</time>
      </trkpt>
      <trkpt lat="43.49705" lon="1.53922">
        <ele>150</ele>
        <time>2012-09-09T05:50:52Z</time>
      </trkpt>
      <trkpt lat="43.49693" lon="1.53892">
        <ele>149</ele>
        <time>2012-09-09T05:50:56Z</time>
      </trkpt>
      <trkpt lat="43.49684" lon="1.53862">
        <ele>149</ele>
        <time>2012-09-09T05:51:00Z</time>
      </trkpt>
      <trkpt lat="43.49674" lon="1.53829">
        <ele>149</ele>
        <time>2012-09-09T05:51:04Z</time>
      </trkpt>
      <trkpt lat="43.49664" lon="1.53792">
        <ele>147</ele>
        <time>2012-09-09T05:51:08Z</time>
      </trkpt>
      <trkpt lat="43.49654" lon="1.53751">
        <ele>147</ele>
        <time>2012-09-09T05:51:12Z</time>
      </trkpt>
      <trkpt lat="43.49645" lon="1.53718">
        <ele>144</ele>
        <time>2012-09-09T05:51:16Z</time>
      </trkpt>
      <trkpt lat="43.49637" lon="1.53674">
        <ele>146</ele>
        <time>2012-09-09T05:51:20Z</time>
      </trkpt>
      <trkpt lat="43.49622" lon="1.53639">
        <ele>145</ele>
        <time>2012-09-09T05:51:24Z</time>
      </trkpt>
      <trkpt lat="43.49614" lon="1.53606">
        <ele>145</ele>
        <time>2012-09-09T05:51:28Z</time>
      </trkpt>
      <trkpt lat="43.49604" lon="1.53581">
        <ele>148</ele>
        <time>2012-09-09T05:51:32Z</time>
      </trkpt>
      <trkpt lat="43.49592" lon="1.53561">
        <ele>148</ele>
        <time>2012-09-09T05:51:36Z</time>
      </trkpt>
      <trkpt lat="43.49583" lon="1.5354">
        <ele>146</ele>
        <time>2012-09-09T05:51:40Z</time>
      </trkpt>
      <trkpt lat="43.49572" lon="1.53513">
        <ele>142</ele>
        <time>2012-09-09T05:51:44Z</time>
      </trkpt>
      <trkpt lat="43.49561" lon="1.53483">
        <ele>142</ele>
        <time>2012-09-09T05:51:48Z</time>
      </trkpt>
      <trkpt lat="43.4955" lon="1.53461">
        <ele>142</ele>
        <time>2012-09-09T05:51:52Z</time>
      </trkpt>
      <trkpt lat="43.49541" lon="1.53433">
        <ele>142</ele>
        <time>2012-09-09T05:51:56Z</time>
      </trkpt>
      <trkpt lat="43.49529" lon="1.53409">
        <ele>142</ele>
        <time>2012-09-09T05:52:00Z</time>
      </trkpt>
      <trkpt lat="43.49519" lon="1.53386">
        <ele>144</ele>
        <time>2012-09-09T05:52:04Z</time>
      </trkpt>
      <trkpt lat="43.49511" lon="1.53365">
        <ele>143</ele>
        <time>2012-09-09T05:52:08Z</time>
      </trkpt>
      <trkpt lat="43.49501" lon="1.53343">
        <ele>146</ele>
        <time>2012-09-09T05:52:12Z</time>
      </trkpt>
      <trkpt lat="43.49493" lon="1.53323">
        <ele>146</ele>
        <time>2012-09-09T05:52:16Z</time>
      </trkpt>
      <trkpt lat="43.49485" lon="1.53313">
        <ele>153</ele>
        <time>2012-09-09T05:52:20Z</time>
      </trkpt>
      <trkpt lat="43.49474" lon="1.53298">
        <ele>152</ele>
        <time>2012-09-09T05:52:24Z</time>
      </trkpt>
      <trkpt lat="43.4946" lon="1.53282">
        <ele>152</ele>
        <time>2012-09-09T05:52:28Z</time>
      </trkpt>
      <trkpt lat="43.49447" lon="1.53268">
        <ele>153</ele>
        <time>2012-09-09T05:52:32Z</time>
      </trkpt>
      <trkpt lat="43.49437" lon="1.53256">
        <ele>150</ele>
        <time>2012-09-09T05:52:36Z</time>
      </trkpt>
      <trkpt lat="43.49428" lon="1.53241">
        <ele>151</ele>
        <time>2012-09-09T05:52:40Z</time>
      </trkpt>
      <trkpt lat="43.49419" lon="1.53226">
        <ele>151</ele>
        <time>2012-09-09T05:52:44Z</time>
      </trkpt>
      <trkpt lat="43.49411" lon="1.5321">
        <ele>149</ele>
        <time>2012-09-09T05:52:48Z</time>
      </trkpt>
      <trkpt lat="43.49401" lon="1.53193">
        <ele>147</ele>
        <time>2012-09-09T05:52:52Z</time>
      </trkpt>
      <trkpt lat="43.49394" lon="1.53177">
        <ele>149</ele>
        <time>2012-09-09T05:52:56Z</time>
      </trkpt>
      <trkpt lat="43.49386" lon="1.53159">
        <ele>150</ele>
        <time>2012-09-09T05:53:00Z</time>
      </trkpt>
      <trkpt lat="43.49377" lon="1.53139">
        <ele>150</ele>
        <time>2012-09-09T05:53:04Z</time>
      </trkpt>
      <trkpt lat="43.49381" lon="1.53116">
        <ele>150</ele>
        <time>2012-09-09T05:53:08Z</time>
      </trkpt>
      <trkpt lat="43.49387" lon="1.53091">
        <ele>149</ele>
        <time>2012-09-09T05:53:12Z</time>
      </trkpt>
      <trkpt lat="43.49394" lon="1.53068">
        <ele>150</ele>
        <time>2012-09-09T05:53:16Z</time>
      </trkpt>
      <trkpt lat="43.49399" lon="1.53045">
        <ele>150</ele>
        <time>2012-09-09T05:53:20Z</time>
      </trkpt>
      <trkpt lat="43.49407" lon="1.53023">
        <ele>149</ele>
        <time>2012-09-09T05:53:24Z</time>
      </trkpt>
      <trkpt lat="43.49413" lon="1.53001">
        <ele>148</ele>
        <time>2012-09-09T05:53:28Z</time>
      </trkpt>
      <trkpt lat="43.49419" lon="1.52983">
        <ele>147</ele>
        <time>2012-09-09T05:53:32Z</time>
      </trkpt>
      <trkpt lat="43.49425" lon="1.52964">
        <ele>145</ele>
        <time>2012-09-09T05:53:36Z</time>
      </trkpt>
      <trkpt lat="43.49428" lon="1.52946">
        <ele>146</ele>
        <time>2012-09-09T05:53:40Z</time>
      </trkpt>
      <trkpt lat="43.49429" lon="1.52925">
        <ele>145</ele>
        <time>2012-09-09T05:53:44Z</time>
      </trkpt>
      <trkpt lat="43.49427" lon="1.52899">
        <ele>146</ele>
        <time>2012-09-09T05:53:48Z</time>
      </trkpt>
      <trkpt lat="43.49416" lon="1.5287">
        <ele>145</ele>
        <time>2012-09-09T05:53:52Z</time>
      </trkpt>
      <trkpt lat="43.49409" lon="1.5285">
        <ele>144</ele>
        <time>2012-09-09T05:53:56Z</time>
      </trkpt>
      <trkpt lat="43.49402" lon="1.52828">
        <ele>144</ele>
        <time>2012-09-09T05:54:00Z</time>
      </trkpt>
      <trkpt lat="43.49395" lon="1.52806">
        <ele>146</ele>
        <time>2012-09-09T05:54:04Z</time>
      </trkpt>
      <trkpt lat="43.49387" lon="1.52783">
        <ele>145</ele>
        <time>2012-09-09T05:54:08Z</time>
      </trkpt>
      <trkpt lat="43.49378" lon="1.52764">
        <ele>144</ele>
        <time>2012-09-09T05:54:12Z</time>
      </trkpt>
      <trkpt lat="43.49373" lon="1.52743">
        <ele>145</ele>
        <time>2012-09-09T05:54:16Z</time>
      </trkpt>
      <trkpt lat="43.49368" lon="1.52721">
        <ele>145</ele>
        <time>2012-09-09T05:54:20Z</time>
      </trkpt>
      <trkpt lat="43.49361" lon="1.52701">
        <ele>141</ele>
        <time>2012-09-09T05:54:24Z</time>
      </trkpt>
      <trkpt lat="43.49358" lon="1.52679">
        <ele>142</ele>
        <time>2012-09-09T05:54:28Z</time>
      </trkpt>
      <trkpt lat="43.49357" lon="1.52655">
        <ele>142</ele>
        <time>2012-09-09T05:54:32Z</time>
      </trkpt>
      <trkpt lat="43.4936" lon="1.52635">
        <ele>141</ele>
        <time>2012-09-09T05:54:36Z</time>
      </trkpt>
      <trkpt lat="43.49361" lon="1.52617">
        <ele>141</ele>
        <time>2012-09-09T05:54:40Z</time>
      </trkpt>
      <trkpt lat="43.49362" lon="1.52588">
        <ele>144</ele>
        <time>2012-09-09T05:54:44Z</time>
      </trkpt>
      <trkpt lat="43.49366" lon="1.52564">
        <ele>145</ele>
        <time>2012-09-09T05:54:48Z</time>
      </trkpt>
      <trkpt lat="43.49371" lon="1.52541">
        <ele>145</ele>
        <time>2012-09-09T05:54:52Z</time>
      </trkpt>
      <trkpt lat="43.49378" lon="1.52525">
        <ele>146</ele>
        <time>2012-09-09T05:54:56Z</time>
      </trkpt>
      <trkpt lat="43.49385" lon="1.52504">
        <ele>145</ele>
        <time>2012-09-09T05:55:00Z</time>
      </trkpt>
      <trkpt lat="43.49391" lon="1.52482">
        <ele>144</ele>
        <time>2012-09-09T05:55:04Z</time>
      </trkpt>
      <trkpt lat="43.49396" lon="1.52461">
        <ele>144</ele>
        <time>2012-09-09T05:55:08Z</time>
      </trkpt>
      <trkpt lat="43.49402" lon="1.52445">
        <ele>145</ele>
        <time>2012-09-09T05:55:12Z</time>
      </trkpt>
      <trkpt lat="43.49406" lon="1.52417">
        <ele>146</ele>
        <time>2012-09-09T05:55:16Z</time>
      </trkpt>
      <trkpt lat="43.49411" lon="1.52387">
        <ele>147</ele>
        <time>2012-09-09T05:55:20Z</time>
      </trkpt>
      <trkpt lat="43.49414" lon="1.5236">
        <ele>147</ele>
        <time>2012-09-09T05:55:24Z</time>
      </trkpt>
      <trkpt lat="43.49418" lon="1.52336">
        <ele>145</ele>
        <time>2012-09-09T05:55:28Z</time>
      </trkpt>
      <trkpt lat="43.49425" lon="1.52315">
        <ele>143</ele>
        <time>2012-09-09T05:55:32Z</time>
      </trkpt>
      <trkpt lat="43.49428" lon="1.52295">
        <ele>144</ele>
        <time>2012-09-09T05:55:36Z</time>
      </trkpt>
      <trkpt lat="43.49434" lon="1.52274">
        <ele>144</ele>
        <time>2012-09-09T05:55:40Z</time>
      </trkpt>
      <trkpt lat="43.49438" lon="1.52251">
        <ele>142</ele>
        <time>2012-09-09T05:55:44Z</time>
      </trkpt>
      <trkpt lat="43.49433" lon="1.5222">
        <ele>146</ele>
        <time>2012-09-09T05:55:48Z</time>
      </trkpt>
      <trkpt lat="43.49428" lon="1.52191">
        <ele>144</ele>
        <time>2012-09-09T05:55:52Z</time>
      </trkpt>
      <trkpt lat="43.49423" lon="1.52169">
        <ele>150</ele>
        <time>2012-09-09T05:55:56Z</time>
      </trkpt>
      <trkpt lat="43.49417" lon="1.52153">
        <ele>152</ele>
        <time>2012-09-09T05:56:00Z</time>
      </trkpt>
      <trkpt lat="43.49414" lon="1.52147">
        <ele>148</ele>
        <time>2012-09-09T05:56:04Z</time>
      </trkpt>
      <trkpt lat="43.49415" lon="1.52149">
        <ele>145</ele>
        <time>2012-09-09T05:56:08Z</time>
      </trkpt>
      <trkpt lat="43.49415" lon="1.52146">
        <ele>144</ele>
        <time>2012-09-09T05:56:20Z</time>
      </trkpt>
      <trkpt lat="43.49415" lon="1.52146">
        <ele>143</ele>
        <time>2012-09-09T05:56:24Z</time>
      </trkpt>
      <trkpt lat="43.49413" lon="1.5215">
        <ele>144</ele>
        <time>2012-09-09T05:56:28Z</time>
      </trkpt>
      <trkpt lat="43.49413" lon="1.52145">
        <ele>150</ele>
        <time>2012-09-09T05:56:36Z</time>
      </trkpt>
      <trkpt lat="43.49416" lon="1.52142">
        <ele>149</ele>
        <time>2012-09-09T05:56:40Z</time>
      </trkpt>
      <trkpt lat="43.49414" lon="1.52143">
        <ele>148</ele>
        <time>2012-09-09T05:57:20Z</time>
      </trkpt>
      <trkpt lat="43.49418" lon="1.52139">
        <ele>151</ele>
        <time>2012-09-09T05:57:28Z</time>
      </trkpt>
      <trkpt lat="43.49421" lon="1.52136">
        <ele>152</ele>
        <time>2012-09-09T05:57:40Z</time>
      </trkpt>
      <trkpt lat="43.49422" lon="1.52132">
        <ele>152</ele>
        <time>2012-09-09T05:57:44Z</time>
      </trkpt>
      <trkpt lat="43.49429" lon="1.52128">
        <ele>150</ele>
        <time>2012-09-09T05:57:48Z</time>
      </trkpt>
      <trkpt lat="43.49433" lon="1.5211">
        <ele>150</ele>
        <time>2012-09-09T05:57:52Z</time>
      </trkpt>
      <trkpt lat="43.49426" lon="1.52094">
        <ele>152</ele>
        <time>2012-09-09T05:57:56Z</time>
      </trkpt>
      <trkpt lat="43.49418" lon="1.52079">
        <ele>153</ele>
        <time>2012-09-09T05:58:00Z</time>
      </trkpt>
      <trkpt lat="43.49405" lon="1.52064">
        <ele>152</ele>
        <time>2012-09-09T05:58:04Z</time>
      </trkpt>
      <trkpt lat="43.49389" lon="1.52045">
        <ele>158</ele>
        <time>2012-09-09T05:58:08Z</time>
      </trkpt>
      <trkpt lat="43.49376" lon="1.52025">
        <ele>159</ele>
        <time>2012-09-09T05:58:12Z</time>
      </trkpt>
      <trkpt lat="43.49366" lon="1.52006">
        <ele>161</ele>
        <time>2012-09-09T05:58:16Z</time>
      </trkpt>
      <trkpt lat="43.4936" lon="1.51988">
        <ele>164</ele>
        <time>2012-09-09T05:58:20Z</time>
      </trkpt>
      <trkpt lat="43.4936" lon="1.51967">
        <ele>163</ele>
        <time>2012-09-09T05:58:24Z</time>
      </trkpt>
      <trkpt lat="43.4936" lon="1.51948">
        <ele>160</ele>
        <time>2012-09-09T05:58:28Z</time>
      </trkpt>
      <trkpt lat="43.49357" lon="1.51928">
        <ele>160</ele>
        <time>2012-09-09T05:58:32Z</time>
      </trkpt>
      <trkpt lat="43.49356" lon="1.51908">
        <ele>160</ele>
        <time>2012-09-09T05:58:36Z</time>
      </trkpt>
      <trkpt lat="43.49351" lon="1.51888">
        <ele>163</ele>
        <time>2012-09-09T05:58:40Z</time>
      </trkpt>
      <trkpt lat="43.49345" lon="1.51868">
        <ele>167</ele>
        <time>2012-09-09T05:58:44Z</time>
      </trkpt>
      <trkpt lat="43.49338" lon="1.51848">
        <ele>167</ele>
        <time>2012-09-09T05:58:48Z</time>
      </trkpt>
      <trkpt lat="43.49334" lon="1.51829">
        <ele>168</ele>
        <time>2012-09-09T05:58:52Z</time>
      </trkpt>
      <trkpt lat="43.49331" lon="1.5181">
        <ele>169</ele>
        <time>2012-09-09T05:58:56Z</time>
      </trkpt>
      <trkpt lat="43.49324" lon="1.51794">
        <ele>170</ele>
        <time>2012-09-09T05:59:00Z</time>
      </trkpt>
      <trkpt lat="43.49318" lon="1.51781">
        <ele>170</ele>
        <time>2012-09-09T05:59:04Z</time>
      </trkpt>
      <trkpt lat="43.49313" lon="1.51768">
        <ele>172</ele>
        <time>2012-09-09T05:59:08Z</time>
      </trkpt>
      <trkpt lat="43.49307" lon="1.51756">
        <ele>172</ele>
        <time>2012-09-09T05:59:12Z</time>
      </trkpt>
      <trkpt lat="43.49302" lon="1.51744">
        <ele>171</ele>
        <time>2012-09-09T05:59:16Z</time>
      </trkpt>
      <trkpt lat="43.49297" lon="1.51732">
        <ele>170</ele>
        <time>2012-09-09T05:59:20Z</time>
      </trkpt>
      <trkpt lat="43.49291" lon="1.51719">
        <ele>171</ele>
        <time>2012-09-09T05:59:24Z</time>
      </trkpt>
      <trkpt lat="43.49283" lon="1.51705">
        <ele>170</ele>
        <time>2012-09-09T05:59:28Z</time>
      </trkpt>
      <trkpt lat="43.49273" lon="1.51693">
        <ele>169</ele>
        <time>2012-09-09T05:59:32Z</time>
      </trkpt>
      <trkpt lat="43.49266" lon="1.51682">
        <ele>170</ele>
        <time>2012-09-09T05:59:36Z</time>
      </trkpt>
      <trkpt lat="43.4926" lon="1.51671">
        <ele>173</ele>
        <time>2012-09-09T05:59:40Z</time>
      </trkpt>
      <trkpt lat="43.49253" lon="1.51659">
        <ele>174</ele>
        <time>2012-09-09T05:59:44Z</time>
      </trkpt>
      <trkpt lat="43.49247" lon="1.51646">
        <ele>175</ele>
        <time>2012-09-09T05:59:48Z</time>
      </trkpt>
      <trkpt lat="43.49234" lon="1.51631">
        <ele>182</ele>
        <time>2012-09-09T05:59:52Z</time>
      </trkpt>
      <trkpt lat="43.4922" lon="1.51618">
        <ele>186</ele>
        <time>2012-09-09T05:59:56Z</time>
      </trkpt>
      <trkpt lat="43.49212" lon="1.51608">
        <ele>185</ele>
        <time>2012-09-09T06:00:00Z</time>
      </trkpt>
      <trkpt lat="43.49203" lon="1.51597">
        <ele>186</ele>
        <time>2012-09-09T06:00:04Z</time>
      </trkpt>
      <trkpt lat="43.49194" lon="1.51584">
        <ele>187</ele>
        <time>2012-09-09T06:00:08Z</time>
      </trkpt>
      <trkpt lat="43.49186" lon="1.51572">
        <ele>191</ele>
        <time>2012-09-09T06:00:12Z</time>
      </trkpt>
      <trkpt lat="43.49179" lon="1.51561">
        <ele>187</ele>
        <time>2012-09-09T06:00:16Z</time>
      </trkpt>
      <trkpt lat="43.49171" lon="1.5155">
        <ele>188</ele>
        <time>2012-09-09T06:00:20Z</time>
      </trkpt>
      <trkpt lat="43.49165" lon="1.51539">
        <ele>187</ele>
        <time>2012-09-09T06:00:24Z</time>
      </trkpt>
      <trkpt lat="43.49156" lon="1.51526">
        <ele>186</ele>
        <time>2012-09-09T06:00:28Z</time>
      </trkpt>
      <trkpt lat="43.49147" lon="1.51515">
        <ele>186</ele>
        <time>2012-09-09T06:00:32Z</time>
      </trkpt>
      <trkpt lat="43.49139" lon="1.51506">
        <ele>185</ele>
        <time>2012-09-09T06:00:36Z</time>
      </trkpt>
      <trkpt lat="43.49131" lon="1.51496">
        <ele>185</ele>
        <time>2012-09-09T06:00:40Z</time>
      </trkpt>
      <trkpt lat="43.4912" lon="1.51485">
        <ele>186</ele>
        <time>2012-09-09T06:00:44Z</time>
      </trkpt>
      <trkpt lat="43.49107" lon="1.51476">
        <ele>184</ele>
        <time>2012-09-09T06:00:48Z</time>
      </trkpt>
      <trkpt lat="43.49095" lon="1.51466">
        <ele>185</ele>
        <time>2012-09-09T06:00:52Z</time>
      </trkpt>
      <trkpt lat="43.49083" lon="1.51456">
        <ele>184</ele>
        <time>2012-09-09T06:00:56Z</time>
      </trkpt>
      <trkpt lat="43.49072" lon="1.51448">
        <ele>185</ele>
        <time>2012-09-09T06:01:00Z</time>
      </trkpt>
      <trkpt lat="43.49057" lon="1.51439">
        <ele>186</ele>
        <time>2012-09-09T06:01:04Z</time>
      </trkpt>
      <trkpt lat="43.49043" lon="1.5143">
        <ele>188</ele>
        <time>2012-09-09T06:01:08Z</time>
      </trkpt>
      <trkpt lat="43.49031" lon="1.51418">
        <ele>190</ele>
        <time>2012-09-09T06:01:12Z</time>
      </trkpt>
      <trkpt lat="43.49021" lon="1.51407">
        <ele>190</ele>
        <time>2012-09-09T06:01:16Z</time>
      </trkpt>
      <trkpt lat="43.49009" lon="1.51396">
        <ele>191</ele>
        <time>2012-09-09T06:01:20Z</time>
      </trkpt>
      <trkpt lat="43.48996" lon="1.51384">
        <ele>190</ele>
        <time>2012-09-09T06:01:24Z</time>
      </trkpt>
      <trkpt lat="43.48985" lon="1.51373">
        <ele>189</ele>
        <time>2012-09-09T06:01:28Z</time>
      </trkpt>
      <trkpt lat="43.4898" lon="1.51363">
        <ele>191</ele>
        <time>2012-09-09T06:01:32Z</time>
      </trkpt>
      <trkpt lat="43.4897" lon="1.51364">
        <ele>191</ele>
        <time>2012-09-09T06:01:36Z</time>
      </trkpt>
      <trkpt lat="43.4896" lon="1.51375">
        <ele>193</ele>
        <time>2012-09-09T06:01:40Z</time>
      </trkpt>
      <trkpt lat="43.48949" lon="1.51385">
        <ele>194</ele>
        <time>2012-09-09T06:01:44Z</time>
      </trkpt>
      <trkpt lat="43.48944" lon="1.51397">
        <ele>195</ele>
        <time>2012-09-09T06:01:48Z</time>
      </trkpt>
      <trkpt lat="43.4894" lon="1.5141">
        <ele>195</ele>
        <time>2012-09-09T06:01:52Z</time>
      </trkpt>
      <trkpt lat="43.48933" lon="1.51427">
        <ele>194</ele>
        <time>2012-09-09T06:01:56Z</time>
      </trkpt>
      <trkpt lat="43.48924" lon="1.51436">
        <ele>193</ele>
        <time>2012-09-09T06:02:00Z</time>
      </trkpt>
      <trkpt lat="43.48919" lon="1.5143">
        <ele>191</ele>
        <time>2012-09-09T06:02:04Z</time>
      </trkpt>
      <trkpt lat="43.48916" lon="1.51424">
        <ele>191</ele>
        <time>2012-09-09T06:02:08Z</time>
      </trkpt>
      <trkpt lat="43.4891" lon="1.51417">
        <ele>195</ele>
        <time>2012-09-09T06:02:12Z</time>
      </trkpt>
      <trkpt lat="43.48903" lon="1.51409">
        <ele>196</ele>
        <time>2012-09-09T06:02:16Z</time>
      </trkpt>
      <trkpt lat="43.48896" lon="1.51399">
        <ele>195</ele>
        <time>2012-09-09T06:02:20Z</time>
      </trkpt>
      <trkpt lat="43.48887" lon="1.51389">
        <ele>194</ele>
        <time>2012-09-09T06:02:24Z</time>
      </trkpt>
      <trkpt lat="43.48878" lon="1.51374">
        <ele>195</ele>
        <time>2012-09-09T06:02:28Z</time>
      </trkpt>
      <trkpt lat="43.48871" lon="1.51361">
        <ele>196</ele>
        <time>2012-09-09T06:02:32Z</time>
      </trkpt>
      <trkpt lat="43.48861" lon="1.51348">
        <ele>198</ele>
        <time>2012-09-09T06:02:36Z</time>
      </trkpt>
      <trkpt lat="43.4885" lon="1.51334">
        <ele>198</ele>
        <time>2012-09-09T06:02:40Z</time>
      </trkpt>
      <trkpt lat="43.48842" lon="1.51322">
        <ele>200</ele>
        <time>2012-09-09T06:02:44Z</time>
      </trkpt>
      <trkpt lat="43.48835" lon="1.51311">
        <ele>202</ele>
        <time>2012-09-09T06:02:48Z</time>
      </trkpt>
      <trkpt lat="43.48828" lon="1.51297">
        <ele>204</ele>
        <time>2012-09-09T06:02:52Z</time>
      </trkpt>
      <trkpt lat="43.48822" lon="1.51287">
        <ele>204</ele>
        <time>2012-09-09T06:02:56Z</time>
      </trkpt>
      <trkpt lat="43.48815" lon="1.51279">
        <ele>206</ele>
        <time>2012-09-09T06:03:00Z</time>
      </trkpt>
      <trkpt lat="43.48808" lon="1.51277">
        <ele>206</ele>
        <time>2012-09-09T06:03:04Z</time>
      </trkpt>
      <trkpt lat="43.48798" lon="1.51278">
        <ele>206</ele>
        <time>2012-09-09T06:03:08Z</time>
      </trkpt>
      <trkpt lat="43.48786" lon="1.51281">
        <ele>206</ele>
        <time>2012-09-09T06:03:12Z</time>
      </trkpt>
      <trkpt lat="43.48775" lon="1.5129">
        <ele>206</ele>
        <time>2012-09-09T06:03:16Z</time>
      </trkpt>
      <trkpt lat="43.48766" lon="1.51298">
        <ele>206</ele>
        <time>2012-09-09T06:03:20Z</time>
      </trkpt>
      <trkpt lat="43.48753" lon="1.51298">
        <ele>209</ele>
        <time>2012-09-09T06:03:24Z</time>
      </trkpt>
      <trkpt lat="43.48741" lon="1.51292">
        <ele>207</ele>
        <time>2012-09-09T06:03:28Z</time>
      </trkpt>
      <trkpt lat="43.48734" lon="1.51284">
        <ele>210</ele>
        <time>2012-09-09T06:03:32Z</time>
      </trkpt>
      <trkpt lat="43.48725" lon="1.51278">
        <ele>210</ele>
        <time>2012-09-09T06:03:36Z</time>
      </trkpt>
      <trkpt lat="43.48718" lon="1.51272">
        <ele>212</ele>
        <time>2012-09-09T06:03:40Z</time>
      </trkpt>
      <trkpt lat="43.48708" lon="1.51265">
        <ele>211</ele>
        <time>2012-09-09T06:03:44Z</time>
      </trkpt>
      <trkpt lat="43.48702" lon="1.51261">
        <ele>212</ele>
        <time>2012-09-09T06:03:48Z</time>
      </trkpt>
      <trkpt lat="43.487" lon="1.51252">
        <ele>214</ele>
        <time>2012-09-09T06:03:52Z</time>
      </trkpt>
      <trkpt lat="43.48704" lon="1.5125">
        <ele>213</ele>
        <time>2012-09-09T06:03:56Z</time>
      </trkpt>
      <trkpt lat="43.487" lon="1.51253">
        <ele>215</ele>
        <time>2012-09-09T06:04:00Z</time>
      </trkpt>
      <trkpt lat="43.48695" lon="1.51258">
        <ele>215</ele>
        <time>2012-09-09T06:04:04Z</time>
      </trkpt>
      <trkpt lat="43.48692" lon="1.51261">
        <ele>216</ele>
        <time>2012-09-09T06:04:08Z</time>
      </trkpt>
      <trkpt lat="43.48696" lon="1.51263">
        <ele>218</ele>
        <time>2012-09-09T06:04:12Z</time>
      </trkpt>
      <trkpt lat="43.48698" lon="1.51256">
        <ele>218</ele>
        <time>2012-09-09T06:05:12Z</time>
      </trkpt>
      <trkpt lat="43.487" lon="1.51249">
        <ele>218</ele>
        <time>2012-09-09T06:05:16Z</time>
      </trkpt>
      <trkpt lat="43.487" lon="1.51249">
        <ele>220</ele>
        <time>2012-09-09T06:05:20Z</time>
      </trkpt>
      <trkpt lat="43.48702" lon="1.51252">
        <ele>219</ele>
        <time>2012-09-09T06:05:24Z</time>
      </trkpt>
      <trkpt lat="43.48695" lon="1.51264">
        <ele>224</ele>
        <time>2012-09-09T06:05:48Z</time>
      </trkpt>
      <trkpt lat="43.48697" lon="1.51261">
        <ele>223</ele>
        <time>2012-09-09T06:06:48Z</time>
      </trkpt>
      <trkpt lat="43.48697" lon="1.51257">
        <ele>228</ele>
        <time>2012-09-09T06:06:52Z</time>
      </trkpt>
      <trkpt lat="43.48695" lon="1.5126">
        <ele>225</ele>
        <time>2012-09-09T06:06:56Z</time>
      </trkpt>
      <trkpt lat="43.487" lon="1.51262">
        <ele>224</ele>
        <time>2012-09-09T06:07:00Z</time>
      </trkpt>
      <trkpt lat="43.48701" lon="1.51262">
        <ele>221</ele>
        <time>2012-09-09T06:07:04Z</time>
      </trkpt>
      <trkpt lat="43.48692" lon="1.5126">
        <ele>216</ele>
        <time>2012-09-09T06:07:32Z</time>
      </trkpt>
      <trkpt lat="43.48696" lon="1.51261">
        <ele>215</ele>
        <time>2012-09-09T06:08:20Z</time>
      </trkpt>
      <trkpt lat="43.48697" lon="1.51264">
        <ele>214</ele>
        <time>2012-09-09T06:08:48Z</time>
      </trkpt>
      <trkpt lat="43.48697" lon="1.51267">
        <ele>215</ele>
        <time>2012-09-09T06:08:52Z</time>
      </trkpt>
      <trkpt lat="43.48684" lon="1.51259">
        <ele>215</ele>
        <time>2012-09-09T06:08:56Z</time>
      </trkpt>
      <trkpt lat="43.48671" lon="1.51251">
        <ele>217</ele>
        <time>2012-09-09T06:09:00Z</time>
      </trkpt>
      <trkpt lat="43.48661" lon="1.51243">
        <ele>220</ele>
        <time>2012-09-09T06:09:04Z</time>
      </trkpt>
      <trkpt lat="43.48651" lon="1.51235">
        <ele>220</ele>
        <time>2012-09-09T06:09:08Z</time>
      </trkpt>
      <trkpt lat="43.48642" lon="1.51228">
        <ele>222</ele>
        <time>2012-09-09T06:09:12Z</time>
      </trkpt>
      <trkpt lat="43.48634" lon="1.51222">
        <ele>221</ele>
        <time>2012-09-09T06:09:16Z</time>
      </trkpt>
      <trkpt lat="43.48629" lon="1.51218">
        <ele>221</ele>
        <time>2012-09-09T06:09:20Z</time>
      </trkpt>
      <trkpt lat="43.48623" lon="1.51212">
        <ele>221</ele>
        <time>2012-09-09T06:09:24Z</time>
      </trkpt>
      <trkpt lat="43.48611" lon="1.51203">
        <ele>223</ele>
        <time>2012-09-09T06:09:28Z</time>
      </trkpt>
      <trkpt lat="43.48598" lon="1.51196">
        <ele>223</ele>
        <time>2012-09-09T06:09:32Z</time>
      </trkpt>
      <trkpt lat="43.48585" lon="1.5119">
        <ele>224</ele>
        <time>2012-09-09T06:09:36Z</time>
      </trkpt>
      <trkpt lat="43.48573" lon="1.51184">
        <ele>225</ele>
        <time>2012-09-09T06:09:40Z</time>
      </trkpt>
      <trkpt lat="43.48562" lon="1.51177">
        <ele>227</ele>
        <time>2012-09-09T06:09:44Z</time>
      </trkpt>
      <trkpt lat="43.48554" lon="1.5117">
        <ele>227</ele>
        <time>2012-09-09T06:09:48Z</time>
      </trkpt>
      <trkpt lat="43.48544" lon="1.51163">
        <ele>229</ele>
        <time>2012-09-09T06:09:52Z</time>
      </trkpt>
      <trkpt lat="43.48535" lon="1.51157">
        <ele>231</ele>
        <time>2012-09-09T06:09:56Z</time>
      </trkpt>
      <trkpt lat="43.48525" lon="1.5115">
        <ele>230</ele>
        <time>2012-09-09T06:10:00Z</time>
      </trkpt>
      <trkpt lat="43.48517" lon="1.51143">
        <ele>230</ele>
        <time>2012-09-09T06:10:04Z</time>
      </trkpt>
      <trkpt lat="43.48509" lon="1.51136">
        <ele>230</ele>
        <time>2012-09-09T06:10:08Z</time>
      </trkpt>
      <trkpt lat="43.48501" lon="1.51129">
        <ele>229</ele>
        <time>2012-09-09T06:10:12Z</time>
      </trkpt>
      <trkpt lat="43.48494" lon="1.51123">
        <ele>229</ele>
        <time>2012-09-09T06:10:16Z</time>
      </trkpt>
      <trkpt lat="43.48487" lon="1.51116">
        <ele>230</ele>
        <time>2012-09-09T06:10:20Z</time>
      </trkpt>
      <trkpt lat="43.48483" lon="1.51108">
        <ele>230</ele>
        <time>2012-09-09T06:10:24Z</time>
      </trkpt>
      <trkpt lat="43.48476" lon="1.51102">
        <ele>230</ele>
        <time>2012-09-09T06:10:28Z</time>
      </trkpt>
      <trkpt lat="43.48467" lon="1.51095">
        <ele>230</ele>
        <time>2012-09-09T06:10:32Z</time>
      </trkpt>
      <trkpt lat="43.4846" lon="1.51085">
        <ele>232</ele>
        <time>2012-09-09T06:10:36Z</time>
      </trkpt>
      <trkpt lat="43.48453" lon="1.51076">
        <ele>237</ele>
        <time>2012-09-09T06:10:40Z</time>
      </trkpt>
      <trkpt lat="43.48448" lon="1.51066">
        <ele>235</ele>
        <time>2012-09-09T06:10:44Z</time>
      </trkpt>
      <trkpt lat="43.48445" lon="1.51056">
        <ele>235</ele>
        <time>2012-09-09T06:10:48Z</time>
      </trkpt>
      <trkpt lat="43.48444" lon="1.51041">
        <ele>236</ele>
        <time>2012-09-09T06:10:52Z</time>
      </trkpt>
      <trkpt lat="43.48443" lon="1.51024">
        <ele>236</ele>
        <time>2012-09-09T06:10:56Z</time>
      </trkpt>
      <trkpt lat="43.48442" lon="1.51011">
        <ele>237</ele>
        <time>2012-09-09T06:11:00Z</time>
      </trkpt>
      <trkpt lat="43.48441" lon="1.51001">
        <ele>236</ele>
        <time>2012-09-09T06:11:04Z</time>
      </trkpt>
      <trkpt lat="43.48442" lon="1.5099">
        <ele>236</ele>
        <time>2012-09-09T06:11:08Z</time>
      </trkpt>
      <trkpt lat="43.48441" lon="1.50974">
        <ele>236</ele>
        <time>2012-09-09T06:11:12Z</time>
      </trkpt>
      <trkpt lat="43.48439" lon="1.50959">
        <ele>236</ele>
        <time>2012-09-09T06:11:16Z</time>
      </trkpt>
      <trkpt lat="43.48436" lon="1.50945">
        <ele>235</ele>
        <time>2012-09-09T06:11:20Z</time>
      </trkpt>
      <trkpt lat="43.48433" lon="1.50933">
        <ele>237</ele>
        <time>2012-09-09T06:11:24Z</time>
      </trkpt>
      <trkpt lat="43.48433" lon="1.50918">
        <ele>236</ele>
        <time>2012-09-09T06:11:28Z</time>
      </trkpt>
      <trkpt lat="43.48431" lon="1.50904">
        <ele>237</ele>
        <time>2012-09-09T06:11:32Z</time>
      </trkpt>
      <trkpt lat="43.48426" lon="1.50881">
        <ele>239</ele>
        <time>2012-09-09T06:11:36Z</time>
      </trkpt>
      <trkpt lat="43.48427" lon="1.5087">
        <ele>241</ele>
        <time>2012-09-09T06:11:40Z</time>
      </trkpt>
      <trkpt lat="43.48428" lon="1.50858">
        <ele>242</ele>
        <time>2012-09-09T06:11:44Z</time>
      </trkpt>
      <trkpt lat="43.48423" lon="1.50846">
        <ele>244</ele>
        <time>2012-09-09T06:11:48Z</time>
      </trkpt>
      <trkpt lat="43.48423" lon="1.50834">
        <ele>244</ele>
        <time>2012-09-09T06:11:52Z</time>
      </trkpt>
      <trkpt lat="43.48425" lon="1.50819">
        <ele>243</ele>
        <time>2012-09-09T06:11:56Z</time>
      </trkpt>
      <trkpt lat="43.48422" lon="1.50804">
        <ele>243</ele>
        <time>2012-09-09T06:12:00Z</time>
      </trkpt>
      <trkpt lat="43.48416" lon="1.50783">
        <ele>245</ele>
        <time>2012-09-09T06:12:04Z</time>
      </trkpt>
      <trkpt lat="43.4841" lon="1.50763">
        <ele>246</ele>
        <time>2012-09-09T06:12:08Z</time>
      </trkpt>
      <trkpt lat="43.48406" lon="1.50745">
        <ele>247</ele>
        <time>2012-09-09T06:12:12Z</time>
      </trkpt>
      <trkpt lat="43.48401" lon="1.50731">
        <ele>249</ele>
        <time>2012-09-09T06:12:16Z</time>
      </trkpt>
      <trkpt lat="43.48397" lon="1.50715">
        <ele>250</ele>
        <time>2012-09-09T06:12:20Z</time>
      </trkpt>
      <trkpt lat="43.48395" lon="1.50699">
        <ele>250</ele>
        <time>2012-09-09T06:12:24Z</time>
      </trkpt>
      <trkpt lat="43.48391" lon="1.50684">
        <ele>250</ele>
        <time>2012-09-09T06:12:28Z</time>
      </trkpt>
      <trkpt lat="43.48385" lon="1.50667">
        <ele>251</ele>
        <time>2012-09-09T06:12:32Z</time>
      </trkpt>
      <trkpt lat="43.4838" lon="1.50651">
        <ele>250</ele>
        <time>2012-09-09T06:12:36Z</time>
      </trkpt>
      <trkpt lat="43.48375" lon="1.50637">
        <ele>250</ele>
        <time>2012-09-09T06:12:40Z</time>
      </trkpt>
      <trkpt lat="43.4837" lon="1.50621">
        <ele>248</ele>
        <time>2012-09-09T06:12:44Z</time>
      </trkpt>
      <trkpt lat="43.48364" lon="1.50604">
        <ele>249</ele>
        <time>2012-09-09T06:12:48Z</time>
      </trkpt>
      <trkpt lat="43.48358" lon="1.50588">
        <ele>249</ele>
        <time>2012-09-09T06:12:52Z</time>
      </trkpt>
      <trkpt lat="43.48352" lon="1.50571">
        <ele>248</ele>
        <time>2012-09-09T06:12:56Z</time>
      </trkpt>
      <trkpt lat="43.48348" lon="1.50558">
        <ele>249</ele>
        <time>2012-09-09T06:13:00Z</time>
      </trkpt>
      <trkpt lat="43.48343" lon="1.5054">
        <ele>249</ele>
        <time>2012-09-09T06:13:04Z</time>
      </trkpt>
      <trkpt lat="43.48333" lon="1.5052">
        <ele>251</ele>
        <time>2012-09-09T06:13:08Z</time>
      </trkpt>
      <trkpt lat="43.48323" lon="1.50499">
        <ele>252</ele>
        <time>2012-09-09T06:13:12Z</time>
      </trkpt>
      <trkpt lat="43.48315" lon="1.5048">
        <ele>253</ele>
        <time>2012-09-09T06:13:16Z</time>
      </trkpt>
      <trkpt lat="43.48308" lon="1.50467">
        <ele>251</ele>
        <time>2012-09-09T06:13:20Z</time>
      </trkpt>
      <trkpt lat="43.483" lon="1.50449">
        <ele>253</ele>
        <time>2012-09-09T06:13:24Z</time>
      </trkpt>
      <trkpt lat="43.48289" lon="1.5043">
        <ele>255</ele>
        <time>2012-09-09T06:13:28Z</time>
      </trkpt>
      <trkpt lat="43.4828" lon="1.50413">
        <ele>257</ele>
        <time>2012-09-09T06:13:32Z</time>
      </trkpt>
      <trkpt lat="43.48272" lon="1.50399">
        <ele>255</ele>
        <time>2012-09-09T06:13:36Z</time>
      </trkpt>
      <trkpt lat="43.48259" lon="1.5039">
        <ele>254</ele>
        <time>2012-09-09T06:13:40Z</time>
      </trkpt>
      <trkpt lat="43.48246" lon="1.50385">
        <ele>254</ele>
        <time>2012-09-09T06:13:44Z</time>
      </trkpt>
      <trkpt lat="43.48227" lon="1.5039">
        <ele>255</ele>
        <time>2012-09-09T06:13:48Z</time>
      </trkpt>
      <trkpt lat="43.48203" lon="1.50395">
        <ele>252</ele>
        <time>2012-09-09T06:13:52Z</time>
      </trkpt>
      <trkpt lat="43.48175" lon="1.50396">
        <ele>253</ele>
        <time>2012-09-09T06:13:56Z</time>
      </trkpt>
      <trkpt lat="43.48146" lon="1.504">
        <ele>251</ele>
        <time>2012-09-09T06:14:00Z</time>
      </trkpt>
      <trkpt lat="43.48108" lon="1.50405">
        <ele>250</ele>
        <time>2012-09-09T06:14:04Z</time>
      </trkpt>
      <trkpt lat="43.48068" lon="1.50413">
        <ele>249</ele>
        <time>2012-09-09T06:14:08Z</time>
      </trkpt>
      <trkpt lat="43.4803" lon="1.50421">
        <ele>248</ele>
        <time>2012-09-09T06:14:12Z</time>
      </trkpt>
      <trkpt lat="43.48" lon="1.50401">
        <ele>245</ele>
        <time>2012-09-09T06:14:16Z</time>
      </trkpt>
      <trkpt lat="43.47972" lon="1.50369">
        <ele>245</ele>
        <time>2012-09-09T06:14:20Z</time>
      </trkpt>
      <trkpt lat="43.47952" lon="1.50339">
        <ele>241</ele>
        <time>2012-09-09T06:14:24Z</time>
      </trkpt>
      <trkpt lat="43.47934" lon="1.50314">
        <ele>242</ele>
        <time>2012-09-09T06:14:28Z</time>
      </trkpt>
      <trkpt lat="43.4792" lon="1.50292">
        <ele>244</ele>
        <time>2012-09-09T06:14:32Z</time>
      </trkpt>
      <trkpt lat="43.4791" lon="1.50275">
        <ele>245</ele>
        <time>2012-09-09T06:14:36Z</time>
      </trkpt>
      <trkpt lat="43.47897" lon="1.50262">
        <ele>246</ele>
        <time>2012-09-09T06:14:40Z</time>
      </trkpt>
      <trkpt lat="43.47888" lon="1.50253">
        <ele>245</ele>
        <time>2012-09-09T06:14:44Z</time>
      </trkpt>
      <trkpt lat="43.47881" lon="1.50242">
        <ele>244</ele>
        <time>2012-09-09T06:14:48Z</time>
      </trkpt>
      <trkpt lat="43.47876" lon="1.50232">
        <ele>245</ele>
        <time>2012-09-09T06:14:52Z</time>
      </trkpt>
      <trkpt lat="43.47867" lon="1.50221">
        <ele>248</ele>
        <time>2012-09-09T06:14:56Z</time>
      </trkpt>
      <trkpt lat="43.47856" lon="1.50204">
        <ele>248</ele>
        <time>2012-09-09T06:15:00Z</time>
      </trkpt>
      <trkpt lat="43.47845" lon="1.50188">
        <ele>247</ele>
        <time>2012-09-09T06:15:04Z</time>
      </trkpt>
      <trkpt lat="43.47836" lon="1.50176">
        <ele>248</ele>
        <time>2012-09-09T06:15:08Z</time>
      </trkpt>
      <trkpt lat="43.47829" lon="1.50167">
        <ele>248</ele>
        <time>2012-09-09T06:15:12Z</time>
      </trkpt>
      <trkpt lat="43.47822" lon="1.50156">
        <ele>251</ele>
        <time>2012-09-09T06:15:16Z</time>
      </trkpt>
      <trkpt lat="43.47814" lon="1.50146">
        <ele>248</ele>
        <time>2012-09-09T06:15:20Z</time>
      </trkpt>
      <trkpt lat="43.47807" lon="1.50133">
        <ele>249</ele>
        <time>2012-09-09T06:15:24Z</time>
      </trkpt>
      <trkpt lat="43.47801" lon="1.50121">
        <ele>251</ele>
        <time>2012-09-09T06:15:28Z</time>
      </trkpt>
      <trkpt lat="43.47793" lon="1.5011">
        <ele>252</ele>
        <time>2012-09-09T06:15:32Z</time>
      </trkpt>
      <trkpt lat="43.47782" lon="1.50101">
        <ele>252</ele>
        <time>2012-09-09T06:15:36Z</time>
      </trkpt>
      <trkpt lat="43.4777" lon="1.50094">
        <ele>254</ele>
        <time>2012-09-09T06:15:40Z</time>
      </trkpt>
      <trkpt lat="43.4776" lon="1.50085">
        <ele>255</ele>
        <time>2012-09-09T06:15:44Z</time>
      </trkpt>
      <trkpt lat="43.47748" lon="1.50075">
        <ele>256</ele>
        <time>2012-09-09T06:15:48Z</time>
      </trkpt>
      <trkpt lat="43.47735" lon="1.50068">
        <ele>257</ele>
        <time>2012-09-09T06:15:52Z</time>
      </trkpt>
      <trkpt lat="43.47726" lon="1.50064">
        <ele>256</ele>
        <time>2012-09-09T06:15:56Z</time>
      </trkpt>
      <trkpt lat="43.47717" lon="1.50056">
        <ele>250</ele>
        <time>2012-09-09T06:16:00Z</time>
      </trkpt>
      <trkpt lat="43.47701" lon="1.50049">
        <ele>253</ele>
        <time>2012-09-09T06:16:04Z</time>
      </trkpt>
      <trkpt lat="43.47678" lon="1.50041">
        <ele>256</ele>
        <time>2012-09-09T06:16:08Z</time>
      </trkpt>
      <trkpt lat="43.47664" lon="1.50028">
        <ele>258</ele>
        <time>2012-09-09T06:16:12Z</time>
      </trkpt>
      <trkpt lat="43.47648" lon="1.50015">
        <ele>258</ele>
        <time>2012-09-09T06:16:16Z</time>
      </trkpt>
      <trkpt lat="43.4764" lon="1.50001">
        <ele>255</ele>
        <time>2012-09-09T06:16:20Z</time>
      </trkpt>
      <trkpt lat="43.47628" lon="1.49985">
        <ele>254</ele>
        <time>2012-09-09T06:16:24Z</time>
      </trkpt>
      <trkpt lat="43.47617" lon="1.49967">
        <ele>255</ele>
        <time>2012-09-09T06:16:28Z</time>
      </trkpt>
      <trkpt lat="43.47607" lon="1.49944">
        <ele>256</ele>
        <time>2012-09-09T06:16:32Z</time>
      </trkpt>
      <trkpt lat="43.47607" lon="1.49925">
        <ele>258</ele>
        <time>2012-09-09T06:16:36Z</time>
      </trkpt>
      <trkpt lat="43.47606" lon="1.49902">
        <ele>257</ele>
        <time>2012-09-09T06:16:40Z</time>
      </trkpt>
      <trkpt lat="43.47606" lon="1.49878">
        <ele>256</ele>
        <time>2012-09-09T06:16:44Z</time>
      </trkpt>
      <trkpt lat="43.47599" lon="1.49845">
        <ele>255</ele>
        <time>2012-09-09T06:16:48Z</time>
      </trkpt>
      <trkpt lat="43.47607" lon="1.49826">
        <ele>256</ele>
        <time>2012-09-09T06:16:52Z</time>
      </trkpt>
      <trkpt lat="43.47608" lon="1.49801">
        <ele>253</ele>
        <time>2012-09-09T06:16:56Z</time>
      </trkpt>
      <trkpt lat="43.47609" lon="1.49774">
        <ele>254</ele>
        <time>2012-09-09T06:17:00Z</time>
      </trkpt>
      <trkpt lat="43.4761" lon="1.49768">
        <ele>252</ele>
        <time>2012-09-09T06:17:04Z</time>
      </trkpt>
      <trkpt lat="43.47609" lon="1.49761">
        <ele>254</ele>
        <time>2012-09-09T06:17:08Z</time>
      </trkpt>
      <trkpt lat="43.47608" lon="1.49761">
        <ele>256</ele>
        <time>2012-09-09T06:17:12Z</time>
      </trkpt>
      <trkpt lat="43.47606" lon="1.49763">
        <ele>256</ele>
        <time>2012-09-09T06:17:32Z</time>
      </trkpt>
      <trkpt lat="43.47611" lon="1.49759">
        <ele>255</ele>
        <time>2012-09-09T06:18:56Z</time>
      </trkpt>
      <trkpt lat="43.47612" lon="1.49749">
        <ele>255</ele>
        <time>2012-09-09T06:19:00Z</time>
      </trkpt>
      <trkpt lat="43.47614" lon="1.49733">
        <ele>253</ele>
        <time>2012-09-09T06:19:04Z</time>
      </trkpt>
      <trkpt lat="43.47616" lon="1.49714">
        <ele>255</ele>
        <time>2012-09-09T06:19:08Z</time>
      </trkpt>
      <trkpt lat="43.47619" lon="1.497">
        <ele>255</ele>
        <time>2012-09-09T06:19:12Z</time>
      </trkpt>
      <trkpt lat="43.47623" lon="1.49679">
        <ele>255</ele>
        <time>2012-09-09T06:19:16Z</time>
      </trkpt>
      <trkpt lat="43.47628" lon="1.49658">
        <ele>253</ele>
        <time>2012-09-09T06:19:20Z</time>
      </trkpt>
      <trkpt lat="43.47634" lon="1.49635">
        <ele>252</ele>
        <time>2012-09-09T06:19:24Z</time>
      </trkpt>
      <trkpt lat="43.47638" lon="1.49612">
        <ele>252</ele>
        <time>2012-09-09T06:19:28Z</time>
      </trkpt>
      <trkpt lat="43.47643" lon="1.49587">
        <ele>251</ele>
        <time>2012-09-09T06:19:32Z</time>
      </trkpt>
      <trkpt lat="43.47649" lon="1.49562">
        <ele>251</ele>
        <time>2012-09-09T06:19:36Z</time>
      </trkpt>
      <trkpt lat="43.4766" lon="1.49533">
        <ele>251</ele>
        <time>2012-09-09T06:19:40Z</time>
      </trkpt>
      <trkpt lat="43.47664" lon="1.49493">
        <ele>251</ele>
        <time>2012-09-09T06:19:44Z</time>
      </trkpt>
      <trkpt lat="43.4767" lon="1.49441">
        <ele>251</ele>
        <time>2012-09-09T06:19:48Z</time>
      </trkpt>
      <trkpt lat="43.47665" lon="1.49386">
        <ele>250</ele>
        <time>2012-09-09T06:19:52Z</time>
      </trkpt>
      <trkpt lat="43.47696" lon="1.4916">
        <ele>249</ele>
        <time>2012-09-09T06:20:08Z</time>
      </trkpt>
      <trkpt lat="43.47718" lon="1.49107">
        <ele>247</ele>
        <time>2012-09-09T06:20:12Z</time>
      </trkpt>
      <trkpt lat="43.4772" lon="1.49062">
        <ele>246</ele>
        <time>2012-09-09T06:20:16Z</time>
      </trkpt>
      <trkpt lat="43.47711" lon="1.49016">
        <ele>245</ele>
        <time>2012-09-09T06:20:20Z</time>
      </trkpt>
      <trkpt lat="43.47708" lon="1.48971">
        <ele>239</ele>
        <time>2012-09-09T06:20:24Z</time>
      </trkpt>
      <trkpt lat="43.47705" lon="1.48924">
        <ele>238</ele>
        <time>2012-09-09T06:20:28Z</time>
      </trkpt>
      <trkpt lat="43.47706" lon="1.48876">
        <ele>239</ele>
        <time>2012-09-09T06:20:32Z</time>
      </trkpt>
      <trkpt lat="43.47715" lon="1.48836">
        <ele>238</ele>
        <time>2012-09-09T06:20:36Z</time>
      </trkpt>
      <trkpt lat="43.47726" lon="1.48796">
        <ele>239</ele>
        <time>2012-09-09T06:20:40Z</time>
      </trkpt>
      <trkpt lat="43.47734" lon="1.48752">
        <ele>240</ele>
        <time>2012-09-09T06:20:44Z</time>
      </trkpt>
      <trkpt lat="43.47745" lon="1.48717">
        <ele>238</ele>
        <time>2012-09-09T06:20:48Z</time>
      </trkpt>
      <trkpt lat="43.47752" lon="1.48684">
        <ele>236</ele>
        <time>2012-09-09T06:20:52Z</time>
      </trkpt>
      <trkpt lat="43.47757" lon="1.48651">
        <ele>237</ele>
        <time>2012-09-09T06:20:56Z</time>
      </trkpt>
      <trkpt lat="43.47768" lon="1.48618">
        <ele>238</ele>
        <time>2012-09-09T06:21:00Z</time>
      </trkpt>
      <trkpt lat="43.47775" lon="1.48585">
        <ele>236</ele>
        <time>2012-09-09T06:21:04Z</time>
      </trkpt>
      <trkpt lat="43.47785" lon="1.48542">
        <ele>237</ele>
        <time>2012-09-09T06:21:08Z</time>
      </trkpt>
      <trkpt lat="43.47782" lon="1.48509">
        <ele>237</ele>
        <time>2012-09-09T06:21:12Z</time>
      </trkpt>
      <trkpt lat="43.47775" lon="1.48473">
        <ele>236</ele>
        <time>2012-09-09T06:21:16Z</time>
      </trkpt>
      <trkpt lat="43.47768" lon="1.48434">
        <ele>236</ele>
        <time>2012-09-09T06:21:20Z</time>
      </trkpt>
      <trkpt lat="43.47763" lon="1.48399">
        <ele>236</ele>
        <time>2012-09-09T06:21:24Z</time>
      </trkpt>
      <trkpt lat="43.47757" lon="1.48363">
        <ele>240</ele>
        <time>2012-09-09T06:21:28Z</time>
      </trkpt>
      <trkpt lat="43.47752" lon="1.48332">
        <ele>238</ele>
        <time>2012-09-09T06:21:32Z</time>
      </trkpt>
      <trkpt lat="43.47754" lon="1.48308">
        <ele>238</ele>
        <time>2012-09-09T06:21:36Z</time>
      </trkpt>
      <trkpt lat="43.47751" lon="1.48279">
        <ele>239</ele>
        <time>2012-09-09T06:21:40Z</time>
      </trkpt>
      <trkpt lat="43.47743" lon="1.48252">
        <ele>237</ele>
        <time>2012-09-09T06:21:44Z</time>
      </trkpt>
      <trkpt lat="43.47738" lon="1.48224">
        <ele>236</ele>
        <time>2012-09-09T06:21:48Z</time>
      </trkpt>
      <trkpt lat="43.47737" lon="1.48205">
        <ele>240</ele>
        <time>2012-09-09T06:21:52Z</time>
      </trkpt>
      <trkpt lat="43.47731" lon="1.48176">
        <ele>242</ele>
        <time>2012-09-09T06:21:56Z</time>
      </trkpt>
      <trkpt lat="43.47727" lon="1.48152">
        <ele>242</ele>
        <time>2012-09-09T06:22:00Z</time>
      </trkpt>
      <trkpt lat="43.47722" lon="1.48136">
        <ele>242</ele>
        <time>2012-09-09T06:22:04Z</time>
      </trkpt>
      <trkpt lat="43.47724" lon="1.4812">
        <ele>245</ele>
        <time>2012-09-09T06:22:08Z</time>
      </trkpt>
      <trkpt lat="43.47723" lon="1.48099">
        <ele>247</ele>
        <time>2012-09-09T06:22:12Z</time>
      </trkpt>
      <trkpt lat="43.47723" lon="1.4808">
        <ele>248</ele>
        <time>2012-09-09T06:22:16Z</time>
      </trkpt>
      <trkpt lat="43.47723" lon="1.4806">
        <ele>246</ele>
        <time>2012-09-09T06:22:20Z</time>
      </trkpt>
      <trkpt lat="43.47725" lon="1.48035">
        <ele>245</ele>
        <time>2012-09-09T06:22:24Z</time>
      </trkpt>
      <trkpt lat="43.47725" lon="1.48014">
        <ele>244</ele>
        <time>2012-09-09T06:22:28Z</time>
      </trkpt>
      <trkpt lat="43.47727" lon="1.47982">
        <ele>244</ele>
        <time>2012-09-09T06:22:32Z</time>
      </trkpt>
      <trkpt lat="43.47731" lon="1.47939">
        <ele>246</ele>
        <time>2012-09-09T06:22:36Z</time>
      </trkpt>
      <trkpt lat="43.4773" lon="1.4789">
        <ele>242</ele>
        <time>2012-09-09T06:22:40Z</time>
      </trkpt>
      <trkpt lat="43.4773" lon="1.47831">
        <ele>241</ele>
        <time>2012-09-09T06:22:44Z</time>
      </trkpt>
      <trkpt lat="43.4774" lon="1.47766">
        <ele>240</ele>
        <time>2012-09-09T06:22:48Z</time>
      </trkpt>
      <trkpt lat="43.47754" lon="1.4769">
        <ele>239</ele>
        <time>2012-09-09T06:22:52Z</time>
      </trkpt>
      <trkpt lat="43.47839" lon="1.47233">
        <ele>228</ele>
        <time>2012-09-09T06:23:16Z</time>
      </trkpt>
      <trkpt lat="43.4778" lon="1.47187">
        <ele>219</ele>
        <time>2012-09-09T06:23:20Z</time>
      </trkpt>
      <trkpt lat="43.47744" lon="1.47171">
        <ele>214</ele>
        <time>2012-09-09T06:23:24Z</time>
      </trkpt>
      <trkpt lat="43.47743" lon="1.4715">
        <ele>206</ele>
        <time>2012-09-09T06:23:28Z</time>
      </trkpt>
      <trkpt lat="43.4775" lon="1.47131">
        <ele>202</ele>
        <time>2012-09-09T06:23:32Z</time>
      </trkpt>
      <trkpt lat="43.47757" lon="1.47121">
        <ele>194</ele>
        <time>2012-09-09T06:23:36Z</time>
      </trkpt>
      <trkpt lat="43.47763" lon="1.47107">
        <ele>192</ele>
        <time>2012-09-09T06:23:40Z</time>
      </trkpt>
      <trkpt lat="43.47767" lon="1.47093">
        <ele>187</ele>
        <time>2012-09-09T06:23:44Z</time>
      </trkpt>
      <trkpt lat="43.47771" lon="1.47084">
        <ele>183</ele>
        <time>2012-09-09T06:23:48Z</time>
      </trkpt>
      <trkpt lat="43.47777" lon="1.47071">
        <ele>181</ele>
        <time>2012-09-09T06:23:52Z</time>
      </trkpt>
      <trkpt lat="43.47789" lon="1.47049">
        <ele>179</ele>
        <time>2012-09-09T06:23:56Z</time>
      </trkpt>
      <trkpt lat="43.47799" lon="1.4703">
        <ele>179</ele>
        <time>2012-09-09T06:24:00Z</time>
      </trkpt>
      <trkpt lat="43.4781" lon="1.47011">
        <ele>179</ele>
        <time>2012-09-09T06:24:04Z</time>
      </trkpt>
      <trkpt lat="43.47821" lon="1.46988">
        <ele>178</ele>
        <time>2012-09-09T06:24:08Z</time>
      </trkpt>
      <trkpt lat="43.47827" lon="1.46969">
        <ele>174</ele>
        <time>2012-09-09T06:24:12Z</time>
      </trkpt>
      <trkpt lat="43.47837" lon="1.4695">
        <ele>172</ele>
        <time>2012-09-09T06:24:16Z</time>
      </trkpt>
      <trkpt lat="43.47849" lon="1.46929">
        <ele>173</ele>
        <time>2012-09-09T06:24:20Z</time>
      </trkpt>
      <trkpt lat="43.47859" lon="1.46903">
        <ele>173</ele>
        <time>2012-09-09T06:24:24Z</time>
      </trkpt>
      <trkpt lat="43.47869" lon="1.46878">
        <ele>171</ele>
        <time>2012-09-09T06:24:28Z</time>
      </trkpt>
      <trkpt lat="43.47884" lon="1.46864">
        <ele>170</ele>
        <time>2012-09-09T06:24:32Z</time>
      </trkpt>
      <trkpt lat="43.47889" lon="1.46853">
        <ele>170</ele>
        <time>2012-09-09T06:24:36Z</time>
      </trkpt>
      <trkpt lat="43.479" lon="1.46842">
        <ele>169</ele>
        <time>2012-09-09T06:24:40Z</time>
      </trkpt>
      <trkpt lat="43.47911" lon="1.46824">
        <ele>169</ele>
        <time>2012-09-09T06:24:44Z</time>
      </trkpt>
      <trkpt lat="43.4792" lon="1.46803">
        <ele>169</ele>
        <time>2012-09-09T06:24:48Z</time>
      </trkpt>
      <trkpt lat="43.47934" lon="1.4677">
        <ele>171</ele>
        <time>2012-09-09T06:24:52Z</time>
      </trkpt>
      <trkpt lat="43.47942" lon="1.4673">
        <ele>170</ele>
        <time>2012-09-09T06:24:56Z</time>
      </trkpt>
      <trkpt lat="43.47952" lon="1.4669">
        <ele>169</ele>
        <time>2012-09-09T06:25:00Z</time>
      </trkpt>
      <trkpt lat="43.47958" lon="1.46648">
        <ele>169</ele>
        <time>2012-09-09T06:25:04Z</time>
      </trkpt>
      <trkpt lat="43.47965" lon="1.4661">
        <ele>170</ele>
        <time>2012-09-09T06:25:08Z</time>
      </trkpt>
      <trkpt lat="43.47969" lon="1.46572">
        <ele>172</ele>
        <time>2012-09-09T06:25:12Z</time>
      </trkpt>
      <trkpt lat="43.47975" lon="1.46534">
        <ele>173</ele>
        <time>2012-09-09T06:25:16Z</time>
      </trkpt>
      <trkpt lat="43.47983" lon="1.46498">
        <ele>171</ele>
        <time>2012-09-09T06:25:20Z</time>
      </trkpt>
      <trkpt lat="43.47992" lon="1.46465">
        <ele>171</ele>
        <time>2012-09-09T06:25:24Z</time>
      </trkpt>
      <trkpt lat="43.48001" lon="1.46431">
        <ele>171</ele>
        <time>2012-09-09T06:25:28Z</time>
      </trkpt>
      <trkpt lat="43.48001" lon="1.46399">
        <ele>173</ele>
        <time>2012-09-09T06:25:32Z</time>
      </trkpt>
      <trkpt lat="43.48003" lon="1.4637">
        <ele>173</ele>
        <time>2012-09-09T06:25:36Z</time>
      </trkpt>
      <trkpt lat="43.48008" lon="1.4634">
        <ele>175</ele>
        <time>2012-09-09T06:25:40Z</time>
      </trkpt>
      <trkpt lat="43.48014" lon="1.46307">
        <ele>175</ele>
        <time>2012-09-09T06:25:44Z</time>
      </trkpt>
      <trkpt lat="43.48011" lon="1.46266">
        <ele>177</ele>
        <time>2012-09-09T06:25:48Z</time>
      </trkpt>
      <trkpt lat="43.48015" lon="1.46232">
        <ele>178</ele>
        <time>2012-09-09T06:25:52Z</time>
      </trkpt>
      <trkpt lat="43.48021" lon="1.46197">
        <ele>178</ele>
        <time>2012-09-09T06:25:56Z</time>
      </trkpt>
      <trkpt lat="43.48028" lon="1.4616">
        <ele>177</ele>
        <time>2012-09-09T06:26:00Z</time>
      </trkpt>
      <trkpt lat="43.4804" lon="1.46127">
        <ele>176</ele>
        <time>2012-09-09T06:26:04Z</time>
      </trkpt>
      <trkpt lat="43.48052" lon="1.46092">
        <ele>177</ele>
        <time>2012-09-09T06:26:08Z</time>
      </trkpt>
      <trkpt lat="43.48064" lon="1.46062">
        <ele>174</ele>
        <time>2012-09-09T06:26:12Z</time>
      </trkpt>
      <trkpt lat="43.48074" lon="1.46026">
        <ele>174</ele>
        <time>2012-09-09T06:26:16Z</time>
      </trkpt>
      <trkpt lat="43.48085" lon="1.45984">
        <ele>172</ele>
        <time>2012-09-09T06:26:20Z</time>
      </trkpt>
      <trkpt lat="43.48106" lon="1.45981">
        <ele>173</ele>
        <time>2012-09-09T06:26:24Z</time>
      </trkpt>
      <trkpt lat="43.481" lon="1.45955">
        <ele>174</ele>
        <time>2012-09-09T06:26:28Z</time>
      </trkpt>
      <trkpt lat="43.48083" lon="1.45932">
        <ele>178</ele>
        <time>2012-09-09T06:26:32Z</time>
      </trkpt>
      <trkpt lat="43.48072" lon="1.45918">
        <ele>178</ele>
        <time>2012-09-09T06:26:36Z</time>
      </trkpt>
      <trkpt lat="43.48065" lon="1.45905">
        <ele>178</ele>
        <time>2012-09-09T06:26:40Z</time>
      </trkpt>
      <trkpt lat="43.48056" lon="1.45896">
        <ele>179</ele>
        <time>2012-09-09T06:26:44Z</time>
      </trkpt>
      <trkpt lat="43.48045" lon="1.45886">
        <ele>180</ele>
        <time>2012-09-09T06:26:48Z</time>
      </trkpt>
      <trkpt lat="43.48033" lon="1.45877">
        <ele>180</ele>
        <time>2012-09-09T06:26:52Z</time>
      </trkpt>
      <trkpt lat="43.48021" lon="1.45869">
        <ele>183</ele>
        <time>2012-09-09T06:26:56Z</time>
      </trkpt>
      <trkpt lat="43.4801" lon="1.45863">
        <ele>183</ele>
        <time>2012-09-09T06:27:00Z</time>
      </trkpt>
      <trkpt lat="43.47998" lon="1.45856">
        <ele>185</ele>
        <time>2012-09-09T06:27:04Z</time>
      </trkpt>
      <trkpt lat="43.47989" lon="1.4585">
        <ele>188</ele>
        <time>2012-09-09T06:27:08Z</time>
      </trkpt>
      <trkpt lat="43.47979" lon="1.45843">
        <ele>191</ele>
        <time>2012-09-09T06:27:12Z</time>
      </trkpt>
      <trkpt lat="43.47968" lon="1.45835">
        <ele>192</ele>
        <time>2012-09-09T06:27:16Z</time>
      </trkpt>
      <trkpt lat="43.47959" lon="1.45826">
        <ele>194</ele>
        <time>2012-09-09T06:27:20Z</time>
      </trkpt>
      <trkpt lat="43.47949" lon="1.45817">
        <ele>197</ele>
        <time>2012-09-09T06:27:24Z</time>
      </trkpt>
      <trkpt lat="43.4794" lon="1.45809">
        <ele>197</ele>
        <time>2012-09-09T06:27:28Z</time>
      </trkpt>
      <trkpt lat="43.47931" lon="1.45802">
        <ele>198</ele>
        <time>2012-09-09T06:27:32Z</time>
      </trkpt>
      <trkpt lat="43.47923" lon="1.45794">
        <ele>198</ele>
        <time>2012-09-09T06:27:36Z</time>
      </trkpt>
      <trkpt lat="43.47915" lon="1.45788">
        <ele>198</ele>
        <time>2012-09-09T06:27:40Z</time>
      </trkpt>
      <trkpt lat="43.47906" lon="1.4578">
        <ele>200</ele>
        <time>2012-09-09T06:27:44Z</time>
      </trkpt>
      <trkpt lat="43.47899" lon="1.45773">
        <ele>201</ele>
        <time>2012-09-09T06:27:48Z</time>
      </trkpt>
      <trkpt lat="43.47893" lon="1.45766">
        <ele>201</ele>
        <time>2012-09-09T06:27:52Z</time>
      </trkpt>
      <trkpt lat="43.47888" lon="1.4576">
        <ele>201</ele>
        <time>2012-09-09T06:27:56Z</time>
      </trkpt>
      <trkpt lat="43.47889" lon="1.45751">
        <ele>200</ele>
        <time>2012-09-09T06:28:00Z</time>
      </trkpt>
      <trkpt lat="43.47893" lon="1.45746">
        <ele>199</ele>
        <time>2012-09-09T06:28:04Z</time>
      </trkpt>
      <trkpt lat="43.47895" lon="1.45747">
        <ele>199</ele>
        <time>2012-09-09T06:28:08Z</time>
      </trkpt>
      <trkpt lat="43.47898" lon="1.45753">
        <ele>197</ele>
        <time>2012-09-09T06:28:28Z</time>
      </trkpt>
      <trkpt lat="43.47899" lon="1.45751">
        <ele>197</ele>
        <time>2012-09-09T06:28:32Z</time>
      </trkpt>
      <trkpt lat="43.47897" lon="1.45753">
        <ele>196</ele>
        <time>2012-09-09T06:28:36Z</time>
      </trkpt>
      <trkpt lat="43.47898" lon="1.4575">
        <ele>193</ele>
        <time>2012-09-09T06:29:00Z</time>
      </trkpt>
      <trkpt lat="43.47928" lon="1.45729">
        <ele>196</ele>
        <time>2012-09-09T06:29:04Z</time>
      </trkpt>
      <trkpt lat="43.4795" lon="1.45708">
        <ele>193</ele>
        <time>2012-09-09T06:29:08Z</time>
      </trkpt>
      <trkpt lat="43.47947" lon="1.45668">
        <ele>194</ele>
        <time>2012-09-09T06:29:12Z</time>
      </trkpt>
      <trkpt lat="43.47912" lon="1.45649">
        <ele>192</ele>
        <time>2012-09-09T06:29:16Z</time>
      </trkpt>
      <trkpt lat="43.47889" lon="1.45604">
        <ele>189</ele>
        <time>2012-09-09T06:29:20Z</time>
      </trkpt>
      <trkpt lat="43.47905" lon="1.45567">
        <ele>187</ele>
        <time>2012-09-09T06:29:24Z</time>
      </trkpt>
      <trkpt lat="43.4791" lon="1.45538">
        <ele>187</ele>
        <time>2012-09-09T06:29:28Z</time>
      </trkpt>
      <trkpt lat="43.47914" lon="1.45531">
        <ele>189</ele>
        <time>2012-09-09T06:29:32Z</time>
      </trkpt>
      <trkpt lat="43.4791" lon="1.45525">
        <ele>188</ele>
        <time>2012-09-09T06:29:36Z</time>
      </trkpt>
      <trkpt lat="43.47907" lon="1.45525">
        <ele>188</ele>
        <time>2012-09-09T06:29:40Z</time>
      </trkpt>
      <trkpt lat="43.47895" lon="1.45537">
        <ele>186</ele>
        <time>2012-09-09T06:29:44Z</time>
      </trkpt>
      <trkpt lat="43.47879" lon="1.45552">
        <ele>187</ele>
        <time>2012-09-09T06:29:48Z</time>
      </trkpt>
      <trkpt lat="43.47855" lon="1.45575">
        <ele>187</ele>
        <time>2012-09-09T06:29:52Z</time>
      </trkpt>
      <trkpt lat="43.47836" lon="1.45582">
        <ele>185</ele>
        <time>2012-09-09T06:29:56Z</time>
      </trkpt>
      <trkpt lat="43.47809" lon="1.45594">
        <ele>186</ele>
        <time>2012-09-09T06:30:00Z</time>
      </trkpt>
      <trkpt lat="43.47783" lon="1.45604">
        <ele>185</ele>
        <time>2012-09-09T06:30:04Z</time>
      </trkpt>
      <trkpt lat="43.47755" lon="1.45621">
        <ele>185</ele>
        <time>2012-09-09T06:30:08Z</time>
      </trkpt>
      <trkpt lat="43.47725" lon="1.4562">
        <ele>186</ele>
        <time>2012-09-09T06:30:12Z</time>
      </trkpt>
      <trkpt lat="43.47699" lon="1.45625">
        <ele>186</ele>
        <time>2012-09-09T06:30:16Z</time>
      </trkpt>
      <trkpt lat="43.4767" lon="1.45647">
        <ele>185</ele>
        <time>2012-09-09T06:30:20Z</time>
      </trkpt>
      <trkpt lat="43.47649" lon="1.45666">
        <ele>187</ele>
        <time>2012-09-09T06:30:24Z</time>
      </trkpt>
      <trkpt lat="43.47624" lon="1.45693">
        <ele>190</ele>
        <time>2012-09-09T06:30:28Z</time>
      </trkpt>
      <trkpt lat="43.47598" lon="1.45706">
        <ele>190</ele>
        <time>2012-09-09T06:30:32Z</time>
      </trkpt>
      <trkpt lat="43.47578" lon="1.45726">
        <ele>190</ele>
        <time>2012-09-09T06:30:36Z</time>
      </trkpt>
      <trkpt lat="43.47557" lon="1.45742">
        <ele>191</ele>
        <time>2012-09-09T06:30:40Z</time>
      </trkpt>
      <trkpt lat="43.47536" lon="1.45757">
        <ele>189</ele>
        <time>2012-09-09T06:30:44Z</time>
      </trkpt>
      <trkpt lat="43.47521" lon="1.45763">
        <ele>189</ele>
        <time>2012-09-09T06:30:48Z</time>
      </trkpt>
      <trkpt lat="43.47502" lon="1.45772">
        <ele>188</ele>
        <time>2012-09-09T06:30:52Z</time>
      </trkpt>
      <trkpt lat="43.47487" lon="1.4578">
        <ele>189</ele>
        <time>2012-09-09T06:30:56Z</time>
      </trkpt>
      <trkpt lat="43.47474" lon="1.45788">
        <ele>188</ele>
        <time>2012-09-09T06:31:00Z</time>
      </trkpt>
      <trkpt lat="43.47463" lon="1.45795">
        <ele>186</ele>
        <time>2012-09-09T06:31:04Z</time>
      </trkpt>
      <trkpt lat="43.47446" lon="1.4581">
        <ele>182</ele>
        <time>2012-09-09T06:31:08Z</time>
      </trkpt>
      <trkpt lat="43.4743" lon="1.4583">
        <ele>181</ele>
        <time>2012-09-09T06:31:12Z</time>
      </trkpt>
      <trkpt lat="43.47424" lon="1.45858">
        <ele>184</ele>
        <time>2012-09-09T06:31:16Z</time>
      </trkpt>
      <trkpt lat="43.47431" lon="1.45879">
        <ele>188</ele>
        <time>2012-09-09T06:31:20Z</time>
      </trkpt>
      <trkpt lat="43.47433" lon="1.45899">
        <ele>187</ele>
        <time>2012-09-09T06:31:24Z</time>
      </trkpt>
      <trkpt lat="43.4743" lon="1.4591">
        <ele>188</ele>
        <time>2012-09-09T06:31:28Z</time>
      </trkpt>
      <trkpt lat="43.47426" lon="1.45917">
        <ele>187</ele>
        <time>2012-09-09T06:31:32Z</time>
      </trkpt>
      <trkpt lat="43.47422" lon="1.45924">
        <ele>184</ele>
        <time>2012-09-09T06:31:36Z</time>
      </trkpt>
      <trkpt lat="43.47415" lon="1.45934">
        <ele>183</ele>
        <time>2012-09-09T06:31:40Z</time>
      </trkpt>
      <trkpt lat="43.47411" lon="1.4594">
        <ele>179</ele>
        <time>2012-09-09T06:31:44Z</time>
      </trkpt>
      <trkpt lat="43.47408" lon="1.45946">
        <ele>179</ele>
        <time>2012-09-09T06:31:48Z</time>
      </trkpt>
      <trkpt lat="43.47404" lon="1.45956">
        <ele>177</ele>
        <time>2012-09-09T06:31:52Z</time>
      </trkpt>
      <trkpt lat="43.47398" lon="1.4597">
        <ele>176</ele>
        <time>2012-09-09T06:31:56Z</time>
      </trkpt>
      <trkpt lat="43.47392" lon="1.45988">
        <ele>178</ele>
        <time>2012-09-09T06:32:00Z</time>
      </trkpt>
      <trkpt lat="43.47385" lon="1.46005">
        <ele>178</ele>
        <time>2012-09-09T06:32:04Z</time>
      </trkpt>
      <trkpt lat="43.4738" lon="1.4602">
        <ele>178</ele>
        <time>2012-09-09T06:32:08Z</time>
      </trkpt>
      <trkpt lat="43.47376" lon="1.46036">
        <ele>179</ele>
        <time>2012-09-09T06:32:12Z</time>
      </trkpt>
      <trkpt lat="43.4737" lon="1.46052">
        <ele>177</ele>
        <time>2012-09-09T06:32:16Z</time>
      </trkpt>
      <trkpt lat="43.47363" lon="1.46068">
        <ele>176</ele>
        <time>2012-09-09T06:32:20Z</time>
      </trkpt>
      <trkpt lat="43.47356" lon="1.46084">
        <ele>175</ele>
        <time>2012-09-09T06:32:24Z</time>
      </trkpt>
      <trkpt lat="43.4735" lon="1.46101">
        <ele>176</ele>
        <time>2012-09-09T06:32:28Z</time>
      </trkpt>
      <trkpt lat="43.47342" lon="1.46121">
        <ele>178</ele>
        <time>2012-09-09T06:32:32Z</time>
      </trkpt>
      <trkpt lat="43.47335" lon="1.46137">
        <ele>183</ele>
        <time>2012-09-09T06:32:36Z</time>
      </trkpt>
      <trkpt lat="43.4733" lon="1.4615">
        <ele>183</ele>
        <time>2012-09-09T06:32:40Z</time>
      </trkpt>
      <trkpt lat="43.47324" lon="1.46167">
        <ele>181</ele>
        <time>2012-09-09T06:32:44Z</time>
      </trkpt>
      <trkpt lat="43.47318" lon="1.46186">
        <ele>183</ele>
        <time>2012-09-09T06:32:48Z</time>
      </trkpt>
      <trkpt lat="43.47311" lon="1.46201">
        <ele>184</ele>
        <time>2012-09-09T06:32:52Z</time>
      </trkpt>
      <trkpt lat="43.47306" lon="1.46214">
        <ele>182</ele>
        <time>2012-09-09T06:32:56Z</time>
      </trkpt>
      <trkpt lat="43.473" lon="1.46229">
        <ele>179</ele>
        <time>2012-09-09T06:33:00Z</time>
      </trkpt>
      <trkpt lat="43.47293" lon="1.46245">
        <ele>179</ele>
        <time>2012-09-09T06:33:04Z</time>
      </trkpt>
      <trkpt lat="43.47289" lon="1.46256">
        <ele>181</ele>
        <time>2012-09-09T06:33:08Z</time>
      </trkpt>
      <trkpt lat="43.47285" lon="1.46267">
        <ele>182</ele>
        <time>2012-09-09T06:33:12Z</time>
      </trkpt>
      <trkpt lat="43.47281" lon="1.46277">
        <ele>180</ele>
        <time>2012-09-09T06:33:16Z</time>
      </trkpt>
      <trkpt lat="43.47275" lon="1.46292">
        <ele>179</ele>
        <time>2012-09-09T06:33:20Z</time>
      </trkpt>
      <trkpt lat="43.47267" lon="1.46307">
        <ele>181</ele>
        <time>2012-09-09T06:33:24Z</time>
      </trkpt>
      <trkpt lat="43.47259" lon="1.46322">
        <ele>182</ele>
        <time>2012-09-09T06:33:28Z</time>
      </trkpt>
      <trkpt lat="43.47253" lon="1.46335">
        <ele>181</ele>
        <time>2012-09-09T06:33:32Z</time>
      </trkpt>
      <trkpt lat="43.47249" lon="1.46347">
        <ele>181</ele>
        <time>2012-09-09T06:33:36Z</time>
      </trkpt>
      <trkpt lat="43.47245" lon="1.46361">
        <ele>181</ele>
        <time>2012-09-09T06:33:40Z</time>
      </trkpt>
      <trkpt lat="43.4724" lon="1.46375">
        <ele>182</ele>
        <time>2012-09-09T06:33:44Z</time>
      </trkpt>
      <trkpt lat="43.47235" lon="1.46393">
        <ele>181</ele>
        <time>2012-09-09T06:33:48Z</time>
      </trkpt>
      <trkpt lat="43.47228" lon="1.46412">
        <ele>185</ele>
        <time>2012-09-09T06:33:52Z</time>
      </trkpt>
      <trkpt lat="43.47222" lon="1.46428">
        <ele>188</ele>
        <time>2012-09-09T06:33:56Z</time>
      </trkpt>
      <trkpt lat="43.47215" lon="1.46438">
        <ele>193</ele>
        <time>2012-09-09T06:34:00Z</time>
      </trkpt>
      <trkpt lat="43.47205" lon="1.46442">
        <ele>196</ele>
        <time>2012-09-09T06:34:04Z</time>
      </trkpt>
      <trkpt lat="43.47195" lon="1.46451">
        <ele>197</ele>
        <time>2012-09-09T06:34:08Z</time>
      </trkpt>
      <trkpt lat="43.47187" lon="1.46465">
        <ele>197</ele>
        <time>2012-09-09T06:34:12Z</time>
      </trkpt>
      <trkpt lat="43.47179" lon="1.46477">
        <ele>197</ele>
        <time>2012-09-09T06:34:16Z</time>
      </trkpt>
      <trkpt lat="43.47173" lon="1.46488">
        <ele>198</ele>
        <time>2012-09-09T06:34:20Z</time>
      </trkpt>
      <trkpt lat="43.47167" lon="1.46495">
        <ele>200</ele>
        <time>2012-09-09T06:34:24Z</time>
      </trkpt>
      <trkpt lat="43.47161" lon="1.46504">
        <ele>202</ele>
        <time>2012-09-09T06:34:28Z</time>
      </trkpt>
      <trkpt lat="43.47156" lon="1.46514">
        <ele>202</ele>
        <time>2012-09-09T06:34:32Z</time>
      </trkpt>
      <trkpt lat="43.47149" lon="1.46526">
        <ele>201</ele>
        <time>2012-09-09T06:34:36Z</time>
      </trkpt>
      <trkpt lat="43.47139" lon="1.46536">
        <ele>204</ele>
        <time>2012-09-09T06:34:40Z</time>
      </trkpt>
      <trkpt lat="43.47127" lon="1.4655">
        <ele>202</ele>
        <time>2012-09-09T06:34:44Z</time>
      </trkpt>
      <trkpt lat="43.47118" lon="1.46562">
        <ele>203</ele>
        <time>2012-09-09T06:34:48Z</time>
      </trkpt>
      <trkpt lat="43.4711" lon="1.46573">
        <ele>206</ele>
        <time>2012-09-09T06:34:52Z</time>
      </trkpt>
      <trkpt lat="43.47101" lon="1.46581">
        <ele>207</ele>
        <time>2012-09-09T06:34:56Z</time>
      </trkpt>
      <trkpt lat="43.47093" lon="1.4659">
        <ele>209</ele>
        <time>2012-09-09T06:35:00Z</time>
      </trkpt>
      <trkpt lat="43.47083" lon="1.46602">
        <ele>212</ele>
        <time>2012-09-09T06:35:04Z</time>
      </trkpt>
      <trkpt lat="43.47073" lon="1.46618">
        <ele>215</ele>
        <time>2012-09-09T06:35:08Z</time>
      </trkpt>
      <trkpt lat="43.47064" lon="1.46634">
        <ele>217</ele>
        <time>2012-09-09T06:35:12Z</time>
      </trkpt>
      <trkpt lat="43.47056" lon="1.46641">
        <ele>216</ele>
        <time>2012-09-09T06:35:16Z</time>
      </trkpt>
      <trkpt lat="43.47049" lon="1.4665">
        <ele>221</ele>
        <time>2012-09-09T06:35:20Z</time>
      </trkpt>
      <trkpt lat="43.47044" lon="1.4666">
        <ele>226</ele>
        <time>2012-09-09T06:35:24Z</time>
      </trkpt>
      <trkpt lat="43.47036" lon="1.4667">
        <ele>228</ele>
        <time>2012-09-09T06:35:28Z</time>
      </trkpt>
      <trkpt lat="43.47027" lon="1.46682">
        <ele>232</ele>
        <time>2012-09-09T06:35:32Z</time>
      </trkpt>
      <trkpt lat="43.47021" lon="1.46691">
        <ele>232</ele>
        <time>2012-09-09T06:35:36Z</time>
      </trkpt>
      <trkpt lat="43.47013" lon="1.46703">
        <ele>235</ele>
        <time>2012-09-09T06:35:40Z</time>
      </trkpt>
      <trkpt lat="43.47006" lon="1.46717">
        <ele>235</ele>
        <time>2012-09-09T06:35:44Z</time>
      </trkpt>
      <trkpt lat="43.46999" lon="1.46727">
        <ele>239</ele>
        <time>2012-09-09T06:35:48Z</time>
      </trkpt>
      <trkpt lat="43.46993" lon="1.46739">
        <ele>242</ele>
        <time>2012-09-09T06:35:52Z</time>
      </trkpt>
      <trkpt lat="43.46985" lon="1.46751">
        <ele>242</ele>
        <time>2012-09-09T06:35:56Z</time>
      </trkpt>
      <trkpt lat="43.46978" lon="1.46758">
        <ele>244</ele>
        <time>2012-09-09T06:36:00Z</time>
      </trkpt>
      <trkpt lat="43.46971" lon="1.46762">
        <ele>244</ele>
        <time>2012-09-09T06:36:04Z</time>
      </trkpt>
      <trkpt lat="43.46964" lon="1.46768">
        <ele>245</ele>
        <time>2012-09-09T06:36:08Z</time>
      </trkpt>
      <trkpt lat="43.46956" lon="1.46778">
        <ele>246</ele>
        <time>2012-09-09T06:36:12Z</time>
      </trkpt>
      <trkpt lat="43.46948" lon="1.4679">
        <ele>246</ele>
        <time>2012-09-09T06:36:16Z</time>
      </trkpt>
      <trkpt lat="43.4694" lon="1.46801">
        <ele>250</ele>
        <time>2012-09-09T06:36:20Z</time>
      </trkpt>
      <trkpt lat="43.46933" lon="1.46806">
        <ele>250</ele>
        <time>2012-09-09T06:36:24Z</time>
      </trkpt>
      <trkpt lat="43.46926" lon="1.46813">
        <ele>251</ele>
        <time>2012-09-09T06:36:28Z</time>
      </trkpt>
      <trkpt lat="43.46919" lon="1.46815">
        <ele>249</ele>
        <time>2012-09-09T06:36:32Z</time>
      </trkpt>
      <trkpt lat="43.46911" lon="1.4682">
        <ele>252</ele>
        <time>2012-09-09T06:36:36Z</time>
      </trkpt>
      <trkpt lat="43.46904" lon="1.4683">
        <ele>254</ele>
        <time>2012-09-09T06:36:40Z</time>
      </trkpt>
      <trkpt lat="43.46895" lon="1.46841">
        <ele>257</ele>
        <time>2012-09-09T06:36:44Z</time>
      </trkpt>
      <trkpt lat="43.46886" lon="1.46851">
        <ele>259</ele>
        <time>2012-09-09T06:36:48Z</time>
      </trkpt>
      <trkpt lat="43.46878" lon="1.46855">
        <ele>260</ele>
        <time>2012-09-09T06:36:52Z</time>
      </trkpt>
      <trkpt lat="43.46872" lon="1.46852">
        <ele>258</ele>
        <time>2012-09-09T06:36:56Z</time>
      </trkpt>
      <trkpt lat="43.46874" lon="1.4685">
        <ele>256</ele>
        <time>2012-09-09T06:37:00Z</time>
      </trkpt>
      <trkpt lat="43.46877" lon="1.46851">
        <ele>258</ele>
        <time>2012-09-09T06:37:04Z</time>
      </trkpt>
      <trkpt lat="43.46883" lon="1.46851">
        <ele>264</ele>
        <time>2012-09-09T06:37:52Z</time>
      </trkpt>
      <trkpt lat="43.46882" lon="1.46852">
        <ele>262</ele>
        <time>2012-09-09T06:37:56Z</time>
      </trkpt>
      <trkpt lat="43.4688" lon="1.4685">
        <ele>262</ele>
        <time>2012-09-09T06:38:00Z</time>
      </trkpt>
      <trkpt lat="43.46882" lon="1.46853">
        <ele>258</ele>
        <time>2012-09-09T06:38:20Z</time>
      </trkpt>
      <trkpt lat="43.4688" lon="1.46853">
        <ele>253</ele>
        <time>2012-09-09T06:39:42Z</time>
      </trkpt>
      <trkpt lat="43.46881" lon="1.46852">
        <ele>253</ele>
        <time>2012-09-09T06:39:54Z</time>
      </trkpt>
      <trkpt lat="43.46882" lon="1.46855">
        <ele>254</ele>
        <time>2012-09-09T06:40:30Z</time>
      </trkpt>
      <trkpt lat="43.46877" lon="1.46857">
        <ele>253</ele>
        <time>2012-09-09T06:41:22Z</time>
      </trkpt>
      <trkpt lat="43.46876" lon="1.46857">
        <ele>253</ele>
        <time>2012-09-09T06:41:26Z</time>
      </trkpt>
      <trkpt lat="43.46874" lon="1.46858">
        <ele>253</ele>
        <time>2012-09-09T06:41:30Z</time>
      </trkpt>
      <trkpt lat="43.46873" lon="1.46859">
        <ele>255</ele>
        <time>2012-09-09T06:41:34Z</time>
      </trkpt>
      <trkpt lat="43.46873" lon="1.46858">
        <ele>257</ele>
        <time>2012-09-09T06:41:38Z</time>
      </trkpt>
      <trkpt lat="43.46874" lon="1.46858">
        <ele>261</ele>
        <time>2012-09-09T06:41:54Z</time>
      </trkpt>
      <trkpt lat="43.46867" lon="1.46858">
        <ele>262</ele>
        <time>2012-09-09T06:42:58Z</time>
      </trkpt>
      <trkpt lat="43.46866" lon="1.46861">
        <ele>261</ele>
        <time>2012-09-09T06:43:02Z</time>
      </trkpt>
      <trkpt lat="43.46863" lon="1.46866">
        <ele>262</ele>
        <time>2012-09-09T06:43:06Z</time>
      </trkpt>
      <trkpt lat="43.46855" lon="1.46873">
        <ele>263</ele>
        <time>2012-09-09T06:43:10Z</time>
      </trkpt>
      <trkpt lat="43.46846" lon="1.46879">
        <ele>263</ele>
        <time>2012-09-09T06:43:14Z</time>
      </trkpt>
      <trkpt lat="43.46835" lon="1.46887">
        <ele>263</ele>
        <time>2012-09-09T06:43:18Z</time>
      </trkpt>
      <trkpt lat="43.46824" lon="1.46893">
        <ele>264</ele>
        <time>2012-09-09T06:43:22Z</time>
      </trkpt>
      <trkpt lat="43.46813" lon="1.46897">
        <ele>262</ele>
        <time>2012-09-09T06:43:26Z</time>
      </trkpt>
      <trkpt lat="43.468" lon="1.469">
        <ele>260</ele>
        <time>2012-09-09T06:43:30Z</time>
      </trkpt>
      <trkpt lat="43.46787" lon="1.46904">
        <ele>259</ele>
        <time>2012-09-09T06:43:34Z</time>
      </trkpt>
      <trkpt lat="43.46772" lon="1.46905">
        <ele>260</ele>
        <time>2012-09-09T06:43:38Z</time>
      </trkpt>
      <trkpt lat="43.46761" lon="1.46911">
        <ele>258</ele>
        <time>2012-09-09T06:43:42Z</time>
      </trkpt>
      <trkpt lat="43.46748" lon="1.46919">
        <ele>258</ele>
        <time>2012-09-09T06:43:46Z</time>
      </trkpt>
      <trkpt lat="43.46735" lon="1.46926">
        <ele>257</ele>
        <time>2012-09-09T06:43:50Z</time>
      </trkpt>
      <trkpt lat="43.46721" lon="1.46932">
        <ele>260</ele>
        <time>2012-09-09T06:43:54Z</time>
      </trkpt>
      <trkpt lat="43.46707" lon="1.46937">
        <ele>261</ele>
        <time>2012-09-09T06:43:58Z</time>
      </trkpt>
      <trkpt lat="43.46695" lon="1.46942">
        <ele>262</ele>
        <time>2012-09-09T06:44:02Z</time>
      </trkpt>
      <trkpt lat="43.46683" lon="1.46948">
        <ele>264</ele>
        <time>2012-09-09T06:44:06Z</time>
      </trkpt>
      <trkpt lat="43.4667" lon="1.46956">
        <ele>265</ele>
        <time>2012-09-09T06:44:10Z</time>
      </trkpt>
      <trkpt lat="43.46656" lon="1.46965">
        <ele>264</ele>
        <time>2012-09-09T06:44:14Z</time>
      </trkpt>
      <trkpt lat="43.46643" lon="1.46972">
        <ele>265</ele>
        <time>2012-09-09T06:44:18Z</time>
      </trkpt>
      <trkpt lat="43.46627" lon="1.4698">
        <ele>265</ele>
        <time>2012-09-09T06:44:22Z</time>
      </trkpt>
      <trkpt lat="43.46604" lon="1.4699">
        <ele>265</ele>
        <time>2012-09-09T06:44:26Z</time>
      </trkpt>
      <trkpt lat="43.46576" lon="1.46999">
        <ele>264</ele>
        <time>2012-09-09T06:44:30Z</time>
      </trkpt>
      <trkpt lat="43.4655" lon="1.47012">
        <ele>263</ele>
        <time>2012-09-09T06:44:34Z</time>
      </trkpt>
      <trkpt lat="43.46528" lon="1.47018">
        <ele>263</ele>
        <time>2012-09-09T06:44:38Z</time>
      </trkpt>
      <trkpt lat="43.46508" lon="1.47022">
        <ele>263</ele>
        <time>2012-09-09T06:44:42Z</time>
      </trkpt>
      <trkpt lat="43.46489" lon="1.47029">
        <ele>264</ele>
        <time>2012-09-09T06:44:46Z</time>
      </trkpt>
      <trkpt lat="43.46467" lon="1.47036">
        <ele>264</ele>
        <time>2012-09-09T06:44:50Z</time>
      </trkpt>
      <trkpt lat="43.46449" lon="1.47044">
        <ele>264</ele>
        <time>2012-09-09T06:44:54Z</time>
      </trkpt>
      <trkpt lat="43.46433" lon="1.4705">
        <ele>263</ele>
        <time>2012-09-09T06:44:58Z</time>
      </trkpt>
      <trkpt lat="43.46421" lon="1.47055">
        <ele>264</ele>
        <time>2012-09-09T06:45:02Z</time>
      </trkpt>
      <trkpt lat="43.46413" lon="1.47067">
        <ele>263</ele>
        <time>2012-09-09T06:45:06Z</time>
      </trkpt>
      <trkpt lat="43.46417" lon="1.47082">
        <ele>262</ele>
        <time>2012-09-09T06:45:10Z</time>
      </trkpt>
      <trkpt lat="43.46425" lon="1.47094">
        <ele>258</ele>
        <time>2012-09-09T06:45:14Z</time>
      </trkpt>
      <trkpt lat="43.46433" lon="1.47111">
        <ele>258</ele>
        <time>2012-09-09T06:45:18Z</time>
      </trkpt>
      <trkpt lat="43.46449" lon="1.47138">
        <ele>257</ele>
        <time>2012-09-09T06:45:22Z</time>
      </trkpt>
      <trkpt lat="43.46463" lon="1.47163">
        <ele>256</ele>
        <time>2012-09-09T06:45:26Z</time>
      </trkpt>
      <trkpt lat="43.46475" lon="1.47189">
        <ele>257</ele>
        <time>2012-09-09T06:45:30Z</time>
      </trkpt>
      <trkpt lat="43.46484" lon="1.47206">
        <ele>256</ele>
        <time>2012-09-09T06:45:34Z</time>
      </trkpt>
      <trkpt lat="43.46496" lon="1.47225">
        <ele>257</ele>
        <time>2012-09-09T06:45:38Z</time>
      </trkpt>
      <trkpt lat="43.46505" lon="1.47241">
        <ele>257</ele>
        <time>2012-09-09T06:45:42Z</time>
      </trkpt>
      <trkpt lat="43.46515" lon="1.47255">
        <ele>257</ele>
        <time>2012-09-09T06:45:46Z</time>
      </trkpt>
      <trkpt lat="43.46526" lon="1.47269">
        <ele>257</ele>
        <time>2012-09-09T06:45:50Z</time>
      </trkpt>
      <trkpt lat="43.46536" lon="1.47283">
        <ele>256</ele>
        <time>2012-09-09T06:45:54Z</time>
      </trkpt>
      <trkpt lat="43.46545" lon="1.47294">
        <ele>257</ele>
        <time>2012-09-09T06:45:58Z</time>
      </trkpt>
      <trkpt lat="43.46563" lon="1.47315">
        <ele>257</ele>
        <time>2012-09-09T06:46:02Z</time>
      </trkpt>
      <trkpt lat="43.46589" lon="1.4735">
        <ele>255</ele>
        <time>2012-09-09T06:46:06Z</time>
      </trkpt>
      <trkpt lat="43.46616" lon="1.47389">
        <ele>252</ele>
        <time>2012-09-09T06:46:10Z</time>
      </trkpt>
      <trkpt lat="43.46646" lon="1.47432">
        <ele>252</ele>
        <time>2012-09-09T06:46:14Z</time>
      </trkpt>
      <trkpt lat="43.46678" lon="1.47466">
        <ele>250</ele>
        <time>2012-09-09T06:46:18Z</time>
      </trkpt>
      <trkpt lat="43.46701" lon="1.47496">
        <ele>249</ele>
        <time>2012-09-09T06:46:22Z</time>
      </trkpt>
      <trkpt lat="43.46725" lon="1.47531">
        <ele>247</ele>
        <time>2012-09-09T06:46:26Z</time>
      </trkpt>
      <trkpt lat="43.46755" lon="1.47574">
        <ele>244</ele>
        <time>2012-09-09T06:46:30Z</time>
      </trkpt>
      <trkpt lat="43.46786" lon="1.47615">
        <ele>241</ele>
        <time>2012-09-09T06:46:34Z</time>
      </trkpt>
      <trkpt lat="43.46814" lon="1.47646">
        <ele>240</ele>
        <time>2012-09-09T06:46:38Z</time>
      </trkpt>
      <trkpt lat="43.46843" lon="1.47675">
        <ele>240</ele>
        <time>2012-09-09T06:46:42Z</time>
      </trkpt>
      <trkpt lat="43.46861" lon="1.47694">
        <ele>239</ele>
        <time>2012-09-09T06:46:46Z</time>
      </trkpt>
      <trkpt lat="43.4687" lon="1.47709">
        <ele>237</ele>
        <time>2012-09-09T06:46:50Z</time>
      </trkpt>
      <trkpt lat="43.4688" lon="1.47722">
        <ele>237</ele>
        <time>2012-09-09T06:46:54Z</time>
      </trkpt>
      <trkpt lat="43.46891" lon="1.47734">
        <ele>235</ele>
        <time>2012-09-09T06:46:58Z</time>
      </trkpt>
      <trkpt lat="43.46893" lon="1.4774">
        <ele>237</ele>
        <time>2012-09-09T06:47:02Z</time>
      </trkpt>
      <trkpt lat="43.46892" lon="1.47744">
        <ele>236</ele>
        <time>2012-09-09T06:47:06Z</time>
      </trkpt>
      <trkpt lat="43.46893" lon="1.47745">
        <ele>235</ele>
        <time>2012-09-09T06:47:10Z</time>
      </trkpt>
      <trkpt lat="43.46896" lon="1.47748">
        <ele>234</ele>
        <time>2012-09-09T06:47:14Z</time>
      </trkpt>
      <trkpt lat="43.46896" lon="1.47747">
        <ele>234</ele>
        <time>2012-09-09T06:47:18Z</time>
      </trkpt>
      <trkpt lat="43.46892" lon="1.47747">
        <ele>229</ele>
        <time>2012-09-09T06:47:22Z</time>
      </trkpt>
      <trkpt lat="43.46893" lon="1.47746">
        <ele>230</ele>
        <time>2012-09-09T06:47:26Z</time>
      </trkpt>
      <trkpt lat="43.46898" lon="1.47747">
        <ele>228</ele>
        <time>2012-09-09T06:47:30Z</time>
      </trkpt>
      <trkpt lat="43.469" lon="1.47748">
        <ele>226</ele>
        <time>2012-09-09T06:47:34Z</time>
      </trkpt>
      <trkpt lat="43.46897" lon="1.47745">
        <ele>228</ele>
        <time>2012-09-09T06:48:10Z</time>
      </trkpt>
      <trkpt lat="43.46897" lon="1.47744">
        <ele>231</ele>
        <time>2012-09-09T06:48:14Z</time>
      </trkpt>
      <trkpt lat="43.46897" lon="1.47746">
        <ele>234</ele>
        <time>2012-09-09T06:48:46Z</time>
      </trkpt>
      <trkpt lat="43.46896" lon="1.47747">
        <ele>236</ele>
        <time>2012-09-09T06:48:50Z</time>
      </trkpt>
      <trkpt lat="43.46894" lon="1.47741">
        <ele>239</ele>
        <time>2012-09-09T06:49:02Z</time>
      </trkpt>
      <trkpt lat="43.46893" lon="1.47738">
        <ele>237</ele>
        <time>2012-09-09T06:49:06Z</time>
      </trkpt>
      <trkpt lat="43.46893" lon="1.47736">
        <ele>236</ele>
        <time>2012-09-09T06:49:10Z</time>
      </trkpt>
      <trkpt lat="43.46892" lon="1.47741">
        <ele>238</ele>
        <time>2012-09-09T06:49:14Z</time>
      </trkpt>
      <trkpt lat="43.46891" lon="1.47743">
        <ele>240</ele>
        <time>2012-09-09T06:49:22Z</time>
      </trkpt>
      <trkpt lat="43.46889" lon="1.47746">
        <ele>239</ele>
        <time>2012-09-09T06:49:26Z</time>
      </trkpt>
      <trkpt lat="43.46888" lon="1.4775">
        <ele>239</ele>
        <time>2012-09-09T06:49:30Z</time>
      </trkpt>
      <trkpt lat="43.46886" lon="1.47755">
        <ele>240</ele>
        <time>2012-09-09T06:49:34Z</time>
      </trkpt>
      <trkpt lat="43.46879" lon="1.47761">
        <ele>244</ele>
        <time>2012-09-09T06:49:38Z</time>
      </trkpt>
      <trkpt lat="43.46873" lon="1.4777">
        <ele>245</ele>
        <time>2012-09-09T06:49:42Z</time>
      </trkpt>
      <trkpt lat="43.46867" lon="1.47778">
        <ele>245</ele>
        <time>2012-09-09T06:49:46Z</time>
      </trkpt>
      <trkpt lat="43.46862" lon="1.47785">
        <ele>245</ele>
        <time>2012-09-09T06:49:50Z</time>
      </trkpt>
      <trkpt lat="43.46854" lon="1.4779">
        <ele>246</ele>
        <time>2012-09-09T06:49:54Z</time>
      </trkpt>
      <trkpt lat="43.46844" lon="1.47795">
        <ele>246</ele>
        <time>2012-09-09T06:49:58Z</time>
      </trkpt>
      <trkpt lat="43.46834" lon="1.47804">
        <ele>246</ele>
        <time>2012-09-09T06:50:02Z</time>
      </trkpt>
      <trkpt lat="43.46827" lon="1.47813">
        <ele>246</ele>
        <time>2012-09-09T06:50:06Z</time>
      </trkpt>
      <trkpt lat="43.46821" lon="1.47821">
        <ele>246</ele>
        <time>2012-09-09T06:50:10Z</time>
      </trkpt>
      <trkpt lat="43.46814" lon="1.47827">
        <ele>246</ele>
        <time>2012-09-09T06:50:14Z</time>
      </trkpt>
      <trkpt lat="43.46808" lon="1.47836">
        <ele>247</ele>
        <time>2012-09-09T06:50:18Z</time>
      </trkpt>
      <trkpt lat="43.46799" lon="1.47845">
        <ele>248</ele>
        <time>2012-09-09T06:50:22Z</time>
      </trkpt>
      <trkpt lat="43.46791" lon="1.47854">
        <ele>248</ele>
        <time>2012-09-09T06:50:26Z</time>
      </trkpt>
      <trkpt lat="43.46783" lon="1.47864">
        <ele>248</ele>
        <time>2012-09-09T06:50:30Z</time>
      </trkpt>
      <trkpt lat="43.46775" lon="1.47875">
        <ele>248</ele>
        <time>2012-09-09T06:50:34Z</time>
      </trkpt>
      <trkpt lat="43.46767" lon="1.47886">
        <ele>249</ele>
        <time>2012-09-09T06:50:38Z</time>
      </trkpt>
      <trkpt lat="43.46759" lon="1.47898">
        <ele>250</ele>
        <time>2012-09-09T06:50:42Z</time>
      </trkpt>
      <trkpt lat="43.46754" lon="1.47909">
        <ele>250</ele>
        <time>2012-09-09T06:50:46Z</time>
      </trkpt>
      <trkpt lat="43.46754" lon="1.47922">
        <ele>250</ele>
        <time>2012-09-09T06:50:50Z</time>
      </trkpt>
      <trkpt lat="43.46779" lon="1.47942">
        <ele>244</ele>
        <time>2012-09-09T06:50:54Z</time>
      </trkpt>
      <trkpt lat="43.46795" lon="1.47964">
        <ele>243</ele>
        <time>2012-09-09T06:50:58Z</time>
      </trkpt>
      <trkpt lat="43.46804" lon="1.47994">
        <ele>241</ele>
        <time>2012-09-09T06:51:02Z</time>
      </trkpt>
      <trkpt lat="43.46813" lon="1.48032">
        <ele>240</ele>
        <time>2012-09-09T06:51:06Z</time>
      </trkpt>
      <trkpt lat="43.46819" lon="1.48057">
        <ele>237</ele>
        <time>2012-09-09T06:51:10Z</time>
      </trkpt>
      <trkpt lat="43.46836" lon="1.48063">
        <ele>234</ele>
        <time>2012-09-09T06:51:14Z</time>
      </trkpt>
      <trkpt lat="43.46851" lon="1.48053">
        <ele>231</ele>
        <time>2012-09-09T06:51:18Z</time>
      </trkpt>
      <trkpt lat="43.46866" lon="1.48054">
        <ele>225</ele>
        <time>2012-09-09T06:51:22Z</time>
      </trkpt>
      <trkpt lat="43.4689" lon="1.48059">
        <ele>223</ele>
        <time>2012-09-09T06:51:26Z</time>
      </trkpt>
      <trkpt lat="43.46904" lon="1.48068">
        <ele>220</ele>
        <time>2012-09-09T06:51:30Z</time>
      </trkpt>
      <trkpt lat="43.46907" lon="1.48087">
        <ele>216</ele>
        <time>2012-09-09T06:51:34Z</time>
      </trkpt>
      <trkpt lat="43.46904" lon="1.48141">
        <ele>216</ele>
        <time>2012-09-09T06:51:38Z</time>
      </trkpt>
      <trkpt lat="43.46916" lon="1.48174">
        <ele>209</ele>
        <time>2012-09-09T06:51:42Z</time>
      </trkpt>
      <trkpt lat="43.4692" lon="1.48189">
        <ele>205</ele>
        <time>2012-09-09T06:51:46Z</time>
      </trkpt>
      <trkpt lat="43.46921" lon="1.48196">
        <ele>201</ele>
        <time>2012-09-09T06:51:50Z</time>
      </trkpt>
      <trkpt lat="43.46923" lon="1.48202">
        <ele>201</ele>
        <time>2012-09-09T06:51:54Z</time>
      </trkpt>
      <trkpt lat="43.46922" lon="1.48202">
        <ele>199</ele>
        <time>2012-09-09T06:51:58Z</time>
      </trkpt>
      <trkpt lat="43.4692" lon="1.48199">
        <ele>198</ele>
        <time>2012-09-09T06:52:02Z</time>
      </trkpt>
      <trkpt lat="43.46919" lon="1.48189">
        <ele>198</ele>
        <time>2012-09-09T06:52:06Z</time>
      </trkpt>
      <trkpt lat="43.46918" lon="1.48185">
        <ele>198</ele>
        <time>2012-09-09T06:52:10Z</time>
      </trkpt>
      <trkpt lat="43.46921" lon="1.48184">
        <ele>197</ele>
        <time>2012-09-09T06:52:14Z</time>
      </trkpt>
      <trkpt lat="43.46922" lon="1.48188">
        <ele>198</ele>
        <time>2012-09-09T06:52:22Z</time>
      </trkpt>
      <trkpt lat="43.46923" lon="1.48188">
        <ele>195</ele>
        <time>2012-09-09T06:52:26Z</time>
      </trkpt>
      <trkpt lat="43.4692" lon="1.48186">
        <ele>194</ele>
        <time>2012-09-09T06:52:30Z</time>
      </trkpt>
      <trkpt lat="43.46915" lon="1.48191">
        <ele>191</ele>
        <time>2012-09-09T06:52:34Z</time>
      </trkpt>
      <trkpt lat="43.46906" lon="1.48199">
        <ele>190</ele>
        <time>2012-09-09T06:52:38Z</time>
      </trkpt>
      <trkpt lat="43.4689" lon="1.4821">
        <ele>190</ele>
        <time>2012-09-09T06:52:42Z</time>
      </trkpt>
      <trkpt lat="43.4688" lon="1.48218">
        <ele>190</ele>
        <time>2012-09-09T06:52:46Z</time>
      </trkpt>
      <trkpt lat="43.4687" lon="1.48225">
        <ele>191</ele>
        <time>2012-09-09T06:52:50Z</time>
      </trkpt>
      <trkpt lat="43.46859" lon="1.48234">
        <ele>192</ele>
        <time>2012-09-09T06:52:54Z</time>
      </trkpt>
      <trkpt lat="43.46846" lon="1.48244">
        <ele>194</ele>
        <time>2012-09-09T06:52:58Z</time>
      </trkpt>
      <trkpt lat="43.46834" lon="1.48253">
        <ele>193</ele>
        <time>2012-09-09T06:53:02Z</time>
      </trkpt>
      <trkpt lat="43.46822" lon="1.48262">
        <ele>193</ele>
        <time>2012-09-09T06:53:06Z</time>
      </trkpt>
      <trkpt lat="43.46809" lon="1.48272">
        <ele>192</ele>
        <time>2012-09-09T06:53:10Z</time>
      </trkpt>
      <trkpt lat="43.46796" lon="1.48286">
        <ele>192</ele>
        <time>2012-09-09T06:53:14Z</time>
      </trkpt>
      <trkpt lat="43.46782" lon="1.48299">
        <ele>191</ele>
        <time>2012-09-09T06:53:18Z</time>
      </trkpt>
      <trkpt lat="43.46763" lon="1.48313">
        <ele>190</ele>
        <time>2012-09-09T06:53:22Z</time>
      </trkpt>
      <trkpt lat="43.46742" lon="1.48322">
        <ele>190</ele>
        <time>2012-09-09T06:53:26Z</time>
      </trkpt>
      <trkpt lat="43.46724" lon="1.48328">
        <ele>190</ele>
        <time>2012-09-09T06:53:30Z</time>
      </trkpt>
      <trkpt lat="43.46707" lon="1.48337">
        <ele>191</ele>
        <time>2012-09-09T06:53:34Z</time>
      </trkpt>
      <trkpt lat="43.4669" lon="1.48341">
        <ele>191</ele>
        <time>2012-09-09T06:53:38Z</time>
      </trkpt>
      <trkpt lat="43.46671" lon="1.48346">
        <ele>191</ele>
        <time>2012-09-09T06:53:42Z</time>
      </trkpt>
      <trkpt lat="43.46655" lon="1.48355">
        <ele>194</ele>
        <time>2012-09-09T06:53:46Z</time>
      </trkpt>
      <trkpt lat="43.46635" lon="1.48369">
        <ele>195</ele>
        <time>2012-09-09T06:53:50Z</time>
      </trkpt>
      <trkpt lat="43.46616" lon="1.48383">
        <ele>196</ele>
        <time>2012-09-09T06:53:54Z</time>
      </trkpt>
      <trkpt lat="43.46595" lon="1.48395">
        <ele>196</ele>
        <time>2012-09-09T06:53:58Z</time>
      </trkpt>
      <trkpt lat="43.46582" lon="1.4841">
        <ele>195</ele>
        <time>2012-09-09T06:54:02Z</time>
      </trkpt>
      <trkpt lat="43.46565" lon="1.48424">
        <ele>197</ele>
        <time>2012-09-09T06:54:06Z</time>
      </trkpt>
      <trkpt lat="43.46551" lon="1.48439">
        <ele>199</ele>
        <time>2012-09-09T06:54:10Z</time>
      </trkpt>
      <trkpt lat="43.46537" lon="1.48455">
        <ele>199</ele>
        <time>2012-09-09T06:54:14Z</time>
      </trkpt>
      <trkpt lat="43.4652" lon="1.48473">
        <ele>200</ele>
        <time>2012-09-09T06:54:18Z</time>
      </trkpt>
      <trkpt lat="43.46503" lon="1.48487">
        <ele>200</ele>
        <time>2012-09-09T06:54:22Z</time>
      </trkpt>
      <trkpt lat="43.46488" lon="1.48488">
        <ele>201</ele>
        <time>2012-09-09T06:54:26Z</time>
      </trkpt>
      <trkpt lat="43.46473" lon="1.48489">
        <ele>201</ele>
        <time>2012-09-09T06:54:30Z</time>
      </trkpt>
      <trkpt lat="43.4646" lon="1.48489">
        <ele>201</ele>
        <time>2012-09-09T06:54:34Z</time>
      </trkpt>
      <trkpt lat="43.4645" lon="1.48489">
        <ele>201</ele>
        <time>2012-09-09T06:54:38Z</time>
      </trkpt>
      <trkpt lat="43.46439" lon="1.48488">
        <ele>202</ele>
        <time>2012-09-09T06:54:42Z</time>
      </trkpt>
      <trkpt lat="43.46428" lon="1.48486">
        <ele>204</ele>
        <time>2012-09-09T06:54:46Z</time>
      </trkpt>
      <trkpt lat="43.4642" lon="1.48481">
        <ele>206</ele>
        <time>2012-09-09T06:54:50Z</time>
      </trkpt>
      <trkpt lat="43.46411" lon="1.48471">
        <ele>207</ele>
        <time>2012-09-09T06:54:54Z</time>
      </trkpt>
      <trkpt lat="43.46404" lon="1.48461">
        <ele>209</ele>
        <time>2012-09-09T06:54:58Z</time>
      </trkpt>
      <trkpt lat="43.46397" lon="1.48452">
        <ele>211</ele>
        <time>2012-09-09T06:55:02Z</time>
      </trkpt>
      <trkpt lat="43.46389" lon="1.48444">
        <ele>212</ele>
        <time>2012-09-09T06:55:06Z</time>
      </trkpt>
      <trkpt lat="43.46381" lon="1.48436">
        <ele>211</ele>
        <time>2012-09-09T06:55:10Z</time>
      </trkpt>
      <trkpt lat="43.4637" lon="1.48431">
        <ele>211</ele>
        <time>2012-09-09T06:55:14Z</time>
      </trkpt>
      <trkpt lat="43.46361" lon="1.48427">
        <ele>211</ele>
        <time>2012-09-09T06:55:18Z</time>
      </trkpt>
      <trkpt lat="43.46351" lon="1.48422">
        <ele>212</ele>
        <time>2012-09-09T06:55:22Z</time>
      </trkpt>
      <trkpt lat="43.46341" lon="1.48418">
        <ele>213</ele>
        <time>2012-09-09T06:55:26Z</time>
      </trkpt>
      <trkpt lat="43.46333" lon="1.48416">
        <ele>212</ele>
        <time>2012-09-09T06:55:30Z</time>
      </trkpt>
      <trkpt lat="43.46326" lon="1.48414">
        <ele>210</ele>
        <time>2012-09-09T06:55:34Z</time>
      </trkpt>
      <trkpt lat="43.4632" lon="1.48414">
        <ele>210</ele>
        <time>2012-09-09T06:55:38Z</time>
      </trkpt>
      <trkpt lat="43.46315" lon="1.48413">
        <ele>210</ele>
        <time>2012-09-09T06:55:42Z</time>
      </trkpt>
      <trkpt lat="43.46308" lon="1.48411">
        <ele>211</ele>
        <time>2012-09-09T06:55:46Z</time>
      </trkpt>
      <trkpt lat="43.46301" lon="1.48407">
        <ele>211</ele>
        <time>2012-09-09T06:55:50Z</time>
      </trkpt>
      <trkpt lat="43.46296" lon="1.48403">
        <ele>213</ele>
        <time>2012-09-09T06:55:54Z</time>
      </trkpt>
      <trkpt lat="43.46289" lon="1.48402">
        <ele>216</ele>
        <time>2012-09-09T06:55:58Z</time>
      </trkpt>
      <trkpt lat="43.46281" lon="1.48401">
        <ele>216</ele>
        <time>2012-09-09T06:56:02Z</time>
      </trkpt>
      <trkpt lat="43.46274" lon="1.484">
        <ele>217</ele>
        <time>2012-09-09T06:56:06Z</time>
      </trkpt>
      <trkpt lat="43.46267" lon="1.48397">
        <ele>217</ele>
        <time>2012-09-09T06:56:10Z</time>
      </trkpt>
      <trkpt lat="43.46261" lon="1.48394">
        <ele>216</ele>
        <time>2012-09-09T06:56:14Z</time>
      </trkpt>
      <trkpt lat="43.46252" lon="1.4839">
        <ele>218</ele>
        <time>2012-09-09T06:56:18Z</time>
      </trkpt>
      <trkpt lat="43.46244" lon="1.48387">
        <ele>219</ele>
        <time>2012-09-09T06:56:22Z</time>
      </trkpt>
      <trkpt lat="43.46235" lon="1.48384">
        <ele>221</ele>
        <time>2012-09-09T06:56:26Z</time>
      </trkpt>
      <trkpt lat="43.46226" lon="1.48383">
        <ele>219</ele>
        <time>2012-09-09T06:56:30Z</time>
      </trkpt>
      <trkpt lat="43.46217" lon="1.4839">
        <ele>218</ele>
        <time>2012-09-09T06:56:34Z</time>
      </trkpt>
      <trkpt lat="43.46212" lon="1.48401">
        <ele>219</ele>
        <time>2012-09-09T06:56:38Z</time>
      </trkpt>
      <trkpt lat="43.46207" lon="1.48411">
        <ele>219</ele>
        <time>2012-09-09T06:56:42Z</time>
      </trkpt>
      <trkpt lat="43.46201" lon="1.48424">
        <ele>220</ele>
        <time>2012-09-09T06:56:46Z</time>
      </trkpt>
      <trkpt lat="43.46193" lon="1.48437">
        <ele>220</ele>
        <time>2012-09-09T06:56:50Z</time>
      </trkpt>
      <trkpt lat="43.46185" lon="1.4845">
        <ele>219</ele>
        <time>2012-09-09T06:56:54Z</time>
      </trkpt>
      <trkpt lat="43.46179" lon="1.48461">
        <ele>219</ele>
        <time>2012-09-09T06:56:58Z</time>
      </trkpt>
      <trkpt lat="43.46172" lon="1.48472">
        <ele>220</ele>
        <time>2012-09-09T06:57:02Z</time>
      </trkpt>
      <trkpt lat="43.46166" lon="1.48484">
        <ele>221</ele>
        <time>2012-09-09T06:57:06Z</time>
      </trkpt>
      <trkpt lat="43.4616" lon="1.48493">
        <ele>224</ele>
        <time>2012-09-09T06:57:10Z</time>
      </trkpt>
      <trkpt lat="43.46154" lon="1.48502">
        <ele>224</ele>
        <time>2012-09-09T06:57:14Z</time>
      </trkpt>
      <trkpt lat="43.46148" lon="1.48513">
        <ele>225</ele>
        <time>2012-09-09T06:57:18Z</time>
      </trkpt>
      <trkpt lat="43.46144" lon="1.48522">
        <ele>225</ele>
        <time>2012-09-09T06:57:22Z</time>
      </trkpt>
      <trkpt lat="43.46138" lon="1.48533">
        <ele>225</ele>
        <time>2012-09-09T06:57:26Z</time>
      </trkpt>
      <trkpt lat="43.46132" lon="1.48543">
        <ele>228</ele>
        <time>2012-09-09T06:57:30Z</time>
      </trkpt>
      <trkpt lat="43.46125" lon="1.48552">
        <ele>229</ele>
        <time>2012-09-09T06:57:34Z</time>
      </trkpt>
      <trkpt lat="43.46119" lon="1.48563">
        <ele>229</ele>
        <time>2012-09-09T06:57:38Z</time>
      </trkpt>
      <trkpt lat="43.46113" lon="1.48572">
        <ele>230</ele>
        <time>2012-09-09T06:57:42Z</time>
      </trkpt>
      <trkpt lat="43.46108" lon="1.4858">
        <ele>232</ele>
        <time>2012-09-09T06:57:46Z</time>
      </trkpt>
      <trkpt lat="43.46104" lon="1.48586">
        <ele>234</ele>
        <time>2012-09-09T06:57:50Z</time>
      </trkpt>
      <trkpt lat="43.46099" lon="1.48594">
        <ele>236</ele>
        <time>2012-09-09T06:57:54Z</time>
      </trkpt>
      <trkpt lat="43.46096" lon="1.486">
        <ele>238</ele>
        <time>2012-09-09T06:57:58Z</time>
      </trkpt>
      <trkpt lat="43.46093" lon="1.48605">
        <ele>239</ele>
        <time>2012-09-09T06:58:02Z</time>
      </trkpt>
      <trkpt lat="43.46095" lon="1.48601">
        <ele>244</ele>
        <time>2012-09-09T06:58:06Z</time>
      </trkpt>
      <trkpt lat="43.46097" lon="1.486">
        <ele>242</ele>
        <time>2012-09-09T06:58:10Z</time>
      </trkpt>
      <trkpt lat="43.46097" lon="1.48602">
        <ele>240</ele>
        <time>2012-09-09T06:58:18Z</time>
      </trkpt>
      <trkpt lat="43.46098" lon="1.48595">
        <ele>242</ele>
        <time>2012-09-09T06:58:26Z</time>
      </trkpt>
      <trkpt lat="43.46098" lon="1.4858">
        <ele>241</ele>
        <time>2012-09-09T06:58:30Z</time>
      </trkpt>
      <trkpt lat="43.46098" lon="1.4858">
        <ele>240</ele>
        <time>2012-09-09T06:58:34Z</time>
      </trkpt>
      <trkpt lat="43.46096" lon="1.48593">
        <ele>240</ele>
        <time>2012-09-09T06:58:38Z</time>
      </trkpt>
      <trkpt lat="43.46096" lon="1.486">
        <ele>242</ele>
        <time>2012-09-09T06:58:42Z</time>
      </trkpt>
      <trkpt lat="43.46095" lon="1.48602">
        <ele>236</ele>
        <time>2012-09-09T06:58:46Z</time>
      </trkpt>
      <trkpt lat="43.46094" lon="1.48602">
        <ele>235</ele>
        <time>2012-09-09T06:58:50Z</time>
      </trkpt>
      <trkpt lat="43.46094" lon="1.48601">
        <ele>235</ele>
        <time>2012-09-09T06:58:54Z</time>
      </trkpt>
      <trkpt lat="43.46093" lon="1.48606">
        <ele>235</ele>
        <time>2012-09-09T07:00:30Z</time>
      </trkpt>
      <trkpt lat="43.46091" lon="1.48606">
        <ele>233</ele>
        <time>2012-09-09T07:00:34Z</time>
      </trkpt>
      <trkpt lat="43.46089" lon="1.48609">
        <ele>233</ele>
        <time>2012-09-09T07:00:42Z</time>
      </trkpt>
      <trkpt lat="43.46088" lon="1.48611">
        <ele>235</ele>
        <time>2012-09-09T07:00:58Z</time>
      </trkpt>
      <trkpt lat="43.46087" lon="1.48612">
        <ele>235</ele>
        <time>2012-09-09T07:01:02Z</time>
      </trkpt>
      <trkpt lat="43.46088" lon="1.48615">
        <ele>235</ele>
        <time>2012-09-09T07:02:50Z</time>
      </trkpt>
      <trkpt lat="43.46088" lon="1.48614">
        <ele>235</ele>
        <time>2012-09-09T07:02:54Z</time>
      </trkpt>
      <trkpt lat="43.46092" lon="1.48614">
        <ele>236</ele>
        <time>2012-09-09T07:03:06Z</time>
      </trkpt>
      <trkpt lat="43.46092" lon="1.48617">
        <ele>236</ele>
        <time>2012-09-09T07:03:10Z</time>
      </trkpt>
      <trkpt lat="43.46086" lon="1.48623">
        <ele>236</ele>
        <time>2012-09-09T07:03:14Z</time>
      </trkpt>
      <trkpt lat="43.4608" lon="1.48633">
        <ele>235</ele>
        <time>2012-09-09T07:03:18Z</time>
      </trkpt>
      <trkpt lat="43.46074" lon="1.48645">
        <ele>235</ele>
        <time>2012-09-09T07:03:22Z</time>
      </trkpt>
      <trkpt lat="43.46068" lon="1.48655">
        <ele>236</ele>
        <time>2012-09-09T07:03:26Z</time>
      </trkpt>
      <trkpt lat="43.46063" lon="1.48664">
        <ele>236</ele>
        <time>2012-09-09T07:03:30Z</time>
      </trkpt>
      <trkpt lat="43.46057" lon="1.48675">
        <ele>236</ele>
        <time>2012-09-09T07:03:34Z</time>
      </trkpt>
      <trkpt lat="43.4605" lon="1.48687">
        <ele>238</ele>
        <time>2012-09-09T07:03:38Z</time>
      </trkpt>
      <trkpt lat="43.46043" lon="1.487">
        <ele>239</ele>
        <time>2012-09-09T07:03:42Z</time>
      </trkpt>
      <trkpt lat="43.46036" lon="1.48711">
        <ele>240</ele>
        <time>2012-09-09T07:03:46Z</time>
      </trkpt>
      <trkpt lat="43.4603" lon="1.48723">
        <ele>242</ele>
        <time>2012-09-09T07:03:50Z</time>
      </trkpt>
      <trkpt lat="43.46025" lon="1.48736">
        <ele>243</ele>
        <time>2012-09-09T07:03:54Z</time>
      </trkpt>
      <trkpt lat="43.46019" lon="1.48748">
        <ele>244</ele>
        <time>2012-09-09T07:03:58Z</time>
      </trkpt>
      <trkpt lat="43.46015" lon="1.48758">
        <ele>245</ele>
        <time>2012-09-09T07:04:02Z</time>
      </trkpt>
      <trkpt lat="43.46011" lon="1.48766">
        <ele>245</ele>
        <time>2012-09-09T07:04:06Z</time>
      </trkpt>
      <trkpt lat="43.46006" lon="1.48773">
        <ele>245</ele>
        <time>2012-09-09T07:04:10Z</time>
      </trkpt>
      <trkpt lat="43.46003" lon="1.4878">
        <ele>244</ele>
        <time>2012-09-09T07:04:14Z</time>
      </trkpt>
      <trkpt lat="43.46" lon="1.48788">
        <ele>245</ele>
        <time>2012-09-09T07:04:18Z</time>
      </trkpt>
      <trkpt lat="43.45995" lon="1.48795">
        <ele>246</ele>
        <time>2012-09-09T07:04:22Z</time>
      </trkpt>
      <trkpt lat="43.45988" lon="1.48809">
        <ele>244</ele>
        <time>2012-09-09T07:04:26Z</time>
      </trkpt>
      <trkpt lat="43.45983" lon="1.4882">
        <ele>243</ele>
        <time>2012-09-09T07:04:30Z</time>
      </trkpt>
      <trkpt lat="43.45978" lon="1.48829">
        <ele>243</ele>
        <time>2012-09-09T07:04:34Z</time>
      </trkpt>
      <trkpt lat="43.45974" lon="1.48834">
        <ele>239</ele>
        <time>2012-09-09T07:04:38Z</time>
      </trkpt>
      <trkpt lat="43.45968" lon="1.48842">
        <ele>242</ele>
        <time>2012-09-09T07:04:42Z</time>
      </trkpt>
      <trkpt lat="43.45962" lon="1.48852">
        <ele>242</ele>
        <time>2012-09-09T07:04:46Z</time>
      </trkpt>
      <trkpt lat="43.45956" lon="1.4886">
        <ele>243</ele>
        <time>2012-09-09T07:04:50Z</time>
      </trkpt>
      <trkpt lat="43.45951" lon="1.48869">
        <ele>244</ele>
        <time>2012-09-09T07:04:54Z</time>
      </trkpt>
      <trkpt lat="43.45947" lon="1.48876">
        <ele>244</ele>
        <time>2012-09-09T07:04:58Z</time>
      </trkpt>
      <trkpt lat="43.45942" lon="1.48883">
        <ele>249</ele>
        <time>2012-09-09T07:05:02Z</time>
      </trkpt>
      <trkpt lat="43.45936" lon="1.48891">
        <ele>248</ele>
        <time>2012-09-09T07:05:06Z</time>
      </trkpt>
      <trkpt lat="43.45929" lon="1.48899">
        <ele>248</ele>
        <time>2012-09-09T07:05:10Z</time>
      </trkpt>
      <trkpt lat="43.45924" lon="1.48905">
        <ele>247</ele>
        <time>2012-09-09T07:05:14Z</time>
      </trkpt>
      <trkpt lat="43.45922" lon="1.48906">
        <ele>248</ele>
        <time>2012-09-09T07:05:18Z</time>
      </trkpt>
      <trkpt lat="43.45917" lon="1.48919">
        <ele>250</ele>
        <time>2012-09-09T07:05:22Z</time>
      </trkpt>
      <trkpt lat="43.45911" lon="1.48931">
        <ele>250</ele>
        <time>2012-09-09T07:05:26Z</time>
      </trkpt>
      <trkpt lat="43.45906" lon="1.48946">
        <ele>251</ele>
        <time>2012-09-09T07:05:30Z</time>
      </trkpt>
      <trkpt lat="43.45898" lon="1.48957">
        <ele>253</ele>
        <time>2012-09-09T07:05:34Z</time>
      </trkpt>
      <trkpt lat="43.4589" lon="1.48966">
        <ele>252</ele>
        <time>2012-09-09T07:05:38Z</time>
      </trkpt>
      <trkpt lat="43.45884" lon="1.48976">
        <ele>252</ele>
        <time>2012-09-09T07:05:42Z</time>
      </trkpt>
      <trkpt lat="43.45877" lon="1.48987">
        <ele>252</ele>
        <time>2012-09-09T07:05:46Z</time>
      </trkpt>
      <trkpt lat="43.4587" lon="1.48999">
        <ele>252</ele>
        <time>2012-09-09T07:05:50Z</time>
      </trkpt>
      <trkpt lat="43.45865" lon="1.4901">
        <ele>251</ele>
        <time>2012-09-09T07:05:54Z</time>
      </trkpt>
      <trkpt lat="43.45858" lon="1.49024">
        <ele>252</ele>
        <time>2012-09-09T07:05:58Z</time>
      </trkpt>
      <trkpt lat="43.45852" lon="1.49039">
        <ele>252</ele>
        <time>2012-09-09T07:06:02Z</time>
      </trkpt>
      <trkpt lat="43.45845" lon="1.49052">
        <ele>253</ele>
        <time>2012-09-09T07:06:06Z</time>
      </trkpt>
      <trkpt lat="43.45837" lon="1.4906">
        <ele>253</ele>
        <time>2012-09-09T07:06:10Z</time>
      </trkpt>
      <trkpt lat="43.45832" lon="1.49068">
        <ele>255</ele>
        <time>2012-09-09T07:06:14Z</time>
      </trkpt>
      <trkpt lat="43.45828" lon="1.49076">
        <ele>256</ele>
        <time>2012-09-09T07:06:18Z</time>
      </trkpt>
      <trkpt lat="43.45824" lon="1.49085">
        <ele>257</ele>
        <time>2012-09-09T07:06:22Z</time>
      </trkpt>
      <trkpt lat="43.45818" lon="1.49095">
        <ele>258</ele>
        <time>2012-09-09T07:06:26Z</time>
      </trkpt>
      <trkpt lat="43.45812" lon="1.49106">
        <ele>258</ele>
        <time>2012-09-09T07:06:30Z</time>
      </trkpt>
      <trkpt lat="43.45807" lon="1.49117">
        <ele>258</ele>
        <time>2012-09-09T07:06:34Z</time>
      </trkpt>
      <trkpt lat="43.45801" lon="1.49128">
        <ele>258</ele>
        <time>2012-09-09T07:06:38Z</time>
      </trkpt>
      <trkpt lat="43.45797" lon="1.4914">
        <ele>258</ele>
        <time>2012-09-09T07:06:42Z</time>
      </trkpt>
      <trkpt lat="43.45791" lon="1.49151">
        <ele>259</ele>
        <time>2012-09-09T07:06:46Z</time>
      </trkpt>
      <trkpt lat="43.45787" lon="1.49159">
        <ele>261</ele>
        <time>2012-09-09T07:06:50Z</time>
      </trkpt>
      <trkpt lat="43.45782" lon="1.49167">
        <ele>262</ele>
        <time>2012-09-09T07:06:54Z</time>
      </trkpt>
      <trkpt lat="43.45775" lon="1.49175">
        <ele>262</ele>
        <time>2012-09-09T07:06:58Z</time>
      </trkpt>
      <trkpt lat="43.45768" lon="1.49184">
        <ele>262</ele>
        <time>2012-09-09T07:07:02Z</time>
      </trkpt>
      <trkpt lat="43.4576" lon="1.49195">
        <ele>262</ele>
        <time>2012-09-09T07:07:06Z</time>
      </trkpt>
      <trkpt lat="43.45752" lon="1.49205">
        <ele>262</ele>
        <time>2012-09-09T07:07:10Z</time>
      </trkpt>
      <trkpt lat="43.45745" lon="1.49215">
        <ele>263</ele>
        <time>2012-09-09T07:07:14Z</time>
      </trkpt>
      <trkpt lat="43.45738" lon="1.49228">
        <ele>263</ele>
        <time>2012-09-09T07:07:18Z</time>
      </trkpt>
      <trkpt lat="43.45729" lon="1.4924">
        <ele>266</ele>
        <time>2012-09-09T07:07:22Z</time>
      </trkpt>
      <trkpt lat="43.45721" lon="1.49254">
        <ele>265</ele>
        <time>2012-09-09T07:07:26Z</time>
      </trkpt>
      <trkpt lat="43.45715" lon="1.49268">
        <ele>263</ele>
        <time>2012-09-09T07:07:30Z</time>
      </trkpt>
      <trkpt lat="43.45707" lon="1.4928">
        <ele>261</ele>
        <time>2012-09-09T07:07:34Z</time>
      </trkpt>
      <trkpt lat="43.45697" lon="1.49291">
        <ele>262</ele>
        <time>2012-09-09T07:07:38Z</time>
      </trkpt>
      <trkpt lat="43.45686" lon="1.49299">
        <ele>263</ele>
        <time>2012-09-09T07:07:42Z</time>
      </trkpt>
      <trkpt lat="43.45675" lon="1.49305">
        <ele>264</ele>
        <time>2012-09-09T07:07:46Z</time>
      </trkpt>
      <trkpt lat="43.45665" lon="1.4932">
        <ele>263</ele>
        <time>2012-09-09T07:07:50Z</time>
      </trkpt>
      <trkpt lat="43.45658" lon="1.49335">
        <ele>263</ele>
        <time>2012-09-09T07:07:54Z</time>
      </trkpt>
      <trkpt lat="43.45648" lon="1.49351">
        <ele>263</ele>
        <time>2012-09-09T07:07:58Z</time>
      </trkpt>
      <trkpt lat="43.45639" lon="1.49361">
        <ele>267</ele>
        <time>2012-09-09T07:08:02Z</time>
      </trkpt>
      <trkpt lat="43.45627" lon="1.49372">
        <ele>270</ele>
        <time>2012-09-09T07:08:06Z</time>
      </trkpt>
      <trkpt lat="43.45615" lon="1.49388">
        <ele>269</ele>
        <time>2012-09-09T07:08:10Z</time>
      </trkpt>
      <trkpt lat="43.45602" lon="1.49404">
        <ele>270</ele>
        <time>2012-09-09T07:08:14Z</time>
      </trkpt>
      <trkpt lat="43.4559" lon="1.49418">
        <ele>268</ele>
        <time>2012-09-09T07:08:18Z</time>
      </trkpt>
      <trkpt lat="43.45581" lon="1.49424">
        <ele>266</ele>
        <time>2012-09-09T07:08:22Z</time>
      </trkpt>
      <trkpt lat="43.4558" lon="1.49433">
        <ele>269</ele>
        <time>2012-09-09T07:08:26Z</time>
      </trkpt>
      <trkpt lat="43.45581" lon="1.49437">
        <ele>271</ele>
        <time>2012-09-09T07:08:34Z</time>
      </trkpt>
      <trkpt lat="43.45577" lon="1.49438">
        <ele>269</ele>
        <time>2012-09-09T07:08:38Z</time>
      </trkpt>
      <trkpt lat="43.45569" lon="1.49418">
        <ele>269</ele>
        <time>2012-09-09T07:08:42Z</time>
      </trkpt>
      <trkpt lat="43.45568" lon="1.49404">
        <ele>268</ele>
        <time>2012-09-09T07:08:46Z</time>
      </trkpt>
      <trkpt lat="43.45564" lon="1.49411">
        <ele>266</ele>
        <time>2012-09-09T07:08:50Z</time>
      </trkpt>
      <trkpt lat="43.45553" lon="1.49436">
        <ele>264</ele>
        <time>2012-09-09T07:08:54Z</time>
      </trkpt>
      <trkpt lat="43.45542" lon="1.49468">
        <ele>262</ele>
        <time>2012-09-09T07:08:58Z</time>
      </trkpt>
      <trkpt lat="43.45532" lon="1.495">
        <ele>264</ele>
        <time>2012-09-09T07:09:02Z</time>
      </trkpt>
      <trkpt lat="43.45524" lon="1.49531">
        <ele>263</ele>
        <time>2012-09-09T07:09:06Z</time>
      </trkpt>
      <trkpt lat="43.45518" lon="1.49558">
        <ele>264</ele>
        <time>2012-09-09T07:09:10Z</time>
      </trkpt>
      <trkpt lat="43.45514" lon="1.49582">
        <ele>264</ele>
        <time>2012-09-09T07:09:14Z</time>
      </trkpt>
      <trkpt lat="43.45506" lon="1.496">
        <ele>265</ele>
        <time>2012-09-09T07:09:18Z</time>
      </trkpt>
      <trkpt lat="43.45497" lon="1.49616">
        <ele>269</ele>
        <time>2012-09-09T07:09:22Z</time>
      </trkpt>
      <trkpt lat="43.45488" lon="1.49632">
        <ele>269</ele>
        <time>2012-09-09T07:09:26Z</time>
      </trkpt>
      <trkpt lat="43.45478" lon="1.49649">
        <ele>271</ele>
        <time>2012-09-09T07:09:30Z</time>
      </trkpt>
      <trkpt lat="43.4547" lon="1.49669">
        <ele>269</ele>
        <time>2012-09-09T07:09:34Z</time>
      </trkpt>
      <trkpt lat="43.45463" lon="1.49687">
        <ele>269</ele>
        <time>2012-09-09T07:09:38Z</time>
      </trkpt>
      <trkpt lat="43.45457" lon="1.49701">
        <ele>270</ele>
        <time>2012-09-09T07:09:42Z</time>
      </trkpt>
      <trkpt lat="43.45451" lon="1.49721">
        <ele>269</ele>
        <time>2012-09-09T07:09:46Z</time>
      </trkpt>
      <trkpt lat="43.45446" lon="1.49731">
        <ele>269</ele>
        <time>2012-09-09T07:09:50Z</time>
      </trkpt>
      <trkpt lat="43.45445" lon="1.49731">
        <ele>269</ele>
        <time>2012-09-09T07:09:54Z</time>
      </trkpt>
      <trkpt lat="43.45444" lon="1.4973">
        <ele>263</ele>
        <time>2012-09-09T07:10:06Z</time>
      </trkpt>
      <trkpt lat="43.45443" lon="1.49735">
        <ele>261</ele>
        <time>2012-09-09T07:10:14Z</time>
      </trkpt>
      <trkpt lat="43.45445" lon="1.49745">
        <ele>261</ele>
        <time>2012-09-09T07:10:18Z</time>
      </trkpt>
      <trkpt lat="43.45455" lon="1.49783">
        <ele>261</ele>
        <time>2012-09-09T07:10:22Z</time>
      </trkpt>
      <trkpt lat="43.45457" lon="1.4983">
        <ele>259</ele>
        <time>2012-09-09T07:10:26Z</time>
      </trkpt>
      <trkpt lat="43.45456" lon="1.49883">
        <ele>257</ele>
        <time>2012-09-09T07:10:30Z</time>
      </trkpt>
      <trkpt lat="43.45465" lon="1.49944">
        <ele>255</ele>
        <time>2012-09-09T07:10:34Z</time>
      </trkpt>
      <trkpt lat="43.45485" lon="1.50001">
        <ele>253</ele>
        <time>2012-09-09T07:10:38Z</time>
      </trkpt>
      <trkpt lat="43.45495" lon="1.50053">
        <ele>249</ele>
        <time>2012-09-09T07:10:42Z</time>
      </trkpt>
      <trkpt lat="43.45501" lon="1.50102">
        <ele>249</ele>
        <time>2012-09-09T07:10:46Z</time>
      </trkpt>
      <trkpt lat="43.45501" lon="1.50149">
        <ele>249</ele>
        <time>2012-09-09T07:10:50Z</time>
      </trkpt>
      <trkpt lat="43.45496" lon="1.50191">
        <ele>249</ele>
        <time>2012-09-09T07:10:54Z</time>
      </trkpt>
      <trkpt lat="43.45496" lon="1.50229">
        <ele>250</ele>
        <time>2012-09-09T07:10:58Z</time>
      </trkpt>
      <trkpt lat="43.45503" lon="1.50263">
        <ele>247</ele>
        <time>2012-09-09T07:11:02Z</time>
      </trkpt>
      <trkpt lat="43.45514" lon="1.50297">
        <ele>246</ele>
        <time>2012-09-09T07:11:06Z</time>
      </trkpt>
      <trkpt lat="43.45529" lon="1.50323">
        <ele>245</ele>
        <time>2012-09-09T07:11:10Z</time>
      </trkpt>
      <trkpt lat="43.4554" lon="1.50353">
        <ele>244</ele>
        <time>2012-09-09T07:11:14Z</time>
      </trkpt>
      <trkpt lat="43.45551" lon="1.50383">
        <ele>243</ele>
        <time>2012-09-09T07:11:18Z</time>
      </trkpt>
      <trkpt lat="43.45563" lon="1.50402">
        <ele>243</ele>
        <time>2012-09-09T07:11:22Z</time>
      </trkpt>
      <trkpt lat="43.45573" lon="1.50425">
        <ele>243</ele>
        <time>2012-09-09T07:11:26Z</time>
      </trkpt>
      <trkpt lat="43.45582" lon="1.50449">
        <ele>244</ele>
        <time>2012-09-09T07:11:30Z</time>
      </trkpt>
      <trkpt lat="43.45587" lon="1.5047">
        <ele>244</ele>
        <time>2012-09-09T07:11:34Z</time>
      </trkpt>
      <trkpt lat="43.45593" lon="1.50489">
        <ele>244</ele>
        <time>2012-09-09T07:11:38Z</time>
      </trkpt>
      <trkpt lat="43.45596" lon="1.50507">
        <ele>245</ele>
        <time>2012-09-09T07:11:42Z</time>
      </trkpt>
      <trkpt lat="43.45598" lon="1.50524">
        <ele>246</ele>
        <time>2012-09-09T07:11:46Z</time>
      </trkpt>
      <trkpt lat="43.45601" lon="1.50542">
        <ele>246</ele>
        <time>2012-09-09T07:11:50Z</time>
      </trkpt>
      <trkpt lat="43.45607" lon="1.5056">
        <ele>247</ele>
        <time>2012-09-09T07:11:54Z</time>
      </trkpt>
      <trkpt lat="43.4561" lon="1.50577">
        <ele>247</ele>
        <time>2012-09-09T07:11:58Z</time>
      </trkpt>
      <trkpt lat="43.45613" lon="1.50593">
        <ele>247</ele>
        <time>2012-09-09T07:12:02Z</time>
      </trkpt>
      <trkpt lat="43.45616" lon="1.5061">
        <ele>248</ele>
        <time>2012-09-09T07:12:06Z</time>
      </trkpt>
      <trkpt lat="43.45619" lon="1.50627">
        <ele>250</ele>
        <time>2012-09-09T07:12:10Z</time>
      </trkpt>
      <trkpt lat="43.45624" lon="1.50646">
        <ele>251</ele>
        <time>2012-09-09T07:12:14Z</time>
      </trkpt>
      <trkpt lat="43.45627" lon="1.50666">
        <ele>251</ele>
        <time>2012-09-09T07:12:18Z</time>
      </trkpt>
      <trkpt lat="43.45631" lon="1.50689">
        <ele>251</ele>
        <time>2012-09-09T07:12:22Z</time>
      </trkpt>
      <trkpt lat="43.45645" lon="1.50723">
        <ele>249</ele>
        <time>2012-09-09T07:12:26Z</time>
      </trkpt>
      <trkpt lat="43.4565" lon="1.50754">
        <ele>247</ele>
        <time>2012-09-09T07:12:30Z</time>
      </trkpt>
      <trkpt lat="43.45651" lon="1.50779">
        <ele>247</ele>
        <time>2012-09-09T07:12:34Z</time>
      </trkpt>
      <trkpt lat="43.45668" lon="1.50808">
        <ele>247</ele>
        <time>2012-09-09T07:12:38Z</time>
      </trkpt>
      <trkpt lat="43.45687" lon="1.50833">
        <ele>248</ele>
        <time>2012-09-09T07:12:42Z</time>
      </trkpt>
      <trkpt lat="43.45707" lon="1.50851">
        <ele>249</ele>
        <time>2012-09-09T07:12:46Z</time>
      </trkpt>
      <trkpt lat="43.45726" lon="1.5087">
        <ele>253</ele>
        <time>2012-09-09T07:12:50Z</time>
      </trkpt>
      <trkpt lat="43.45738" lon="1.50893">
        <ele>254</ele>
        <time>2012-09-09T07:12:54Z</time>
      </trkpt>
      <trkpt lat="43.45752" lon="1.50918">
        <ele>253</ele>
        <time>2012-09-09T07:12:58Z</time>
      </trkpt>
      <trkpt lat="43.45764" lon="1.50939">
        <ele>254</ele>
        <time>2012-09-09T07:13:02Z</time>
      </trkpt>
      <trkpt lat="43.45774" lon="1.50959">
        <ele>255</ele>
        <time>2012-09-09T07:13:06Z</time>
      </trkpt>
      <trkpt lat="43.45787" lon="1.50978">
        <ele>254</ele>
        <time>2012-09-09T07:13:10Z</time>
      </trkpt>
      <trkpt lat="43.45801" lon="1.50998">
        <ele>255</ele>
        <time>2012-09-09T07:13:14Z</time>
      </trkpt>
      <trkpt lat="43.45816" lon="1.51018">
        <ele>256</ele>
        <time>2012-09-09T07:13:18Z</time>
      </trkpt>
      <trkpt lat="43.45831" lon="1.51032">
        <ele>257</ele>
        <time>2012-09-09T07:13:22Z</time>
      </trkpt>
      <trkpt lat="43.45846" lon="1.51047">
        <ele>257</ele>
        <time>2012-09-09T07:13:26Z</time>
      </trkpt>
      <trkpt lat="43.45859" lon="1.5106">
        <ele>263</ele>
        <time>2012-09-09T07:13:30Z</time>
      </trkpt>
      <trkpt lat="43.45869" lon="1.51067">
        <ele>266</ele>
        <time>2012-09-09T07:13:34Z</time>
      </trkpt>
      <trkpt lat="43.45872" lon="1.51074">
        <ele>266</ele>
        <time>2012-09-09T07:13:38Z</time>
      </trkpt>
      <trkpt lat="43.4587" lon="1.51088">
        <ele>267</ele>
        <time>2012-09-09T07:13:42Z</time>
      </trkpt>
      <trkpt lat="43.45868" lon="1.51112">
        <ele>268</ele>
        <time>2012-09-09T07:13:46Z</time>
      </trkpt>
      <trkpt lat="43.45866" lon="1.51137">
        <ele>268</ele>
        <time>2012-09-09T07:13:50Z</time>
      </trkpt>
      <trkpt lat="43.45861" lon="1.5117">
        <ele>268</ele>
        <time>2012-09-09T07:13:54Z</time>
      </trkpt>
      <trkpt lat="43.45858" lon="1.51199">
        <ele>266</ele>
        <time>2012-09-09T07:13:58Z</time>
      </trkpt>
      <trkpt lat="43.45856" lon="1.51222">
        <ele>265</ele>
        <time>2012-09-09T07:14:02Z</time>
      </trkpt>
      <trkpt lat="43.45851" lon="1.51253">
        <ele>266</ele>
        <time>2012-09-09T07:14:06Z</time>
      </trkpt>
      <trkpt lat="43.45844" lon="1.51286">
        <ele>265</ele>
        <time>2012-09-09T07:14:10Z</time>
      </trkpt>
      <trkpt lat="43.45862" lon="1.51333">
        <ele>263</ele>
        <time>2012-09-09T07:14:14Z</time>
      </trkpt>
      <trkpt lat="43.45852" lon="1.51358">
        <ele>261</ele>
        <time>2012-09-09T07:14:18Z</time>
      </trkpt>
      <trkpt lat="43.45844" lon="1.51387">
        <ele>262</ele>
        <time>2012-09-09T07:14:22Z</time>
      </trkpt>
      <trkpt lat="43.45836" lon="1.51401">
        <ele>262</ele>
        <time>2012-09-09T07:14:26Z</time>
      </trkpt>
      <trkpt lat="43.45831" lon="1.5142">
        <ele>261</ele>
        <time>2012-09-09T07:14:30Z</time>
      </trkpt>
      <trkpt lat="43.45828" lon="1.51439">
        <ele>260</ele>
        <time>2012-09-09T07:14:34Z</time>
      </trkpt>
      <trkpt lat="43.45826" lon="1.51455">
        <ele>261</ele>
        <time>2012-09-09T07:14:38Z</time>
      </trkpt>
      <trkpt lat="43.45823" lon="1.51469">
        <ele>261</ele>
        <time>2012-09-09T07:14:42Z</time>
      </trkpt>
      <trkpt lat="43.4582" lon="1.51485">
        <ele>261</ele>
        <time>2012-09-09T07:14:46Z</time>
      </trkpt>
      <trkpt lat="43.45818" lon="1.51501">
        <ele>261</ele>
        <time>2012-09-09T07:14:50Z</time>
      </trkpt>
      <trkpt lat="43.45815" lon="1.51516">
        <ele>261</ele>
        <time>2012-09-09T07:14:54Z</time>
      </trkpt>
      <trkpt lat="43.45813" lon="1.51534">
        <ele>261</ele>
        <time>2012-09-09T07:14:58Z</time>
      </trkpt>
      <trkpt lat="43.4581" lon="1.51551">
        <ele>261</ele>
        <time>2012-09-09T07:15:02Z</time>
      </trkpt>
      <trkpt lat="43.45807" lon="1.51567">
        <ele>259</ele>
        <time>2012-09-09T07:15:06Z</time>
      </trkpt>
      <trkpt lat="43.45802" lon="1.51586">
        <ele>259</ele>
        <time>2012-09-09T07:15:10Z</time>
      </trkpt>
      <trkpt lat="43.45798" lon="1.51607">
        <ele>260</ele>
        <time>2012-09-09T07:15:14Z</time>
      </trkpt>
      <trkpt lat="43.45794" lon="1.51627">
        <ele>261</ele>
        <time>2012-09-09T07:15:18Z</time>
      </trkpt>
      <trkpt lat="43.45787" lon="1.5165">
        <ele>260</ele>
        <time>2012-09-09T07:15:22Z</time>
      </trkpt>
      <trkpt lat="43.45781" lon="1.51676">
        <ele>260</ele>
        <time>2012-09-09T07:15:26Z</time>
      </trkpt>
      <trkpt lat="43.45773" lon="1.51699">
        <ele>259</ele>
        <time>2012-09-09T07:15:30Z</time>
      </trkpt>
      <trkpt lat="43.45767" lon="1.51725">
        <ele>258</ele>
        <time>2012-09-09T07:15:34Z</time>
      </trkpt>
      <trkpt lat="43.4576" lon="1.51752">
        <ele>258</ele>
        <time>2012-09-09T07:15:38Z</time>
      </trkpt>
      <trkpt lat="43.45758" lon="1.51781">
        <ele>258</ele>
        <time>2012-09-09T07:15:42Z</time>
      </trkpt>
      <trkpt lat="43.45755" lon="1.51811">
        <ele>257</ele>
        <time>2012-09-09T07:15:46Z</time>
      </trkpt>
      <trkpt lat="43.4575" lon="1.51836">
        <ele>257</ele>
        <time>2012-09-09T07:15:50Z</time>
      </trkpt>
      <trkpt lat="43.45744" lon="1.51863">
        <ele>257</ele>
        <time>2012-09-09T07:15:54Z</time>
      </trkpt>
      <trkpt lat="43.4574" lon="1.51886">
        <ele>256</ele>
        <time>2012-09-09T07:15:58Z</time>
      </trkpt>
      <trkpt lat="43.45735" lon="1.51913">
        <ele>257</ele>
        <time>2012-09-09T07:16:02Z</time>
      </trkpt>
      <trkpt lat="43.45728" lon="1.51936">
        <ele>258</ele>
        <time>2012-09-09T07:16:06Z</time>
      </trkpt>
      <trkpt lat="43.45721" lon="1.51954">
        <ele>259</ele>
        <time>2012-09-09T07:16:10Z</time>
      </trkpt>
      <trkpt lat="43.45715" lon="1.5197">
        <ele>260</ele>
        <time>2012-09-09T07:16:14Z</time>
      </trkpt>
      <trkpt lat="43.45712" lon="1.51982">
        <ele>259</ele>
        <time>2012-09-09T07:16:18Z</time>
      </trkpt>
      <trkpt lat="43.45706" lon="1.51993">
        <ele>260</ele>
        <time>2012-09-09T07:16:22Z</time>
      </trkpt>
      <trkpt lat="43.457" lon="1.52007">
        <ele>260</ele>
        <time>2012-09-09T07:16:26Z</time>
      </trkpt>
      <trkpt lat="43.45695" lon="1.52019">
        <ele>261</ele>
        <time>2012-09-09T07:16:30Z</time>
      </trkpt>
      <trkpt lat="43.4569" lon="1.5203">
        <ele>262</ele>
        <time>2012-09-09T07:16:34Z</time>
      </trkpt>
      <trkpt lat="43.45682" lon="1.52042">
        <ele>263</ele>
        <time>2012-09-09T07:16:38Z</time>
      </trkpt>
      <trkpt lat="43.45673" lon="1.52054">
        <ele>264</ele>
        <time>2012-09-09T07:16:42Z</time>
      </trkpt>
      <trkpt lat="43.45665" lon="1.52067">
        <ele>266</ele>
        <time>2012-09-09T07:16:46Z</time>
      </trkpt>
      <trkpt lat="43.45659" lon="1.5208">
        <ele>265</ele>
        <time>2012-09-09T07:16:50Z</time>
      </trkpt>
      <trkpt lat="43.45652" lon="1.52092">
        <ele>266</ele>
        <time>2012-09-09T07:16:54Z</time>
      </trkpt>
      <trkpt lat="43.45645" lon="1.52103">
        <ele>266</ele>
        <time>2012-09-09T07:16:58Z</time>
      </trkpt>
      <trkpt lat="43.45634" lon="1.52114">
        <ele>266</ele>
        <time>2012-09-09T07:17:02Z</time>
      </trkpt>
      <trkpt lat="43.45628" lon="1.52126">
        <ele>266</ele>
        <time>2012-09-09T07:17:06Z</time>
      </trkpt>
      <trkpt lat="43.45628" lon="1.52139">
        <ele>263</ele>
        <time>2012-09-09T07:17:10Z</time>
      </trkpt>
      <trkpt lat="43.45628" lon="1.52147">
        <ele>263</ele>
        <time>2012-09-09T07:17:14Z</time>
      </trkpt>
      <trkpt lat="43.45625" lon="1.52153">
        <ele>263</ele>
        <time>2012-09-09T07:17:18Z</time>
      </trkpt>
      <trkpt lat="43.4562" lon="1.5216">
        <ele>264</ele>
        <time>2012-09-09T07:17:22Z</time>
      </trkpt>
      <trkpt lat="43.45612" lon="1.52171">
        <ele>263</ele>
        <time>2012-09-09T07:17:26Z</time>
      </trkpt>
      <trkpt lat="43.45611" lon="1.52182">
        <ele>269</ele>
        <time>2012-09-09T07:17:30Z</time>
      </trkpt>
      <trkpt lat="43.45613" lon="1.5219">
        <ele>270</ele>
        <time>2012-09-09T07:17:34Z</time>
      </trkpt>
      <trkpt lat="43.45616" lon="1.52186">
        <ele>269</ele>
        <time>2012-09-09T07:17:38Z</time>
      </trkpt>
      <trkpt lat="43.45617" lon="1.52178">
        <ele>267</ele>
        <time>2012-09-09T07:17:42Z</time>
      </trkpt>
      <trkpt lat="43.45617" lon="1.52172">
        <ele>268</ele>
        <time>2012-09-09T07:17:46Z</time>
      </trkpt>
      <trkpt lat="43.4562" lon="1.52168">
        <ele>268</ele>
        <time>2012-09-09T07:17:50Z</time>
      </trkpt>
      <trkpt lat="43.45623" lon="1.52161">
        <ele>271</ele>
        <time>2012-09-09T07:17:54Z</time>
      </trkpt>
      <trkpt lat="43.45626" lon="1.52157">
        <ele>270</ele>
        <time>2012-09-09T07:17:58Z</time>
      </trkpt>
      <trkpt lat="43.45626" lon="1.52158">
        <ele>270</ele>
        <time>2012-09-09T07:18:02Z</time>
      </trkpt>
      <trkpt lat="43.4562" lon="1.52162">
        <ele>265</ele>
        <time>2012-09-09T07:18:06Z</time>
      </trkpt>
      <trkpt lat="43.45617" lon="1.52164">
        <ele>269</ele>
        <time>2012-09-09T07:18:10Z</time>
      </trkpt>
      <trkpt lat="43.45616" lon="1.52168">
        <ele>271</ele>
        <time>2012-09-09T07:18:14Z</time>
      </trkpt>
      <trkpt lat="43.45608" lon="1.52171">
        <ele>269</ele>
        <time>2012-09-09T07:18:18Z</time>
      </trkpt>
      <trkpt lat="43.45604" lon="1.5218">
        <ele>271</ele>
        <time>2012-09-09T07:18:22Z</time>
      </trkpt>
      <trkpt lat="43.4561" lon="1.52185">
        <ele>271</ele>
        <time>2012-09-09T07:18:26Z</time>
      </trkpt>
      <trkpt lat="43.45617" lon="1.5219">
        <ele>270</ele>
        <time>2012-09-09T07:18:30Z</time>
      </trkpt>
      <trkpt lat="43.45618" lon="1.52195">
        <ele>269</ele>
        <time>2012-09-09T07:18:34Z</time>
      </trkpt>
      <trkpt lat="43.4562" lon="1.52201">
        <ele>268</ele>
        <time>2012-09-09T07:18:38Z</time>
      </trkpt>
      <trkpt lat="43.45622" lon="1.52202">
        <ele>267</ele>
        <time>2012-09-09T07:18:42Z</time>
      </trkpt>
      <trkpt lat="43.45619" lon="1.52198">
        <ele>267</ele>
        <time>2012-09-09T07:18:46Z</time>
      </trkpt>
      <trkpt lat="43.45615" lon="1.52195">
        <ele>265</ele>
        <time>2012-09-09T07:18:50Z</time>
      </trkpt>
      <trkpt lat="43.45618" lon="1.52193">
        <ele>267</ele>
        <time>2012-09-09T07:19:02Z</time>
      </trkpt>
      <trkpt lat="43.4562" lon="1.52191">
        <ele>266</ele>
        <time>2012-09-09T07:19:10Z</time>
      </trkpt>
      <trkpt lat="43.45621" lon="1.52189">
        <ele>266</ele>
        <time>2012-09-09T07:19:14Z</time>
      </trkpt>
      <trkpt lat="43.45622" lon="1.52194">
        <ele>267</ele>
        <time>2012-09-09T07:19:22Z</time>
      </trkpt>
      <trkpt lat="43.45625" lon="1.52196">
        <ele>267</ele>
        <time>2012-09-09T07:19:26Z</time>
      </trkpt>
      <trkpt lat="43.45629" lon="1.52197">
        <ele>268</ele>
        <time>2012-09-09T07:19:34Z</time>
      </trkpt>
      <trkpt lat="43.45636" lon="1.52198">
        <ele>269</ele>
        <time>2012-09-09T07:19:38Z</time>
      </trkpt>
      <trkpt lat="43.45644" lon="1.52203">
        <ele>270</ele>
        <time>2012-09-09T07:19:42Z</time>
      </trkpt>
      <trkpt lat="43.45655" lon="1.52211">
        <ele>272</ele>
        <time>2012-09-09T07:19:46Z</time>
      </trkpt>
      <trkpt lat="43.45669" lon="1.5222">
        <ele>274</ele>
        <time>2012-09-09T07:19:50Z</time>
      </trkpt>
      <trkpt lat="43.45684" lon="1.52227">
        <ele>277</ele>
        <time>2012-09-09T07:19:54Z</time>
      </trkpt>
      <trkpt lat="43.45699" lon="1.52233">
        <ele>278</ele>
        <time>2012-09-09T07:19:58Z</time>
      </trkpt>
      <trkpt lat="43.4571" lon="1.52237">
        <ele>279</ele>
        <time>2012-09-09T07:20:02Z</time>
      </trkpt>
      <trkpt lat="43.45717" lon="1.52244">
        <ele>273</ele>
        <time>2012-09-09T07:20:06Z</time>
      </trkpt>
      <trkpt lat="43.45726" lon="1.52249">
        <ele>275</ele>
        <time>2012-09-09T07:20:10Z</time>
      </trkpt>
      <trkpt lat="43.45734" lon="1.52254">
        <ele>275</ele>
        <time>2012-09-09T07:20:14Z</time>
      </trkpt>
      <trkpt lat="43.45743" lon="1.52264">
        <ele>274</ele>
        <time>2012-09-09T07:20:18Z</time>
      </trkpt>
      <trkpt lat="43.45749" lon="1.52266">
        <ele>274</ele>
        <time>2012-09-09T07:20:22Z</time>
      </trkpt>
      <trkpt lat="43.4575" lon="1.52267">
        <ele>272</ele>
        <time>2012-09-09T07:20:26Z</time>
      </trkpt>
      <trkpt lat="43.45749" lon="1.52268">
        <ele>275</ele>
        <time>2012-09-09T07:20:30Z</time>
      </trkpt>
      <trkpt lat="43.45747" lon="1.52269">
        <ele>276</ele>
        <time>2012-09-09T07:20:34Z</time>
      </trkpt>
      <trkpt lat="43.45745" lon="1.52267">
        <ele>277</ele>
        <time>2012-09-09T07:20:46Z</time>
      </trkpt>
      <trkpt lat="43.45744" lon="1.52265">
        <ele>281</ele>
        <time>2012-09-09T07:21:22Z</time>
      </trkpt>
      <trkpt lat="43.45747" lon="1.52264">
        <ele>281</ele>
        <time>2012-09-09T07:21:26Z</time>
      </trkpt>
      <trkpt lat="43.45749" lon="1.52265">
        <ele>285</ele>
        <time>2012-09-09T07:21:30Z</time>
      </trkpt>
      <trkpt lat="43.45749" lon="1.52265">
        <ele>281</ele>
        <time>2012-09-09T07:21:50Z</time>
      </trkpt>
      <trkpt lat="43.45747" lon="1.52263">
        <ele>279</ele>
        <time>2012-09-09T07:21:54Z</time>
      </trkpt>
      <trkpt lat="43.45746" lon="1.52263">
        <ele>280</ele>
        <time>2012-09-09T07:21:58Z</time>
      </trkpt>
      <trkpt lat="43.45744" lon="1.52265">
        <ele>279</ele>
        <time>2012-09-09T07:22:02Z</time>
      </trkpt>
      <trkpt lat="43.45746" lon="1.52264">
        <ele>279</ele>
        <time>2012-09-09T07:22:06Z</time>
      </trkpt>
      <trkpt lat="43.45746" lon="1.52271">
        <ele>281</ele>
        <time>2012-09-09T07:22:18Z</time>
      </trkpt>
      <trkpt lat="43.45746" lon="1.52267">
        <ele>282</ele>
        <time>2012-09-09T07:22:38Z</time>
      </trkpt>
      <trkpt lat="43.45747" lon="1.52264">
        <ele>283</ele>
        <time>2012-09-09T07:22:42Z</time>
      </trkpt>
      <trkpt lat="43.45746" lon="1.52263">
        <ele>284</ele>
        <time>2012-09-09T07:22:54Z</time>
      </trkpt>
      <trkpt lat="43.45746" lon="1.52267">
        <ele>283</ele>
        <time>2012-09-09T07:23:02Z</time>
      </trkpt>
      <trkpt lat="43.45741" lon="1.52273">
        <ele>282</ele>
        <time>2012-09-09T07:23:06Z</time>
      </trkpt>
      <trkpt lat="43.45739" lon="1.52277">
        <ele>281</ele>
        <time>2012-09-09T07:23:10Z</time>
      </trkpt>
      <trkpt lat="43.45742" lon="1.52276">
        <ele>283</ele>
        <time>2012-09-09T07:23:14Z</time>
      </trkpt>
      <trkpt lat="43.45745" lon="1.52265">
        <ele>281</ele>
        <time>2012-09-09T07:23:26Z</time>
      </trkpt>
      <trkpt lat="43.45746" lon="1.52258">
        <ele>281</ele>
        <time>2012-09-09T07:23:30Z</time>
      </trkpt>
      <trkpt lat="43.45747" lon="1.52258">
        <ele>283</ele>
        <time>2012-09-09T07:23:34Z</time>
      </trkpt>
      <trkpt lat="43.45746" lon="1.52265">
        <ele>284</ele>
        <time>2012-09-09T07:23:46Z</time>
      </trkpt>
      <trkpt lat="43.45742" lon="1.52266">
        <ele>284</ele>
        <time>2012-09-09T07:23:54Z</time>
      </trkpt>
      <trkpt lat="43.45738" lon="1.52266">
        <ele>283</ele>
        <time>2012-09-09T07:23:58Z</time>
      </trkpt>
      <trkpt lat="43.45739" lon="1.52274">
        <ele>280</ele>
        <time>2012-09-09T07:24:02Z</time>
      </trkpt>
      <trkpt lat="43.45742" lon="1.5228">
        <ele>279</ele>
        <time>2012-09-09T07:24:06Z</time>
      </trkpt>
      <trkpt lat="43.45745" lon="1.52282">
        <ele>279</ele>
        <time>2012-09-09T07:24:10Z</time>
      </trkpt>
      <trkpt lat="43.45752" lon="1.52302">
        <ele>275</ele>
        <time>2012-09-09T07:24:22Z</time>
      </trkpt>
      <trkpt lat="43.45764" lon="1.52338">
        <ele>274</ele>
        <time>2012-09-09T07:24:26Z</time>
      </trkpt>
      <trkpt lat="43.45786" lon="1.5237">
        <ele>273</ele>
        <time>2012-09-09T07:24:30Z</time>
      </trkpt>
      <trkpt lat="43.45822" lon="1.52408">
        <ele>271</ele>
        <time>2012-09-09T07:24:34Z</time>
      </trkpt>
      <trkpt lat="43.4586" lon="1.52453">
        <ele>270</ele>
        <time>2012-09-09T07:24:38Z</time>
      </trkpt>
      <trkpt lat="43.45902" lon="1.52495">
        <ele>269</ele>
        <time>2012-09-09T07:24:42Z</time>
      </trkpt>
      <trkpt lat="43.45928" lon="1.52541">
        <ele>261</ele>
        <time>2012-09-09T07:24:46Z</time>
      </trkpt>
      <trkpt lat="43.45946" lon="1.52572">
        <ele>258</ele>
        <time>2012-09-09T07:24:50Z</time>
      </trkpt>
      <trkpt lat="43.45971" lon="1.52598">
        <ele>255</ele>
        <time>2012-09-09T07:24:54Z</time>
      </trkpt>
      <trkpt lat="43.45988" lon="1.52606">
        <ele>253</ele>
        <time>2012-09-09T07:24:58Z</time>
      </trkpt>
      <trkpt lat="43.45993" lon="1.52603">
        <ele>249</ele>
        <time>2012-09-09T07:25:02Z</time>
      </trkpt>
      <trkpt lat="43.46" lon="1.52608">
        <ele>248</ele>
        <time>2012-09-09T07:25:06Z</time>
      </trkpt>
      <trkpt lat="43.46008" lon="1.52616">
        <ele>246</ele>
        <time>2012-09-09T07:25:10Z</time>
      </trkpt>
      <trkpt lat="43.4602" lon="1.52628">
        <ele>244</ele>
        <time>2012-09-09T07:25:14Z</time>
      </trkpt>
      <trkpt lat="43.46037" lon="1.52635">
        <ele>241</ele>
        <time>2012-09-09T07:25:18Z</time>
      </trkpt>
      <trkpt lat="43.46049" lon="1.52644">
        <ele>238</ele>
        <time>2012-09-09T07:25:22Z</time>
      </trkpt>
      <trkpt lat="43.46063" lon="1.52651">
        <ele>235</ele>
        <time>2012-09-09T07:25:26Z</time>
      </trkpt>
      <trkpt lat="43.46077" lon="1.52654">
        <ele>233</ele>
        <time>2012-09-09T07:25:30Z</time>
      </trkpt>
      <trkpt lat="43.4609" lon="1.52659">
        <ele>230</ele>
        <time>2012-09-09T07:25:34Z</time>
      </trkpt>
      <trkpt lat="43.46106" lon="1.52671">
        <ele>224</ele>
        <time>2012-09-09T07:25:38Z</time>
      </trkpt>
      <trkpt lat="43.46129" lon="1.52681">
        <ele>224</ele>
        <time>2012-09-09T07:25:42Z</time>
      </trkpt>
      <trkpt lat="43.46169" lon="1.52687">
        <ele>222</ele>
        <time>2012-09-09T07:25:46Z</time>
      </trkpt>
      <trkpt lat="43.46191" lon="1.52697">
        <ele>221</ele>
        <time>2012-09-09T07:25:50Z</time>
      </trkpt>
      <trkpt lat="43.4623" lon="1.52709">
        <ele>219</ele>
        <time>2012-09-09T07:25:54Z</time>
      </trkpt>
      <trkpt lat="43.46261" lon="1.52723">
        <ele>215</ele>
        <time>2012-09-09T07:25:58Z</time>
      </trkpt>
      <trkpt lat="43.4628" lon="1.52757">
        <ele>212</ele>
        <time>2012-09-09T07:26:02Z</time>
      </trkpt>
      <trkpt lat="43.46307" lon="1.52803">
        <ele>213</ele>
        <time>2012-09-09T07:26:06Z</time>
      </trkpt>
      <trkpt lat="43.46317" lon="1.52827">
        <ele>209</ele>
        <time>2012-09-09T07:26:10Z</time>
      </trkpt>
      <trkpt lat="43.46321" lon="1.52835">
        <ele>204</ele>
        <time>2012-09-09T07:26:14Z</time>
      </trkpt>
      <trkpt lat="43.46326" lon="1.52846">
        <ele>203</ele>
        <time>2012-09-09T07:26:18Z</time>
      </trkpt>
      <trkpt lat="43.46328" lon="1.52863">
        <ele>202</ele>
        <time>2012-09-09T07:26:22Z</time>
      </trkpt>
      <trkpt lat="43.46332" lon="1.52885">
        <ele>201</ele>
        <time>2012-09-09T07:26:26Z</time>
      </trkpt>
      <trkpt lat="43.46339" lon="1.52909">
        <ele>201</ele>
        <time>2012-09-09T07:26:30Z</time>
      </trkpt>
      <trkpt lat="43.46343" lon="1.52935">
        <ele>197</ele>
        <time>2012-09-09T07:26:34Z</time>
      </trkpt>
      <trkpt lat="43.46343" lon="1.52955">
        <ele>193</ele>
        <time>2012-09-09T07:26:38Z</time>
      </trkpt>
      <trkpt lat="43.46351" lon="1.52985">
        <ele>188</ele>
        <time>2012-09-09T07:26:42Z</time>
      </trkpt>
      <trkpt lat="43.46357" lon="1.53016">
        <ele>190</ele>
        <time>2012-09-09T07:26:46Z</time>
      </trkpt>
      <trkpt lat="43.46358" lon="1.5303">
        <ele>192</ele>
        <time>2012-09-09T07:26:58Z</time>
      </trkpt>
      <trkpt lat="43.46356" lon="1.53034">
        <ele>192</ele>
        <time>2012-09-09T07:27:06Z</time>
      </trkpt>
      <trkpt lat="43.46354" lon="1.53036">
        <ele>193</ele>
        <time>2012-09-09T07:27:14Z</time>
      </trkpt>
      <trkpt lat="43.46351" lon="1.53036">
        <ele>193</ele>
        <time>2012-09-09T07:27:18Z</time>
      </trkpt>
      <trkpt lat="43.46349" lon="1.53036">
        <ele>194</ele>
        <time>2012-09-09T07:27:22Z</time>
      </trkpt>
      <trkpt lat="43.46354" lon="1.53033">
        <ele>198</ele>
        <time>2012-09-09T07:27:38Z</time>
      </trkpt>
      <trkpt lat="43.46355" lon="1.53034">
        <ele>198</ele>
        <time>2012-09-09T07:27:42Z</time>
      </trkpt>
      <trkpt lat="43.46357" lon="1.53034">
        <ele>198</ele>
        <time>2012-09-09T07:27:46Z</time>
      </trkpt>
      <trkpt lat="43.46354" lon="1.53036">
        <ele>197</ele>
        <time>2012-09-09T07:27:54Z</time>
      </trkpt>
      <trkpt lat="43.46353" lon="1.53039">
        <ele>195</ele>
        <time>2012-09-09T07:27:58Z</time>
      </trkpt>
      <trkpt lat="43.46354" lon="1.53037">
        <ele>190</ele>
        <time>2012-09-09T07:28:06Z</time>
      </trkpt>
      <trkpt lat="43.46352" lon="1.53038">
        <ele>190</ele>
        <time>2012-09-09T07:28:14Z</time>
      </trkpt>
      <trkpt lat="43.46348" lon="1.53038">
        <ele>190</ele>
        <time>2012-09-09T07:28:26Z</time>
      </trkpt>
      <trkpt lat="43.46341" lon="1.53041">
        <ele>190</ele>
        <time>2012-09-09T07:28:30Z</time>
      </trkpt>
      <trkpt lat="43.46329" lon="1.53043">
        <ele>189</ele>
        <time>2012-09-09T07:28:34Z</time>
      </trkpt>
      <trkpt lat="43.46312" lon="1.53043">
        <ele>187</ele>
        <time>2012-09-09T07:28:38Z</time>
      </trkpt>
      <trkpt lat="43.46293" lon="1.53046">
        <ele>185</ele>
        <time>2012-09-09T07:28:42Z</time>
      </trkpt>
      <trkpt lat="43.46273" lon="1.53054">
        <ele>184</ele>
        <time>2012-09-09T07:28:46Z</time>
      </trkpt>
      <trkpt lat="43.46257" lon="1.53062">
        <ele>182</ele>
        <time>2012-09-09T07:28:50Z</time>
      </trkpt>
      <trkpt lat="43.46241" lon="1.5307">
        <ele>181</ele>
        <time>2012-09-09T07:28:54Z</time>
      </trkpt>
      <trkpt lat="43.46218" lon="1.53085">
        <ele>181</ele>
        <time>2012-09-09T07:28:58Z</time>
      </trkpt>
      <trkpt lat="43.46199" lon="1.53093">
        <ele>181</ele>
        <time>2012-09-09T07:29:02Z</time>
      </trkpt>
      <trkpt lat="43.46183" lon="1.531">
        <ele>180</ele>
        <time>2012-09-09T07:29:06Z</time>
      </trkpt>
      <trkpt lat="43.46165" lon="1.53099">
        <ele>179</ele>
        <time>2012-09-09T07:29:10Z</time>
      </trkpt>
      <trkpt lat="43.46149" lon="1.53114">
        <ele>178</ele>
        <time>2012-09-09T07:29:14Z</time>
      </trkpt>
      <trkpt lat="43.46132" lon="1.53123">
        <ele>176</ele>
        <time>2012-09-09T07:29:18Z</time>
      </trkpt>
      <trkpt lat="43.46116" lon="1.5313">
        <ele>176</ele>
        <time>2012-09-09T07:29:22Z</time>
      </trkpt>
      <trkpt lat="43.46096" lon="1.53148">
        <ele>176</ele>
        <time>2012-09-09T07:29:26Z</time>
      </trkpt>
      <trkpt lat="43.46077" lon="1.53155">
        <ele>175</ele>
        <time>2012-09-09T07:29:30Z</time>
      </trkpt>
      <trkpt lat="43.46062" lon="1.5316">
        <ele>175</ele>
        <time>2012-09-09T07:29:34Z</time>
      </trkpt>
      <trkpt lat="43.46048" lon="1.53168">
        <ele>175</ele>
        <time>2012-09-09T07:29:38Z</time>
      </trkpt>
      <trkpt lat="43.46033" lon="1.53177">
        <ele>174</ele>
        <time>2012-09-09T07:29:42Z</time>
      </trkpt>
      <trkpt lat="43.46016" lon="1.5318">
        <ele>172</ele>
        <time>2012-09-09T07:29:46Z</time>
      </trkpt>
      <trkpt lat="43.45995" lon="1.53186">
        <ele>172</ele>
        <time>2012-09-09T07:29:50Z</time>
      </trkpt>
      <trkpt lat="43.45974" lon="1.53193">
        <ele>171</ele>
        <time>2012-09-09T07:29:54Z</time>
      </trkpt>
      <trkpt lat="43.45956" lon="1.53192">
        <ele>171</ele>
        <time>2012-09-09T07:29:58Z</time>
      </trkpt>
      <trkpt lat="43.45943" lon="1.5319">
        <ele>171</ele>
        <time>2012-09-09T07:30:02Z</time>
      </trkpt>
      <trkpt lat="43.45934" lon="1.53188">
        <ele>171</ele>
        <time>2012-09-09T07:30:06Z</time>
      </trkpt>
      <trkpt lat="43.45924" lon="1.53189">
        <ele>172</ele>
        <time>2012-09-09T07:30:10Z</time>
      </trkpt>
      <trkpt lat="43.45916" lon="1.5319">
        <ele>174</ele>
        <time>2012-09-09T07:30:14Z</time>
      </trkpt>
      <trkpt lat="43.45909" lon="1.53192">
        <ele>174</ele>
        <time>2012-09-09T07:30:18Z</time>
      </trkpt>
      <trkpt lat="43.45902" lon="1.53195">
        <ele>176</ele>
        <time>2012-09-09T07:30:22Z</time>
      </trkpt>
      <trkpt lat="43.45892" lon="1.53199">
        <ele>178</ele>
        <time>2012-09-09T07:30:26Z</time>
      </trkpt>
      <trkpt lat="43.45879" lon="1.53202">
        <ele>177</ele>
        <time>2012-09-09T07:30:30Z</time>
      </trkpt>
      <trkpt lat="43.45866" lon="1.53206">
        <ele>182</ele>
        <time>2012-09-09T07:30:34Z</time>
      </trkpt>
      <trkpt lat="43.45853" lon="1.53209">
        <ele>185</ele>
        <time>2012-09-09T07:30:38Z</time>
      </trkpt>
      <trkpt lat="43.45842" lon="1.53212">
        <ele>185</ele>
        <time>2012-09-09T07:30:42Z</time>
      </trkpt>
      <trkpt lat="43.45832" lon="1.53214">
        <ele>186</ele>
        <time>2012-09-09T07:30:46Z</time>
      </trkpt>
      <trkpt lat="43.45822" lon="1.53216">
        <ele>186</ele>
        <time>2012-09-09T07:30:50Z</time>
      </trkpt>
      <trkpt lat="43.45813" lon="1.53221">
        <ele>189</ele>
        <time>2012-09-09T07:30:54Z</time>
      </trkpt>
      <trkpt lat="43.45802" lon="1.53221">
        <ele>191</ele>
        <time>2012-09-09T07:30:58Z</time>
      </trkpt>
      <trkpt lat="43.45794" lon="1.53217">
        <ele>190</ele>
        <time>2012-09-09T07:31:02Z</time>
      </trkpt>
      <trkpt lat="43.45784" lon="1.53217">
        <ele>189</ele>
        <time>2012-09-09T07:31:06Z</time>
      </trkpt>
      <trkpt lat="43.45775" lon="1.53218">
        <ele>189</ele>
        <time>2012-09-09T07:31:10Z</time>
      </trkpt>
      <trkpt lat="43.45767" lon="1.53217">
        <ele>190</ele>
        <time>2012-09-09T07:31:14Z</time>
      </trkpt>
      <trkpt lat="43.4576" lon="1.53213">
        <ele>189</ele>
        <time>2012-09-09T07:31:18Z</time>
      </trkpt>
      <trkpt lat="43.45752" lon="1.53209">
        <ele>189</ele>
        <time>2012-09-09T07:31:22Z</time>
      </trkpt>
      <trkpt lat="43.45746" lon="1.53206">
        <ele>188</ele>
        <time>2012-09-09T07:31:26Z</time>
      </trkpt>
      <trkpt lat="43.45739" lon="1.53206">
        <ele>189</ele>
        <time>2012-09-09T07:31:30Z</time>
      </trkpt>
      <trkpt lat="43.45729" lon="1.53205">
        <ele>190</ele>
        <time>2012-09-09T07:31:34Z</time>
      </trkpt>
      <trkpt lat="43.45716" lon="1.5321">
        <ele>191</ele>
        <time>2012-09-09T07:31:38Z</time>
      </trkpt>
      <trkpt lat="43.457" lon="1.53218">
        <ele>192</ele>
        <time>2012-09-09T07:31:42Z</time>
      </trkpt>
      <trkpt lat="43.45685" lon="1.53227">
        <ele>193</ele>
        <time>2012-09-09T07:31:46Z</time>
      </trkpt>
      <trkpt lat="43.45665" lon="1.53233">
        <ele>193</ele>
        <time>2012-09-09T07:31:50Z</time>
      </trkpt>
      <trkpt lat="43.45647" lon="1.53233">
        <ele>194</ele>
        <time>2012-09-09T07:31:54Z</time>
      </trkpt>
      <trkpt lat="43.45631" lon="1.5323">
        <ele>192</ele>
        <time>2012-09-09T07:31:58Z</time>
      </trkpt>
      <trkpt lat="43.45615" lon="1.53228">
        <ele>190</ele>
        <time>2012-09-09T07:32:02Z</time>
      </trkpt>
      <trkpt lat="43.45594" lon="1.53229">
        <ele>189</ele>
        <time>2012-09-09T07:32:06Z</time>
      </trkpt>
      <trkpt lat="43.45575" lon="1.53231">
        <ele>191</ele>
        <time>2012-09-09T07:32:10Z</time>
      </trkpt>
      <trkpt lat="43.45555" lon="1.5323">
        <ele>194</ele>
        <time>2012-09-09T07:32:14Z</time>
      </trkpt>
      <trkpt lat="43.45525" lon="1.53244">
        <ele>194</ele>
        <time>2012-09-09T07:32:18Z</time>
      </trkpt>
      <trkpt lat="43.45506" lon="1.53261">
        <ele>193</ele>
        <time>2012-09-09T07:32:22Z</time>
      </trkpt>
      <trkpt lat="43.45501" lon="1.53292">
        <ele>198</ele>
        <time>2012-09-09T07:32:26Z</time>
      </trkpt>
      <trkpt lat="43.45501" lon="1.53298">
        <ele>198</ele>
        <time>2012-09-09T07:32:30Z</time>
      </trkpt>
      <trkpt lat="43.455" lon="1.533">
        <ele>203</ele>
        <time>2012-09-09T07:32:34Z</time>
      </trkpt>
      <trkpt lat="43.45499" lon="1.53302">
        <ele>202</ele>
        <time>2012-09-09T07:32:38Z</time>
      </trkpt>
      <trkpt lat="43.45499" lon="1.53308">
        <ele>201</ele>
        <time>2012-09-09T07:32:42Z</time>
      </trkpt>
      <trkpt lat="43.45501" lon="1.53316">
        <ele>201</ele>
        <time>2012-09-09T07:32:46Z</time>
      </trkpt>
      <trkpt lat="43.45505" lon="1.53325">
        <ele>200</ele>
        <time>2012-09-09T07:32:50Z</time>
      </trkpt>
      <trkpt lat="43.45509" lon="1.53331">
        <ele>202</ele>
        <time>2012-09-09T07:32:54Z</time>
      </trkpt>
      <trkpt lat="43.45507" lon="1.53333">
        <ele>202</ele>
        <time>2012-09-09T07:32:58Z</time>
      </trkpt>
      <trkpt lat="43.45506" lon="1.53331">
        <ele>201</ele>
        <time>2012-09-09T07:33:02Z</time>
      </trkpt>
      <trkpt lat="43.45504" lon="1.53329">
        <ele>200</ele>
        <time>2012-09-09T07:33:06Z</time>
      </trkpt>
      <trkpt lat="43.45501" lon="1.53329">
        <ele>199</ele>
        <time>2012-09-09T07:33:10Z</time>
      </trkpt>
      <trkpt lat="43.45498" lon="1.53328">
        <ele>196</ele>
        <time>2012-09-09T07:33:14Z</time>
      </trkpt>
      <trkpt lat="43.45494" lon="1.53328">
        <ele>195</ele>
        <time>2012-09-09T07:33:18Z</time>
      </trkpt>
      <trkpt lat="43.45494" lon="1.53334">
        <ele>190</ele>
        <time>2012-09-09T07:33:34Z</time>
      </trkpt>
      <trkpt lat="43.45496" lon="1.53334">
        <ele>188</ele>
        <time>2012-09-09T07:33:38Z</time>
      </trkpt>
      <trkpt lat="43.45498" lon="1.53335">
        <ele>187</ele>
        <time>2012-09-09T07:33:42Z</time>
      </trkpt>
      <trkpt lat="43.45499" lon="1.53337">
        <ele>187</ele>
        <time>2012-09-09T07:33:46Z</time>
      </trkpt>
      <trkpt lat="43.45504" lon="1.53333">
        <ele>185</ele>
        <time>2012-09-09T07:34:22Z</time>
      </trkpt>
      <trkpt lat="43.45511" lon="1.53332">
        <ele>185</ele>
        <time>2012-09-09T07:34:26Z</time>
      </trkpt>
      <trkpt lat="43.45518" lon="1.53333">
        <ele>186</ele>
        <time>2012-09-09T07:34:30Z</time>
      </trkpt>
      <trkpt lat="43.45514" lon="1.53333">
        <ele>186</ele>
        <time>2012-09-09T07:34:34Z</time>
      </trkpt>
      <trkpt lat="43.45516" lon="1.53334">
        <ele>186</ele>
        <time>2012-09-09T07:34:46Z</time>
      </trkpt>
      <trkpt lat="43.4552" lon="1.53337">
        <ele>187</ele>
        <time>2012-09-09T07:34:50Z</time>
      </trkpt>
      <trkpt lat="43.45527" lon="1.53337">
        <ele>188</ele>
        <time>2012-09-09T07:34:54Z</time>
      </trkpt>
      <trkpt lat="43.45538" lon="1.53335">
        <ele>190</ele>
        <time>2012-09-09T07:34:58Z</time>
      </trkpt>
      <trkpt lat="43.45557" lon="1.53337">
        <ele>192</ele>
        <time>2012-09-09T07:35:02Z</time>
      </trkpt>
      <trkpt lat="43.45575" lon="1.53337">
        <ele>193</ele>
        <time>2012-09-09T07:35:06Z</time>
      </trkpt>
      <trkpt lat="43.45589" lon="1.53339">
        <ele>195</ele>
        <time>2012-09-09T07:35:10Z</time>
      </trkpt>
      <trkpt lat="43.45604" lon="1.53343">
        <ele>196</ele>
        <time>2012-09-09T07:35:14Z</time>
      </trkpt>
      <trkpt lat="43.45625" lon="1.53349">
        <ele>195</ele>
        <time>2012-09-09T07:35:18Z</time>
      </trkpt>
      <trkpt lat="43.45651" lon="1.53357">
        <ele>194</ele>
        <time>2012-09-09T07:35:22Z</time>
      </trkpt>
      <trkpt lat="43.45662" lon="1.53367">
        <ele>193</ele>
        <time>2012-09-09T07:35:26Z</time>
      </trkpt>
      <trkpt lat="43.45668" lon="1.53382">
        <ele>192</ele>
        <time>2012-09-09T07:35:30Z</time>
      </trkpt>
      <trkpt lat="43.45673" lon="1.53397">
        <ele>194</ele>
        <time>2012-09-09T07:35:34Z</time>
      </trkpt>
      <trkpt lat="43.45675" lon="1.53415">
        <ele>194</ele>
        <time>2012-09-09T07:35:38Z</time>
      </trkpt>
      <trkpt lat="43.45672" lon="1.53435">
        <ele>195</ele>
        <time>2012-09-09T07:35:42Z</time>
      </trkpt>
      <trkpt lat="43.45667" lon="1.53454">
        <ele>196</ele>
        <time>2012-09-09T07:35:46Z</time>
      </trkpt>
      <trkpt lat="43.45662" lon="1.53475">
        <ele>194</ele>
        <time>2012-09-09T07:35:50Z</time>
      </trkpt>
      <trkpt lat="43.45658" lon="1.53498">
        <ele>196</ele>
        <time>2012-09-09T07:35:54Z</time>
      </trkpt>
      <trkpt lat="43.45655" lon="1.53521">
        <ele>197</ele>
        <time>2012-09-09T07:35:58Z</time>
      </trkpt>
      <trkpt lat="43.45658" lon="1.53546">
        <ele>200</ele>
        <time>2012-09-09T07:36:02Z</time>
      </trkpt>
      <trkpt lat="43.45649" lon="1.53571">
        <ele>202</ele>
        <time>2012-09-09T07:36:06Z</time>
      </trkpt>
      <trkpt lat="43.4564" lon="1.53594">
        <ele>203</ele>
        <time>2012-09-09T07:36:10Z</time>
      </trkpt>
      <trkpt lat="43.45634" lon="1.53614">
        <ele>203</ele>
        <time>2012-09-09T07:36:14Z</time>
      </trkpt>
      <trkpt lat="43.45629" lon="1.53635">
        <ele>204</ele>
        <time>2012-09-09T07:36:18Z</time>
      </trkpt>
      <trkpt lat="43.45623" lon="1.53654">
        <ele>204</ele>
        <time>2012-09-09T07:36:22Z</time>
      </trkpt>
      <trkpt lat="43.45617" lon="1.53671">
        <ele>206</ele>
        <time>2012-09-09T07:36:26Z</time>
      </trkpt>
      <trkpt lat="43.45612" lon="1.5369">
        <ele>205</ele>
        <time>2012-09-09T07:36:30Z</time>
      </trkpt>
      <trkpt lat="43.45607" lon="1.53708">
        <ele>207</ele>
        <time>2012-09-09T07:36:34Z</time>
      </trkpt>
      <trkpt lat="43.45601" lon="1.53724">
        <ele>205</ele>
        <time>2012-09-09T07:36:38Z</time>
      </trkpt>
      <trkpt lat="43.45594" lon="1.53743">
        <ele>206</ele>
        <time>2012-09-09T07:36:42Z</time>
      </trkpt>
      <trkpt lat="43.45587" lon="1.53763">
        <ele>209</ele>
        <time>2012-09-09T07:36:46Z</time>
      </trkpt>
      <trkpt lat="43.45581" lon="1.53781">
        <ele>210</ele>
        <time>2012-09-09T07:36:50Z</time>
      </trkpt>
      <trkpt lat="43.45576" lon="1.53797">
        <ele>211</ele>
        <time>2012-09-09T07:36:54Z</time>
      </trkpt>
      <trkpt lat="43.45572" lon="1.53818">
        <ele>211</ele>
        <time>2012-09-09T07:36:58Z</time>
      </trkpt>
      <trkpt lat="43.45567" lon="1.53836">
        <ele>211</ele>
        <time>2012-09-09T07:37:02Z</time>
      </trkpt>
      <trkpt lat="43.45562" lon="1.5385">
        <ele>212</ele>
        <time>2012-09-09T07:37:06Z</time>
      </trkpt>
      <trkpt lat="43.45556" lon="1.53864">
        <ele>213</ele>
        <time>2012-09-09T07:37:10Z</time>
      </trkpt>
      <trkpt lat="43.4555" lon="1.53879">
        <ele>213</ele>
        <time>2012-09-09T07:37:14Z</time>
      </trkpt>
      <trkpt lat="43.45546" lon="1.53896">
        <ele>212</ele>
        <time>2012-09-09T07:37:18Z</time>
      </trkpt>
      <trkpt lat="43.45542" lon="1.53914">
        <ele>212</ele>
        <time>2012-09-09T07:37:22Z</time>
      </trkpt>
      <trkpt lat="43.45536" lon="1.5393">
        <ele>213</ele>
        <time>2012-09-09T07:37:26Z</time>
      </trkpt>
      <trkpt lat="43.45531" lon="1.53946">
        <ele>213</ele>
        <time>2012-09-09T07:37:30Z</time>
      </trkpt>
      <trkpt lat="43.45527" lon="1.53962">
        <ele>213</ele>
        <time>2012-09-09T07:37:34Z</time>
      </trkpt>
      <trkpt lat="43.45522" lon="1.53978">
        <ele>215</ele>
        <time>2012-09-09T07:37:38Z</time>
      </trkpt>
      <trkpt lat="43.45518" lon="1.53994">
        <ele>217</ele>
        <time>2012-09-09T07:37:42Z</time>
      </trkpt>
      <trkpt lat="43.45515" lon="1.54011">
        <ele>219</ele>
        <time>2012-09-09T07:37:46Z</time>
      </trkpt>
      <trkpt lat="43.45511" lon="1.54022">
        <ele>221</ele>
        <time>2012-09-09T07:37:50Z</time>
      </trkpt>
      <trkpt lat="43.45507" lon="1.54035">
        <ele>221</ele>
        <time>2012-09-09T07:37:54Z</time>
      </trkpt>
      <trkpt lat="43.45504" lon="1.54046">
        <ele>221</ele>
        <time>2012-09-09T07:37:58Z</time>
      </trkpt>
      <trkpt lat="43.455" lon="1.54057">
        <ele>223</ele>
        <time>2012-09-09T07:38:02Z</time>
      </trkpt>
      <trkpt lat="43.45496" lon="1.54066">
        <ele>221</ele>
        <time>2012-09-09T07:38:06Z</time>
      </trkpt>
      <trkpt lat="43.4549" lon="1.54076">
        <ele>219</ele>
        <time>2012-09-09T07:38:10Z</time>
      </trkpt>
      <trkpt lat="43.45484" lon="1.54083">
        <ele>218</ele>
        <time>2012-09-09T07:38:14Z</time>
      </trkpt>
      <trkpt lat="43.4548" lon="1.54092">
        <ele>218</ele>
        <time>2012-09-09T07:38:18Z</time>
      </trkpt>
      <trkpt lat="43.45477" lon="1.54104">
        <ele>218</ele>
        <time>2012-09-09T07:38:22Z</time>
      </trkpt>
      <trkpt lat="43.45474" lon="1.54115">
        <ele>219</ele>
        <time>2012-09-09T07:38:26Z</time>
      </trkpt>
      <trkpt lat="43.4547" lon="1.54127">
        <ele>219</ele>
        <time>2012-09-09T07:38:30Z</time>
      </trkpt>
      <trkpt lat="43.45466" lon="1.54139">
        <ele>220</ele>
        <time>2012-09-09T07:38:34Z</time>
      </trkpt>
      <trkpt lat="43.45462" lon="1.54151">
        <ele>222</ele>
        <time>2012-09-09T07:38:38Z</time>
      </trkpt>
      <trkpt lat="43.45458" lon="1.54164">
        <ele>223</ele>
        <time>2012-09-09T07:38:42Z</time>
      </trkpt>
      <trkpt lat="43.45453" lon="1.54176">
        <ele>225</ele>
        <time>2012-09-09T07:38:46Z</time>
      </trkpt>
      <trkpt lat="43.45449" lon="1.54188">
        <ele>227</ele>
        <time>2012-09-09T07:38:50Z</time>
      </trkpt>
      <trkpt lat="43.45446" lon="1.54201">
        <ele>228</ele>
        <time>2012-09-09T07:38:54Z</time>
      </trkpt>
      <trkpt lat="43.45443" lon="1.54216">
        <ele>231</ele>
        <time>2012-09-09T07:38:58Z</time>
      </trkpt>
      <trkpt lat="43.45439" lon="1.5423">
        <ele>232</ele>
        <time>2012-09-09T07:39:02Z</time>
      </trkpt>
      <trkpt lat="43.45435" lon="1.54244">
        <ele>233</ele>
        <time>2012-09-09T07:39:06Z</time>
      </trkpt>
      <trkpt lat="43.45432" lon="1.5426">
        <ele>234</ele>
        <time>2012-09-09T07:39:10Z</time>
      </trkpt>
      <trkpt lat="43.45427" lon="1.54277">
        <ele>235</ele>
        <time>2012-09-09T07:39:14Z</time>
      </trkpt>
      <trkpt lat="43.45423" lon="1.54291">
        <ele>237</ele>
        <time>2012-09-09T07:39:18Z</time>
      </trkpt>
      <trkpt lat="43.45432" lon="1.54296">
        <ele>241</ele>
        <time>2012-09-09T07:39:22Z</time>
      </trkpt>
      <trkpt lat="43.45447" lon="1.54299">
        <ele>244</ele>
        <time>2012-09-09T07:39:26Z</time>
      </trkpt>
      <trkpt lat="43.45461" lon="1.54303">
        <ele>245</ele>
        <time>2012-09-09T07:39:30Z</time>
      </trkpt>
      <trkpt lat="43.45474" lon="1.54308">
        <ele>245</ele>
        <time>2012-09-09T07:39:34Z</time>
      </trkpt>
      <trkpt lat="43.45487" lon="1.54312">
        <ele>246</ele>
        <time>2012-09-09T07:39:38Z</time>
      </trkpt>
      <trkpt lat="43.45498" lon="1.54318">
        <ele>246</ele>
        <time>2012-09-09T07:39:42Z</time>
      </trkpt>
      <trkpt lat="43.4551" lon="1.54322">
        <ele>246</ele>
        <time>2012-09-09T07:39:46Z</time>
      </trkpt>
      <trkpt lat="43.45524" lon="1.54325">
        <ele>247</ele>
        <time>2012-09-09T07:39:50Z</time>
      </trkpt>
      <trkpt lat="43.45537" lon="1.54329">
        <ele>248</ele>
        <time>2012-09-09T07:39:54Z</time>
      </trkpt>
      <trkpt lat="43.45551" lon="1.54333">
        <ele>249</ele>
        <time>2012-09-09T07:39:58Z</time>
      </trkpt>
      <trkpt lat="43.45565" lon="1.54336">
        <ele>253</ele>
        <time>2012-09-09T07:40:02Z</time>
      </trkpt>
      <trkpt lat="43.45578" lon="1.54341">
        <ele>252</ele>
        <time>2012-09-09T07:40:06Z</time>
      </trkpt>
      <trkpt lat="43.45589" lon="1.54345">
        <ele>252</ele>
        <time>2012-09-09T07:40:10Z</time>
      </trkpt>
      <trkpt lat="43.45599" lon="1.54345">
        <ele>252</ele>
        <time>2012-09-09T07:40:14Z</time>
      </trkpt>
      <trkpt lat="43.45608" lon="1.54342">
        <ele>253</ele>
        <time>2012-09-09T07:40:18Z</time>
      </trkpt>
      <trkpt lat="43.45614" lon="1.54341">
        <ele>252</ele>
        <time>2012-09-09T07:40:22Z</time>
      </trkpt>
      <trkpt lat="43.45616" lon="1.5434">
        <ele>251</ele>
        <time>2012-09-09T07:40:26Z</time>
      </trkpt>
      <trkpt lat="43.45612" lon="1.54339">
        <ele>249</ele>
        <time>2012-09-09T07:40:30Z</time>
      </trkpt>
      <trkpt lat="43.45609" lon="1.5434">
        <ele>252</ele>
        <time>2012-09-09T07:40:34Z</time>
      </trkpt>
      <trkpt lat="43.45609" lon="1.54337">
        <ele>247</ele>
        <time>2012-09-09T07:42:26Z</time>
      </trkpt>
      <trkpt lat="43.45609" lon="1.54336">
        <ele>247</ele>
        <time>2012-09-09T07:42:30Z</time>
      </trkpt>
      <trkpt lat="43.45609" lon="1.54336">
        <ele>247</ele>
        <time>2012-09-09T07:42:34Z</time>
      </trkpt>
      <trkpt lat="43.45607" lon="1.54338">
        <ele>245</ele>
        <time>2012-09-09T07:42:38Z</time>
      </trkpt>
      <trkpt lat="43.45605" lon="1.5434">
        <ele>245</ele>
        <time>2012-09-09T07:42:42Z</time>
      </trkpt>
      <trkpt lat="43.45605" lon="1.54341">
        <ele>245</ele>
        <time>2012-09-09T07:42:46Z</time>
      </trkpt>
      <trkpt lat="43.45607" lon="1.5434">
        <ele>244</ele>
        <time>2012-09-09T07:43:10Z</time>
      </trkpt>
      <trkpt lat="43.45608" lon="1.54339">
        <ele>243</ele>
        <time>2012-09-09T07:43:42Z</time>
      </trkpt>
      <trkpt lat="43.45608" lon="1.54338">
        <ele>241</ele>
        <time>2012-09-09T07:43:46Z</time>
      </trkpt>
      <trkpt lat="43.45608" lon="1.54343">
        <ele>245</ele>
        <time>2012-09-09T07:43:54Z</time>
      </trkpt>
      <trkpt lat="43.45609" lon="1.54345">
        <ele>247</ele>
        <time>2012-09-09T07:43:58Z</time>
      </trkpt>
      <trkpt lat="43.45612" lon="1.54346">
        <ele>247</ele>
        <time>2012-09-09T07:44:02Z</time>
      </trkpt>
      <trkpt lat="43.4561" lon="1.54342">
        <ele>247</ele>
        <time>2012-09-09T07:44:22Z</time>
      </trkpt>
      <trkpt lat="43.45617" lon="1.54343">
        <ele>248</ele>
        <time>2012-09-09T07:44:26Z</time>
      </trkpt>
      <trkpt lat="43.45632" lon="1.54341">
        <ele>248</ele>
        <time>2012-09-09T07:44:30Z</time>
      </trkpt>
      <trkpt lat="43.45676" lon="1.54351">
        <ele>251</ele>
        <time>2012-09-09T07:44:34Z</time>
      </trkpt>
      <trkpt lat="43.45702" lon="1.54362">
        <ele>249</ele>
        <time>2012-09-09T07:44:38Z</time>
      </trkpt>
      <trkpt lat="43.45741" lon="1.54368">
        <ele>248</ele>
        <time>2012-09-09T07:44:42Z</time>
      </trkpt>
      <trkpt lat="43.45778" lon="1.5438">
        <ele>246</ele>
        <time>2012-09-09T07:44:46Z</time>
      </trkpt>
      <trkpt lat="43.45802" lon="1.54392">
        <ele>245</ele>
        <time>2012-09-09T07:44:50Z</time>
      </trkpt>
      <trkpt lat="43.45811" lon="1.54428">
        <ele>244</ele>
        <time>2012-09-09T07:44:54Z</time>
      </trkpt>
      <trkpt lat="43.45818" lon="1.54473">
        <ele>244</ele>
        <time>2012-09-09T07:44:58Z</time>
      </trkpt>
      <trkpt lat="43.45818" lon="1.54525">
        <ele>240</ele>
        <time>2012-09-09T07:45:02Z</time>
      </trkpt>
      <trkpt lat="43.45818" lon="1.54573">
        <ele>234</ele>
        <time>2012-09-09T07:45:06Z</time>
      </trkpt>
      <trkpt lat="43.45824" lon="1.5461">
        <ele>233</ele>
        <time>2012-09-09T07:45:10Z</time>
      </trkpt>
      <trkpt lat="43.45823" lon="1.54637">
        <ele>232</ele>
        <time>2012-09-09T07:45:14Z</time>
      </trkpt>
      <trkpt lat="43.45822" lon="1.54677">
        <ele>231</ele>
        <time>2012-09-09T07:45:18Z</time>
      </trkpt>
      <trkpt lat="43.45826" lon="1.54731">
        <ele>227</ele>
        <time>2012-09-09T07:45:22Z</time>
      </trkpt>
      <trkpt lat="43.45825" lon="1.54783">
        <ele>218</ele>
        <time>2012-09-09T07:45:26Z</time>
      </trkpt>
      <trkpt lat="43.45817" lon="1.54819">
        <ele>216</ele>
        <time>2012-09-09T07:45:30Z</time>
      </trkpt>
      <trkpt lat="43.45807" lon="1.54867">
        <ele>213</ele>
        <time>2012-09-09T07:45:34Z</time>
      </trkpt>
      <trkpt lat="43.45799" lon="1.54913">
        <ele>210</ele>
        <time>2012-09-09T07:45:38Z</time>
      </trkpt>
      <trkpt lat="43.45792" lon="1.54953">
        <ele>207</ele>
        <time>2012-09-09T07:45:42Z</time>
      </trkpt>
      <trkpt lat="43.4579" lon="1.54997">
        <ele>204</ele>
        <time>2012-09-09T07:45:46Z</time>
      </trkpt>
      <trkpt lat="43.458" lon="1.55042">
        <ele>204</ele>
        <time>2012-09-09T07:45:50Z</time>
      </trkpt>
      <trkpt lat="43.45812" lon="1.55085">
        <ele>203</ele>
        <time>2012-09-09T07:45:54Z</time>
      </trkpt>
      <trkpt lat="43.45828" lon="1.55125">
        <ele>203</ele>
        <time>2012-09-09T07:45:58Z</time>
      </trkpt>
      <trkpt lat="43.45844" lon="1.55163">
        <ele>203</ele>
        <time>2012-09-09T07:46:02Z</time>
      </trkpt>
      <trkpt lat="43.45867" lon="1.55193">
        <ele>202</ele>
        <time>2012-09-09T07:46:06Z</time>
      </trkpt>
      <trkpt lat="43.45887" lon="1.55217">
        <ele>201</ele>
        <time>2012-09-09T07:46:10Z</time>
      </trkpt>
      <trkpt lat="43.459" lon="1.55244">
        <ele>199</ele>
        <time>2012-09-09T07:46:14Z</time>
      </trkpt>
      <trkpt lat="43.45926" lon="1.55283">
        <ele>195</ele>
        <time>2012-09-09T07:46:18Z</time>
      </trkpt>
      <trkpt lat="43.45946" lon="1.55343">
        <ele>187</ele>
        <time>2012-09-09T07:46:22Z</time>
      </trkpt>
      <trkpt lat="43.45928" lon="1.55385">
        <ele>182</ele>
        <time>2012-09-09T07:46:26Z</time>
      </trkpt>
      <trkpt lat="43.45911" lon="1.55429">
        <ele>180</ele>
        <time>2012-09-09T07:46:30Z</time>
      </trkpt>
      <trkpt lat="43.45923" lon="1.55468">
        <ele>181</ele>
        <time>2012-09-09T07:46:34Z</time>
      </trkpt>
      <trkpt lat="43.45933" lon="1.55506">
        <ele>179</ele>
        <time>2012-09-09T07:46:38Z</time>
      </trkpt>
      <trkpt lat="43.45934" lon="1.55542">
        <ele>177</ele>
        <time>2012-09-09T07:46:42Z</time>
      </trkpt>
      <trkpt lat="43.45945" lon="1.5557">
        <ele>177</ele>
        <time>2012-09-09T07:46:46Z</time>
      </trkpt>
      <trkpt lat="43.45958" lon="1.55603">
        <ele>174</ele>
        <time>2012-09-09T07:46:50Z</time>
      </trkpt>
      <trkpt lat="43.45971" lon="1.5564">
        <ele>174</ele>
        <time>2012-09-09T07:46:54Z</time>
      </trkpt>
      <trkpt lat="43.45979" lon="1.5568">
        <ele>171</ele>
        <time>2012-09-09T07:46:58Z</time>
      </trkpt>
      <trkpt lat="43.45986" lon="1.5572">
        <ele>170</ele>
        <time>2012-09-09T07:47:02Z</time>
      </trkpt>
      <trkpt lat="43.45993" lon="1.55757">
        <ele>170</ele>
        <time>2012-09-09T07:47:06Z</time>
      </trkpt>
      <trkpt lat="43.45995" lon="1.55794">
        <ele>169</ele>
        <time>2012-09-09T07:47:10Z</time>
      </trkpt>
      <trkpt lat="43.4599" lon="1.55817">
        <ele>167</ele>
        <time>2012-09-09T07:47:14Z</time>
      </trkpt>
      <trkpt lat="43.45986" lon="1.55829">
        <ele>167</ele>
        <time>2012-09-09T07:47:18Z</time>
      </trkpt>
      <trkpt lat="43.45981" lon="1.55843">
        <ele>168</ele>
        <time>2012-09-09T07:47:22Z</time>
      </trkpt>
      <trkpt lat="43.45974" lon="1.55857">
        <ele>168</ele>
        <time>2012-09-09T07:47:26Z</time>
      </trkpt>
      <trkpt lat="43.45967" lon="1.55872">
        <ele>167</ele>
        <time>2012-09-09T07:47:30Z</time>
      </trkpt>
      <trkpt lat="43.4596" lon="1.55888">
        <ele>168</ele>
        <time>2012-09-09T07:47:34Z</time>
      </trkpt>
      <trkpt lat="43.45953" lon="1.55902">
        <ele>168</ele>
        <time>2012-09-09T07:47:38Z</time>
      </trkpt>
      <trkpt lat="43.45947" lon="1.55918">
        <ele>167</ele>
        <time>2012-09-09T07:47:42Z</time>
      </trkpt>
      <trkpt lat="43.4594" lon="1.55935">
        <ele>168</ele>
        <time>2012-09-09T07:47:46Z</time>
      </trkpt>
      <trkpt lat="43.45935" lon="1.55953">
        <ele>168</ele>
        <time>2012-09-09T07:47:50Z</time>
      </trkpt>
      <trkpt lat="43.45931" lon="1.5597">
        <ele>169</ele>
        <time>2012-09-09T07:47:54Z</time>
      </trkpt>
      <trkpt lat="43.45927" lon="1.55985">
        <ele>163</ele>
        <time>2012-09-09T07:47:58Z</time>
      </trkpt>
      <trkpt lat="43.45924" lon="1.56002">
        <ele>164</ele>
        <time>2012-09-09T07:48:02Z</time>
      </trkpt>
      <trkpt lat="43.45922" lon="1.56018">
        <ele>166</ele>
        <time>2012-09-09T07:48:06Z</time>
      </trkpt>
      <trkpt lat="43.4592" lon="1.56032">
        <ele>167</ele>
        <time>2012-09-09T07:48:10Z</time>
      </trkpt>
      <trkpt lat="43.45915" lon="1.56046">
        <ele>168</ele>
        <time>2012-09-09T07:48:14Z</time>
      </trkpt>
      <trkpt lat="43.4591" lon="1.5606">
        <ele>169</ele>
        <time>2012-09-09T07:48:18Z</time>
      </trkpt>
      <trkpt lat="43.45904" lon="1.56072">
        <ele>171</ele>
        <time>2012-09-09T07:48:22Z</time>
      </trkpt>
      <trkpt lat="43.45899" lon="1.56086">
        <ele>172</ele>
        <time>2012-09-09T07:48:26Z</time>
      </trkpt>
      <trkpt lat="43.45892" lon="1.56098">
        <ele>171</ele>
        <time>2012-09-09T07:48:30Z</time>
      </trkpt>
      <trkpt lat="43.45884" lon="1.5611">
        <ele>170</ele>
        <time>2012-09-09T07:48:34Z</time>
      </trkpt>
      <trkpt lat="43.45877" lon="1.56122">
        <ele>171</ele>
        <time>2012-09-09T07:48:38Z</time>
      </trkpt>
      <trkpt lat="43.4587" lon="1.56133">
        <ele>171</ele>
        <time>2012-09-09T07:48:42Z</time>
      </trkpt>
      <trkpt lat="43.45867" lon="1.56148">
        <ele>172</ele>
        <time>2012-09-09T07:48:46Z</time>
      </trkpt>
      <trkpt lat="43.45862" lon="1.56164">
        <ele>172</ele>
        <time>2012-09-09T07:48:50Z</time>
      </trkpt>
      <trkpt lat="43.45858" lon="1.5618">
        <ele>172</ele>
        <time>2012-09-09T07:48:54Z</time>
      </trkpt>
      <trkpt lat="43.45854" lon="1.56195">
        <ele>173</ele>
        <time>2012-09-09T07:48:58Z</time>
      </trkpt>
      <trkpt lat="43.4585" lon="1.56208">
        <ele>173</ele>
        <time>2012-09-09T07:49:02Z</time>
      </trkpt>
      <trkpt lat="43.45844" lon="1.56224">
        <ele>173</ele>
        <time>2012-09-09T07:49:06Z</time>
      </trkpt>
      <trkpt lat="43.45838" lon="1.56231">
        <ele>172</ele>
        <time>2012-09-09T07:49:10Z</time>
      </trkpt>
      <trkpt lat="43.45837" lon="1.56235">
        <ele>173</ele>
        <time>2012-09-09T07:49:14Z</time>
      </trkpt>
      <trkpt lat="43.45838" lon="1.56234">
        <ele>177</ele>
        <time>2012-09-09T07:49:18Z</time>
      </trkpt>
      <trkpt lat="43.45834" lon="1.56218">
        <ele>177</ele>
        <time>2012-09-09T07:49:22Z</time>
      </trkpt>
      <trkpt lat="43.45832" lon="1.56217">
        <ele>183</ele>
        <time>2012-09-09T07:49:26Z</time>
      </trkpt>
      <trkpt lat="43.45832" lon="1.5622">
        <ele>181</ele>
        <time>2012-09-09T07:49:34Z</time>
      </trkpt>
      <trkpt lat="43.45833" lon="1.5622">
        <ele>180</ele>
        <time>2012-09-09T07:49:38Z</time>
      </trkpt>
      <trkpt lat="43.45832" lon="1.5622">
        <ele>182</ele>
        <time>2012-09-09T07:49:42Z</time>
      </trkpt>
      <trkpt lat="43.45834" lon="1.56222">
        <ele>183</ele>
        <time>2012-09-09T07:49:46Z</time>
      </trkpt>
      <trkpt lat="43.45835" lon="1.56224">
        <ele>184</ele>
        <time>2012-09-09T07:49:50Z</time>
      </trkpt>
      <trkpt lat="43.45834" lon="1.56221">
        <ele>190</ele>
        <time>2012-09-09T07:50:10Z</time>
      </trkpt>
      <trkpt lat="43.45834" lon="1.56221">
        <ele>193</ele>
        <time>2012-09-09T07:50:14Z</time>
      </trkpt>
      <trkpt lat="43.45835" lon="1.56236">
        <ele>188</ele>
        <time>2012-09-09T07:53:18Z</time>
      </trkpt>
      <trkpt lat="43.45833" lon="1.56251">
        <ele>186</ele>
        <time>2012-09-09T07:53:22Z</time>
      </trkpt>
      <trkpt lat="43.45833" lon="1.56264">
        <ele>184</ele>
        <time>2012-09-09T07:53:26Z</time>
      </trkpt>
      <trkpt lat="43.45832" lon="1.56279">
        <ele>184</ele>
        <time>2012-09-09T07:53:30Z</time>
      </trkpt>
      <trkpt lat="43.4583" lon="1.56299">
        <ele>184</ele>
        <time>2012-09-09T07:53:34Z</time>
      </trkpt>
      <trkpt lat="43.45829" lon="1.56319">
        <ele>183</ele>
        <time>2012-09-09T07:53:38Z</time>
      </trkpt>
      <trkpt lat="43.45828" lon="1.56339">
        <ele>183</ele>
        <time>2012-09-09T07:53:42Z</time>
      </trkpt>
      <trkpt lat="43.45823" lon="1.56356">
        <ele>184</ele>
        <time>2012-09-09T07:53:46Z</time>
      </trkpt>
      <trkpt lat="43.45813" lon="1.56368">
        <ele>187</ele>
        <time>2012-09-09T07:53:50Z</time>
      </trkpt>
      <trkpt lat="43.45802" lon="1.56378">
        <ele>188</ele>
        <time>2012-09-09T07:53:54Z</time>
      </trkpt>
      <trkpt lat="43.4579" lon="1.5639">
        <ele>188</ele>
        <time>2012-09-09T07:53:58Z</time>
      </trkpt>
      <trkpt lat="43.45779" lon="1.56403">
        <ele>189</ele>
        <time>2012-09-09T07:54:02Z</time>
      </trkpt>
      <trkpt lat="43.45769" lon="1.56415">
        <ele>189</ele>
        <time>2012-09-09T07:54:06Z</time>
      </trkpt>
      <trkpt lat="43.4576" lon="1.56426">
        <ele>189</ele>
        <time>2012-09-09T07:54:10Z</time>
      </trkpt>
      <trkpt lat="43.45752" lon="1.56438">
        <ele>188</ele>
        <time>2012-09-09T07:54:14Z</time>
      </trkpt>
      <trkpt lat="43.45744" lon="1.56449">
        <ele>188</ele>
        <time>2012-09-09T07:54:18Z</time>
      </trkpt>
      <trkpt lat="43.45735" lon="1.56458">
        <ele>189</ele>
        <time>2012-09-09T07:54:22Z</time>
      </trkpt>
      <trkpt lat="43.45726" lon="1.56466">
        <ele>188</ele>
        <time>2012-09-09T07:54:26Z</time>
      </trkpt>
      <trkpt lat="43.45717" lon="1.56474">
        <ele>188</ele>
        <time>2012-09-09T07:54:30Z</time>
      </trkpt>
      <trkpt lat="43.45706" lon="1.56486">
        <ele>191</ele>
        <time>2012-09-09T07:54:34Z</time>
      </trkpt>
      <trkpt lat="43.45696" lon="1.56498">
        <ele>190</ele>
        <time>2012-09-09T07:54:38Z</time>
      </trkpt>
      <trkpt lat="43.45687" lon="1.56507">
        <ele>189</ele>
        <time>2012-09-09T07:54:42Z</time>
      </trkpt>
      <trkpt lat="43.45677" lon="1.56516">
        <ele>189</ele>
        <time>2012-09-09T07:54:46Z</time>
      </trkpt>
      <trkpt lat="43.45668" lon="1.56526">
        <ele>192</ele>
        <time>2012-09-09T07:54:50Z</time>
      </trkpt>
      <trkpt lat="43.45659" lon="1.56536">
        <ele>194</ele>
        <time>2012-09-09T07:54:54Z</time>
      </trkpt>
      <trkpt lat="43.45651" lon="1.56545">
        <ele>193</ele>
        <time>2012-09-09T07:54:58Z</time>
      </trkpt>
      <trkpt lat="43.45644" lon="1.56552">
        <ele>192</ele>
        <time>2012-09-09T07:55:02Z</time>
      </trkpt>
      <trkpt lat="43.45636" lon="1.5656">
        <ele>192</ele>
        <time>2012-09-09T07:55:06Z</time>
      </trkpt>
      <trkpt lat="43.45625" lon="1.56571">
        <ele>192</ele>
        <time>2012-09-09T07:55:10Z</time>
      </trkpt>
      <trkpt lat="43.45616" lon="1.56581">
        <ele>191</ele>
        <time>2012-09-09T07:55:14Z</time>
      </trkpt>
      <trkpt lat="43.45607" lon="1.56593">
        <ele>192</ele>
        <time>2012-09-09T07:55:18Z</time>
      </trkpt>
      <trkpt lat="43.45598" lon="1.56604">
        <ele>192</ele>
        <time>2012-09-09T07:55:22Z</time>
      </trkpt>
      <trkpt lat="43.45589" lon="1.5661">
        <ele>192</ele>
        <time>2012-09-09T07:55:26Z</time>
      </trkpt>
      <trkpt lat="43.4558" lon="1.56617">
        <ele>192</ele>
        <time>2012-09-09T07:55:30Z</time>
      </trkpt>
      <trkpt lat="43.45575" lon="1.56627">
        <ele>194</ele>
        <time>2012-09-09T07:55:34Z</time>
      </trkpt>
      <trkpt lat="43.45583" lon="1.56641">
        <ele>193</ele>
        <time>2012-09-09T07:55:38Z</time>
      </trkpt>
      <trkpt lat="43.45615" lon="1.56665">
        <ele>193</ele>
        <time>2012-09-09T07:55:42Z</time>
      </trkpt>
      <trkpt lat="43.45644" lon="1.56694">
        <ele>194</ele>
        <time>2012-09-09T07:55:46Z</time>
      </trkpt>
      <trkpt lat="43.4568" lon="1.56727">
        <ele>194</ele>
        <time>2012-09-09T07:55:50Z</time>
      </trkpt>
      <trkpt lat="43.45716" lon="1.56759">
        <ele>194</ele>
        <time>2012-09-09T07:55:54Z</time>
      </trkpt>
      <trkpt lat="43.45744" lon="1.56791">
        <ele>194</ele>
        <time>2012-09-09T07:55:58Z</time>
      </trkpt>
      <trkpt lat="43.45771" lon="1.56825">
        <ele>190</ele>
        <time>2012-09-09T07:56:02Z</time>
      </trkpt>
      <trkpt lat="43.45793" lon="1.56857">
        <ele>192</ele>
        <time>2012-09-09T07:56:06Z</time>
      </trkpt>
      <trkpt lat="43.45812" lon="1.56885">
        <ele>189</ele>
        <time>2012-09-09T07:56:10Z</time>
      </trkpt>
      <trkpt lat="43.45822" lon="1.56899">
        <ele>191</ele>
        <time>2012-09-09T07:56:14Z</time>
      </trkpt>
      <trkpt lat="43.45822" lon="1.56899">
        <ele>194</ele>
        <time>2012-09-09T07:56:18Z</time>
      </trkpt>
      <trkpt lat="43.45819" lon="1.56898">
        <ele>194</ele>
        <time>2012-09-09T07:56:22Z</time>
      </trkpt>
      <trkpt lat="43.45816" lon="1.56893">
        <ele>194</ele>
        <time>2012-09-09T07:56:26Z</time>
      </trkpt>
      <trkpt lat="43.45818" lon="1.56894">
        <ele>194</ele>
        <time>2012-09-09T07:56:30Z</time>
      </trkpt>
      <trkpt lat="43.4582" lon="1.5689">
        <ele>194</ele>
        <time>2012-09-09T07:56:34Z</time>
      </trkpt>
      <trkpt lat="43.45819" lon="1.56893">
        <ele>194</ele>
        <time>2012-09-09T07:56:38Z</time>
      </trkpt>
      <trkpt lat="43.45817" lon="1.56891">
        <ele>199</ele>
        <time>2012-09-09T07:56:42Z</time>
      </trkpt>
      <trkpt lat="43.45815" lon="1.56896">
        <ele>193</ele>
        <time>2012-09-09T07:56:46Z</time>
      </trkpt>
      <trkpt lat="43.45813" lon="1.56914">
        <ele>188</ele>
        <time>2012-09-09T07:56:50Z</time>
      </trkpt>
      <trkpt lat="43.45807" lon="1.56941">
        <ele>183</ele>
        <time>2012-09-09T07:56:54Z</time>
      </trkpt>
      <trkpt lat="43.45802" lon="1.56976">
        <ele>181</ele>
        <time>2012-09-09T07:56:58Z</time>
      </trkpt>
      <trkpt lat="43.45795" lon="1.57002">
        <ele>179</ele>
        <time>2012-09-09T07:57:02Z</time>
      </trkpt>
      <trkpt lat="43.45793" lon="1.57038">
        <ele>177</ele>
        <time>2012-09-09T07:57:06Z</time>
      </trkpt>
      <trkpt lat="43.45797" lon="1.57062">
        <ele>175</ele>
        <time>2012-09-09T07:57:10Z</time>
      </trkpt>
      <trkpt lat="43.45801" lon="1.57082">
        <ele>176</ele>
        <time>2012-09-09T07:57:14Z</time>
      </trkpt>
      <trkpt lat="43.45821" lon="1.57111">
        <ele>173</ele>
        <time>2012-09-09T07:57:18Z</time>
      </trkpt>
      <trkpt lat="43.45836" lon="1.57127">
        <ele>174</ele>
        <time>2012-09-09T07:57:22Z</time>
      </trkpt>
      <trkpt lat="43.45853" lon="1.57135">
        <ele>172</ele>
        <time>2012-09-09T07:57:26Z</time>
      </trkpt>
      <trkpt lat="43.45875" lon="1.57148">
        <ele>173</ele>
        <time>2012-09-09T07:57:30Z</time>
      </trkpt>
      <trkpt lat="43.45892" lon="1.57166">
        <ele>174</ele>
        <time>2012-09-09T07:57:34Z</time>
      </trkpt>
      <trkpt lat="43.45906" lon="1.57196">
        <ele>176</ele>
        <time>2012-09-09T07:57:38Z</time>
      </trkpt>
      <trkpt lat="43.45924" lon="1.57221">
        <ele>177</ele>
        <time>2012-09-09T07:57:42Z</time>
      </trkpt>
      <trkpt lat="43.45937" lon="1.57244">
        <ele>177</ele>
        <time>2012-09-09T07:57:46Z</time>
      </trkpt>
      <trkpt lat="43.45937" lon="1.57248">
        <ele>178</ele>
        <time>2012-09-09T07:57:50Z</time>
      </trkpt>
      <trkpt lat="43.45938" lon="1.57253">
        <ele>179</ele>
        <time>2012-09-09T07:57:54Z</time>
      </trkpt>
      <trkpt lat="43.45939" lon="1.57254">
        <ele>180</ele>
        <time>2012-09-09T07:57:58Z</time>
      </trkpt>
      <trkpt lat="43.45944" lon="1.57253">
        <ele>180</ele>
        <time>2012-09-09T07:58:02Z</time>
      </trkpt>
      <trkpt lat="43.45957" lon="1.57248">
        <ele>179</ele>
        <time>2012-09-09T07:58:06Z</time>
      </trkpt>
      <trkpt lat="43.45963" lon="1.57243">
        <ele>180</ele>
        <time>2012-09-09T07:58:10Z</time>
      </trkpt>
      <trkpt lat="43.46005" lon="1.57222">
        <ele>183</ele>
        <time>2012-09-09T07:58:14Z</time>
      </trkpt>
      <trkpt lat="43.4604" lon="1.57199">
        <ele>184</ele>
        <time>2012-09-09T07:58:18Z</time>
      </trkpt>
      <trkpt lat="43.4608" lon="1.57166">
        <ele>187</ele>
        <time>2012-09-09T07:58:22Z</time>
      </trkpt>
      <trkpt lat="43.46129" lon="1.57136">
        <ele>186</ele>
        <time>2012-09-09T07:58:26Z</time>
      </trkpt>
      <trkpt lat="43.46171" lon="1.57104">
        <ele>182</ele>
        <time>2012-09-09T07:58:30Z</time>
      </trkpt>
      <trkpt lat="43.46214" lon="1.57076">
        <ele>181</ele>
        <time>2012-09-09T07:58:34Z</time>
      </trkpt>
      <trkpt lat="43.46243" lon="1.57035">
        <ele>177</ele>
        <time>2012-09-09T07:58:38Z</time>
      </trkpt>
      <trkpt lat="43.46272" lon="1.57025">
        <ele>175</ele>
        <time>2012-09-09T07:58:42Z</time>
      </trkpt>
      <trkpt lat="43.4629" lon="1.57054">
        <ele>169</ele>
        <time>2012-09-09T07:58:46Z</time>
      </trkpt>
      <trkpt lat="43.46305" lon="1.57039">
        <ele>169</ele>
        <time>2012-09-09T07:58:50Z</time>
      </trkpt>
      <trkpt lat="43.46321" lon="1.57027">
        <ele>168</ele>
        <time>2012-09-09T07:58:54Z</time>
      </trkpt>
      <trkpt lat="43.4633" lon="1.57029">
        <ele>164</ele>
        <time>2012-09-09T07:58:58Z</time>
      </trkpt>
      <trkpt lat="43.46335" lon="1.57034">
        <ele>163</ele>
        <time>2012-09-09T07:59:02Z</time>
      </trkpt>
      <trkpt lat="43.4633" lon="1.57044">
        <ele>160</ele>
        <time>2012-09-09T07:59:06Z</time>
      </trkpt>
      <trkpt lat="43.46316" lon="1.57056">
        <ele>160</ele>
        <time>2012-09-09T07:59:10Z</time>
      </trkpt>
      <trkpt lat="43.46301" lon="1.57071">
        <ele>155</ele>
        <time>2012-09-09T07:59:14Z</time>
      </trkpt>
      <trkpt lat="43.46296" lon="1.57084">
        <ele>155</ele>
        <time>2012-09-09T07:59:18Z</time>
      </trkpt>
      <trkpt lat="43.46307" lon="1.57088">
        <ele>156</ele>
        <time>2012-09-09T07:59:22Z</time>
      </trkpt>
      <trkpt lat="43.46308" lon="1.57081">
        <ele>157</ele>
        <time>2012-09-09T07:59:30Z</time>
      </trkpt>
      <trkpt lat="43.46309" lon="1.57079">
        <ele>157</ele>
        <time>2012-09-09T07:59:38Z</time>
      </trkpt>
      <trkpt lat="43.46308" lon="1.5708">
        <ele>157</ele>
        <time>2012-09-09T07:59:42Z</time>
      </trkpt>
      <trkpt lat="43.46309" lon="1.57081">
        <ele>159</ele>
        <time>2012-09-09T07:59:58Z</time>
      </trkpt>
      <trkpt lat="43.46309" lon="1.57082">
        <ele>161</ele>
        <time>2012-09-09T08:00:02Z</time>
      </trkpt>
      <trkpt lat="43.46309" lon="1.57083">
        <ele>161</ele>
        <time>2012-09-09T08:00:06Z</time>
      </trkpt>
      <trkpt lat="43.46309" lon="1.57087">
        <ele>159</ele>
        <time>2012-09-09T08:00:10Z</time>
      </trkpt>
      <trkpt lat="43.4631" lon="1.57085">
        <ele>161</ele>
        <time>2012-09-09T08:00:14Z</time>
      </trkpt>
      <trkpt lat="43.46313" lon="1.57081">
        <ele>162</ele>
        <time>2012-09-09T08:00:18Z</time>
      </trkpt>
      <trkpt lat="43.46323" lon="1.57072">
        <ele>162</ele>
        <time>2012-09-09T08:00:22Z</time>
      </trkpt>
      <trkpt lat="43.4634" lon="1.57058">
        <ele>164</ele>
        <time>2012-09-09T08:00:26Z</time>
      </trkpt>
      <trkpt lat="43.46359" lon="1.57041">
        <ele>164</ele>
        <time>2012-09-09T08:00:30Z</time>
      </trkpt>
      <trkpt lat="43.46378" lon="1.57023">
        <ele>163</ele>
        <time>2012-09-09T08:00:34Z</time>
      </trkpt>
      <trkpt lat="43.46396" lon="1.57009">
        <ele>162</ele>
        <time>2012-09-09T08:00:38Z</time>
      </trkpt>
      <trkpt lat="43.46412" lon="1.56996">
        <ele>162</ele>
        <time>2012-09-09T08:00:42Z</time>
      </trkpt>
      <trkpt lat="43.46426" lon="1.56981">
        <ele>162</ele>
        <time>2012-09-09T08:00:46Z</time>
      </trkpt>
      <trkpt lat="43.46436" lon="1.56968">
        <ele>161</ele>
        <time>2012-09-09T08:00:50Z</time>
      </trkpt>
      <trkpt lat="43.46444" lon="1.56955">
        <ele>162</ele>
        <time>2012-09-09T08:00:54Z</time>
      </trkpt>
      <trkpt lat="43.46453" lon="1.56941">
        <ele>161</ele>
        <time>2012-09-09T08:00:58Z</time>
      </trkpt>
      <trkpt lat="43.46463" lon="1.56925">
        <ele>162</ele>
        <time>2012-09-09T08:01:02Z</time>
      </trkpt>
      <trkpt lat="43.46479" lon="1.56905">
        <ele>162</ele>
        <time>2012-09-09T08:01:06Z</time>
      </trkpt>
      <trkpt lat="43.46497" lon="1.56878">
        <ele>163</ele>
        <time>2012-09-09T08:01:10Z</time>
      </trkpt>
      <trkpt lat="43.46512" lon="1.56852">
        <ele>164</ele>
        <time>2012-09-09T08:01:14Z</time>
      </trkpt>
      <trkpt lat="43.46524" lon="1.56819">
        <ele>164</ele>
        <time>2012-09-09T08:01:18Z</time>
      </trkpt>
      <trkpt lat="43.46542" lon="1.56795">
        <ele>162</ele>
        <time>2012-09-09T08:01:22Z</time>
      </trkpt>
      <trkpt lat="43.46556" lon="1.56767">
        <ele>162</ele>
        <time>2012-09-09T08:01:26Z</time>
      </trkpt>
      <trkpt lat="43.46573" lon="1.56735">
        <ele>163</ele>
        <time>2012-09-09T08:01:30Z</time>
      </trkpt>
      <trkpt lat="43.46587" lon="1.56703">
        <ele>161</ele>
        <time>2012-09-09T08:01:34Z</time>
      </trkpt>
      <trkpt lat="43.466" lon="1.56675">
        <ele>162</ele>
        <time>2012-09-09T08:01:38Z</time>
      </trkpt>
      <trkpt lat="43.46616" lon="1.56657">
        <ele>161</ele>
        <time>2012-09-09T08:01:42Z</time>
      </trkpt>
      <trkpt lat="43.46626" lon="1.56625">
        <ele>162</ele>
        <time>2012-09-09T08:01:46Z</time>
      </trkpt>
      <trkpt lat="43.46639" lon="1.56592">
        <ele>163</ele>
        <time>2012-09-09T08:01:50Z</time>
      </trkpt>
      <trkpt lat="43.46648" lon="1.56563">
        <ele>163</ele>
        <time>2012-09-09T08:01:54Z</time>
      </trkpt>
      <trkpt lat="43.46661" lon="1.56529">
        <ele>163</ele>
        <time>2012-09-09T08:01:58Z</time>
      </trkpt>
      <trkpt lat="43.46672" lon="1.56497">
        <ele>163</ele>
        <time>2012-09-09T08:02:02Z</time>
      </trkpt>
      <trkpt lat="43.46683" lon="1.56464">
        <ele>163</ele>
        <time>2012-09-09T08:02:06Z</time>
      </trkpt>
      <trkpt lat="43.46695" lon="1.56431">
        <ele>163</ele>
        <time>2012-09-09T08:02:10Z</time>
      </trkpt>
      <trkpt lat="43.4671" lon="1.56394">
        <ele>164</ele>
        <time>2012-09-09T08:02:14Z</time>
      </trkpt>
      <trkpt lat="43.46724" lon="1.56359">
        <ele>165</ele>
        <time>2012-09-09T08:02:18Z</time>
      </trkpt>
      <trkpt lat="43.46742" lon="1.56325">
        <ele>163</ele>
        <time>2012-09-09T08:02:22Z</time>
      </trkpt>
      <trkpt lat="43.46759" lon="1.56285">
        <ele>162</ele>
        <time>2012-09-09T08:02:26Z</time>
      </trkpt>
      <trkpt lat="43.46774" lon="1.56243">
        <ele>162</ele>
        <time>2012-09-09T08:02:30Z</time>
      </trkpt>
      <trkpt lat="43.46792" lon="1.5621">
        <ele>161</ele>
        <time>2012-09-09T08:02:34Z</time>
      </trkpt>
      <trkpt lat="43.46809" lon="1.56177">
        <ele>161</ele>
        <time>2012-09-09T08:02:38Z</time>
      </trkpt>
      <trkpt lat="43.46824" lon="1.56145">
        <ele>162</ele>
        <time>2012-09-09T08:02:42Z</time>
      </trkpt>
      <trkpt lat="43.46842" lon="1.56108">
        <ele>161</ele>
        <time>2012-09-09T08:02:46Z</time>
      </trkpt>
      <trkpt lat="43.46862" lon="1.56072">
        <ele>161</ele>
        <time>2012-09-09T08:02:50Z</time>
      </trkpt>
      <trkpt lat="43.46883" lon="1.56038">
        <ele>161</ele>
        <time>2012-09-09T08:02:54Z</time>
      </trkpt>
      <trkpt lat="43.46901" lon="1.56001">
        <ele>161</ele>
        <time>2012-09-09T08:02:58Z</time>
      </trkpt>
      <trkpt lat="43.46916" lon="1.55959">
        <ele>161</ele>
        <time>2012-09-09T08:03:02Z</time>
      </trkpt>
      <trkpt lat="43.46936" lon="1.55929">
        <ele>159</ele>
        <time>2012-09-09T08:03:06Z</time>
      </trkpt>
      <trkpt lat="43.4696" lon="1.55907">
        <ele>158</ele>
        <time>2012-09-09T08:03:10Z</time>
      </trkpt>
      <trkpt lat="43.46985" lon="1.55877">
        <ele>158</ele>
        <time>2012-09-09T08:03:14Z</time>
      </trkpt>
      <trkpt lat="43.46999" lon="1.55834">
        <ele>158</ele>
        <time>2012-09-09T08:03:18Z</time>
      </trkpt>
      <trkpt lat="43.4702" lon="1.55806">
        <ele>157</ele>
        <time>2012-09-09T08:03:22Z</time>
      </trkpt>
      <trkpt lat="43.47048" lon="1.55776">
        <ele>158</ele>
        <time>2012-09-09T08:03:26Z</time>
      </trkpt>
      <trkpt lat="43.47083" lon="1.5575">
        <ele>162</ele>
        <time>2012-09-09T08:03:30Z</time>
      </trkpt>
      <trkpt lat="43.47118" lon="1.55741">
        <ele>161</ele>
        <time>2012-09-09T08:03:34Z</time>
      </trkpt>
      <trkpt lat="43.47151" lon="1.55734">
        <ele>160</ele>
        <time>2012-09-09T08:03:38Z</time>
      </trkpt>
      <trkpt lat="43.47179" lon="1.55726">
        <ele>160</ele>
        <time>2012-09-09T08:03:42Z</time>
      </trkpt>
      <trkpt lat="43.47213" lon="1.55717">
        <ele>161</ele>
        <time>2012-09-09T08:03:46Z</time>
      </trkpt>
      <trkpt lat="43.47244" lon="1.55701">
        <ele>161</ele>
        <time>2012-09-09T08:03:50Z</time>
      </trkpt>
      <trkpt lat="43.47278" lon="1.55685">
        <ele>161</ele>
        <time>2012-09-09T08:03:54Z</time>
      </trkpt>
      <trkpt lat="43.47309" lon="1.5567">
        <ele>163</ele>
        <time>2012-09-09T08:03:58Z</time>
      </trkpt>
      <trkpt lat="43.47339" lon="1.55655">
        <ele>162</ele>
        <time>2012-09-09T08:04:02Z</time>
      </trkpt>
      <trkpt lat="43.47369" lon="1.55645">
        <ele>162</ele>
        <time>2012-09-09T08:04:06Z</time>
      </trkpt>
      <trkpt lat="43.47405" lon="1.55625">
        <ele>161</ele>
        <time>2012-09-09T08:04:10Z</time>
      </trkpt>
      <trkpt lat="43.47434" lon="1.55611">
        <ele>162</ele>
        <time>2012-09-09T08:04:14Z</time>
      </trkpt>
      <trkpt lat="43.47459" lon="1.55589">
        <ele>162</ele>
        <time>2012-09-09T08:04:18Z</time>
      </trkpt>
      <trkpt lat="43.47485" lon="1.55562">
        <ele>162</ele>
        <time>2012-09-09T08:04:22Z</time>
      </trkpt>
      <trkpt lat="43.47514" lon="1.55531">
        <ele>163</ele>
        <time>2012-09-09T08:04:26Z</time>
      </trkpt>
      <trkpt lat="43.47542" lon="1.55503">
        <ele>162</ele>
        <time>2012-09-09T08:04:30Z</time>
      </trkpt>
      <trkpt lat="43.47566" lon="1.55476">
        <ele>163</ele>
        <time>2012-09-09T08:04:34Z</time>
      </trkpt>
      <trkpt lat="43.47597" lon="1.55448">
        <ele>162</ele>
        <time>2012-09-09T08:04:38Z</time>
      </trkpt>
      <trkpt lat="43.47628" lon="1.55417">
        <ele>162</ele>
        <time>2012-09-09T08:04:42Z</time>
      </trkpt>
      <trkpt lat="43.47663" lon="1.55384">
        <ele>162</ele>
        <time>2012-09-09T08:04:46Z</time>
      </trkpt>
      <trkpt lat="43.4769" lon="1.55359">
        <ele>161</ele>
        <time>2012-09-09T08:04:50Z</time>
      </trkpt>
      <trkpt lat="43.47714" lon="1.55331">
        <ele>162</ele>
        <time>2012-09-09T08:04:54Z</time>
      </trkpt>
      <trkpt lat="43.47734" lon="1.55305">
        <ele>162</ele>
        <time>2012-09-09T08:04:58Z</time>
      </trkpt>
      <trkpt lat="43.47751" lon="1.55285">
        <ele>161</ele>
        <time>2012-09-09T08:05:02Z</time>
      </trkpt>
      <trkpt lat="43.47763" lon="1.55275">
        <ele>160</ele>
        <time>2012-09-09T08:05:06Z</time>
      </trkpt>
      <trkpt lat="43.47781" lon="1.5526">
        <ele>159</ele>
        <time>2012-09-09T08:05:10Z</time>
      </trkpt>
      <trkpt lat="43.47802" lon="1.55237">
        <ele>159</ele>
        <time>2012-09-09T08:05:14Z</time>
      </trkpt>
      <trkpt lat="43.47821" lon="1.55213">
        <ele>160</ele>
        <time>2012-09-09T08:05:18Z</time>
      </trkpt>
      <trkpt lat="43.4784" lon="1.55204">
        <ele>160</ele>
        <time>2012-09-09T08:05:22Z</time>
      </trkpt>
      <trkpt lat="43.47856" lon="1.55171">
        <ele>161</ele>
        <time>2012-09-09T08:05:26Z</time>
      </trkpt>
      <trkpt lat="43.47884" lon="1.55142">
        <ele>162</ele>
        <time>2012-09-09T08:05:30Z</time>
      </trkpt>
      <trkpt lat="43.47915" lon="1.55124">
        <ele>162</ele>
        <time>2012-09-09T08:05:34Z</time>
      </trkpt>
      <trkpt lat="43.47944" lon="1.55114">
        <ele>161</ele>
        <time>2012-09-09T08:05:38Z</time>
      </trkpt>
      <trkpt lat="43.47981" lon="1.55094">
        <ele>160</ele>
        <time>2012-09-09T08:05:42Z</time>
      </trkpt>
      <trkpt lat="43.48018" lon="1.55065">
        <ele>160</ele>
        <time>2012-09-09T08:05:46Z</time>
      </trkpt>
      <trkpt lat="43.48044" lon="1.55032">
        <ele>159</ele>
        <time>2012-09-09T08:05:50Z</time>
      </trkpt>
      <trkpt lat="43.48056" lon="1.54987">
        <ele>159</ele>
        <time>2012-09-09T08:05:54Z</time>
      </trkpt>
      <trkpt lat="43.48069" lon="1.54946">
        <ele>160</ele>
        <time>2012-09-09T08:05:58Z</time>
      </trkpt>
      <trkpt lat="43.48075" lon="1.54901">
        <ele>161</ele>
        <time>2012-09-09T08:06:02Z</time>
      </trkpt>
      <trkpt lat="43.48085" lon="1.54853">
        <ele>161</ele>
        <time>2012-09-09T08:06:06Z</time>
      </trkpt>
      <trkpt lat="43.48113" lon="1.54833">
        <ele>162</ele>
        <time>2012-09-09T08:06:10Z</time>
      </trkpt>
      <trkpt lat="43.48147" lon="1.54826">
        <ele>162</ele>
        <time>2012-09-09T08:06:14Z</time>
      </trkpt>
      <trkpt lat="43.48178" lon="1.54798">
        <ele>160</ele>
        <time>2012-09-09T08:06:18Z</time>
      </trkpt>
      <trkpt lat="43.482" lon="1.5477">
        <ele>161</ele>
        <time>2012-09-09T08:06:22Z</time>
      </trkpt>
      <trkpt lat="43.48223" lon="1.54737">
        <ele>163</ele>
        <time>2012-09-09T08:06:26Z</time>
      </trkpt>
      <trkpt lat="43.4825" lon="1.54716">
        <ele>164</ele>
        <time>2012-09-09T08:06:30Z</time>
      </trkpt>
      <trkpt lat="43.48281" lon="1.54696">
        <ele>164</ele>
        <time>2012-09-09T08:06:34Z</time>
      </trkpt>
      <trkpt lat="43.48301" lon="1.54694">
        <ele>163</ele>
        <time>2012-09-09T08:06:38Z</time>
      </trkpt>
      <trkpt lat="43.4834" lon="1.54694">
        <ele>162</ele>
        <time>2012-09-09T08:06:42Z</time>
      </trkpt>
      <trkpt lat="43.48369" lon="1.547">
        <ele>162</ele>
        <time>2012-09-09T08:06:46Z</time>
      </trkpt>
      <trkpt lat="43.48401" lon="1.54698">
        <ele>161</ele>
        <time>2012-09-09T08:06:50Z</time>
      </trkpt>
      <trkpt lat="43.4844" lon="1.54682">
        <ele>165</ele>
        <time>2012-09-09T08:06:54Z</time>
      </trkpt>
      <trkpt lat="43.48467" lon="1.54668">
        <ele>162</ele>
        <time>2012-09-09T08:06:58Z</time>
      </trkpt>
      <trkpt lat="43.48494" lon="1.54659">
        <ele>160</ele>
        <time>2012-09-09T08:07:02Z</time>
      </trkpt>
      <trkpt lat="43.48521" lon="1.54652">
        <ele>162</ele>
        <time>2012-09-09T08:07:06Z</time>
      </trkpt>
      <trkpt lat="43.48548" lon="1.54647">
        <ele>161</ele>
        <time>2012-09-09T08:07:10Z</time>
      </trkpt>
      <trkpt lat="43.48573" lon="1.54645">
        <ele>160</ele>
        <time>2012-09-09T08:07:14Z</time>
      </trkpt>
      <trkpt lat="43.48599" lon="1.5464">
        <ele>159</ele>
        <time>2012-09-09T08:07:18Z</time>
      </trkpt>
      <trkpt lat="43.48628" lon="1.54631">
        <ele>159</ele>
        <time>2012-09-09T08:07:22Z</time>
      </trkpt>
      <trkpt lat="43.48655" lon="1.5462">
        <ele>157</ele>
        <time>2012-09-09T08:07:26Z</time>
      </trkpt>
      <trkpt lat="43.48681" lon="1.54605">
        <ele>158</ele>
        <time>2012-09-09T08:07:30Z</time>
      </trkpt>
      <trkpt lat="43.48704" lon="1.54584">
        <ele>158</ele>
        <time>2012-09-09T08:07:34Z</time>
      </trkpt>
      <trkpt lat="43.48728" lon="1.54558">
        <ele>157</ele>
        <time>2012-09-09T08:07:38Z</time>
      </trkpt>
      <trkpt lat="43.48748" lon="1.5453">
        <ele>158</ele>
        <time>2012-09-09T08:07:42Z</time>
      </trkpt>
      <trkpt lat="43.48771" lon="1.54499">
        <ele>160</ele>
        <time>2012-09-09T08:07:46Z</time>
      </trkpt>
      <trkpt lat="43.48793" lon="1.54462">
        <ele>159</ele>
        <time>2012-09-09T08:07:50Z</time>
      </trkpt>
      <trkpt lat="43.48816" lon="1.5443">
        <ele>159</ele>
        <time>2012-09-09T08:07:54Z</time>
      </trkpt>
      <trkpt lat="43.48838" lon="1.54404">
        <ele>158</ele>
        <time>2012-09-09T08:07:58Z</time>
      </trkpt>
      <trkpt lat="43.48862" lon="1.54368">
        <ele>160</ele>
        <time>2012-09-09T08:08:02Z</time>
      </trkpt>
      <trkpt lat="43.48887" lon="1.54336">
        <ele>160</ele>
        <time>2012-09-09T08:08:06Z</time>
      </trkpt>
      <trkpt lat="43.48909" lon="1.54309">
        <ele>160</ele>
        <time>2012-09-09T08:08:10Z</time>
      </trkpt>
      <trkpt lat="43.48928" lon="1.54275">
        <ele>158</ele>
        <time>2012-09-09T08:08:14Z</time>
      </trkpt>
      <trkpt lat="43.48945" lon="1.54232">
        <ele>158</ele>
        <time>2012-09-09T08:08:18Z</time>
      </trkpt>
      <trkpt lat="43.48954" lon="1.54193">
        <ele>159</ele>
        <time>2012-09-09T08:08:22Z</time>
      </trkpt>
      <trkpt lat="43.48964" lon="1.5415">
        <ele>159</ele>
        <time>2012-09-09T08:08:26Z</time>
      </trkpt>
      <trkpt lat="43.4897" lon="1.54105">
        <ele>159</ele>
        <time>2012-09-09T08:08:30Z</time>
      </trkpt>
      <trkpt lat="43.48973" lon="1.54053">
        <ele>159</ele>
        <time>2012-09-09T08:08:34Z</time>
      </trkpt>
      <trkpt lat="43.48979" lon="1.54008">
        <ele>158</ele>
        <time>2012-09-09T08:08:38Z</time>
      </trkpt>
      <trkpt lat="43.48982" lon="1.53975">
        <ele>155</ele>
        <time>2012-09-09T08:08:42Z</time>
      </trkpt>
      <trkpt lat="43.4898" lon="1.53936">
        <ele>156</ele>
        <time>2012-09-09T08:08:46Z</time>
      </trkpt>
      <trkpt lat="43.48972" lon="1.53885">
        <ele>155</ele>
        <time>2012-09-09T08:08:50Z</time>
      </trkpt>
      <trkpt lat="43.48968" lon="1.53844">
        <ele>154</ele>
        <time>2012-09-09T08:08:54Z</time>
      </trkpt>
      <trkpt lat="43.48964" lon="1.53801">
        <ele>153</ele>
        <time>2012-09-09T08:08:58Z</time>
      </trkpt>
      <trkpt lat="43.48959" lon="1.53751">
        <ele>151</ele>
        <time>2012-09-09T08:09:02Z</time>
      </trkpt>
      <trkpt lat="43.48959" lon="1.53702">
        <ele>155</ele>
        <time>2012-09-09T08:09:06Z</time>
      </trkpt>
      <trkpt lat="43.48974" lon="1.5367">
        <ele>158</ele>
        <time>2012-09-09T08:09:10Z</time>
      </trkpt>
      <trkpt lat="43.48995" lon="1.53643">
        <ele>160</ele>
        <time>2012-09-09T08:09:14Z</time>
      </trkpt>
      <trkpt lat="43.49028" lon="1.53633">
        <ele>159</ele>
        <time>2012-09-09T08:09:18Z</time>
      </trkpt>
      <trkpt lat="43.49057" lon="1.5363">
        <ele>159</ele>
        <time>2012-09-09T08:09:22Z</time>
      </trkpt>
      <trkpt lat="43.49098" lon="1.53634">
        <ele>158</ele>
        <time>2012-09-09T08:09:26Z</time>
      </trkpt>
      <trkpt lat="43.4913" lon="1.53646">
        <ele>160</ele>
        <time>2012-09-09T08:09:30Z</time>
      </trkpt>
      <trkpt lat="43.49159" lon="1.53655">
        <ele>158</ele>
        <time>2012-09-09T08:09:34Z</time>
      </trkpt>
      <trkpt lat="43.49182" lon="1.5366">
        <ele>159</ele>
        <time>2012-09-09T08:09:38Z</time>
      </trkpt>
      <trkpt lat="43.49208" lon="1.53665">
        <ele>159</ele>
        <time>2012-09-09T08:09:42Z</time>
      </trkpt>
      <trkpt lat="43.49242" lon="1.53663">
        <ele>159</ele>
        <time>2012-09-09T08:09:46Z</time>
      </trkpt>
      <trkpt lat="43.49277" lon="1.53662">
        <ele>160</ele>
        <time>2012-09-09T08:09:50Z</time>
      </trkpt>
      <trkpt lat="43.49306" lon="1.53662">
        <ele>160</ele>
        <time>2012-09-09T08:09:54Z</time>
      </trkpt>
      <trkpt lat="43.49334" lon="1.53663">
        <ele>160</ele>
        <time>2012-09-09T08:09:58Z</time>
      </trkpt>
      <trkpt lat="43.49367" lon="1.53658">
        <ele>160</ele>
        <time>2012-09-09T08:10:02Z</time>
      </trkpt>
      <trkpt lat="43.49397" lon="1.53652">
        <ele>159</ele>
        <time>2012-09-09T08:10:06Z</time>
      </trkpt>
      <trkpt lat="43.49427" lon="1.53643">
        <ele>160</ele>
        <time>2012-09-09T08:10:10Z</time>
      </trkpt>
      <trkpt lat="43.49456" lon="1.53634">
        <ele>160</ele>
        <time>2012-09-09T08:10:14Z</time>
      </trkpt>
      <trkpt lat="43.49484" lon="1.53626">
        <ele>159</ele>
        <time>2012-09-09T08:10:18Z</time>
      </trkpt>
      <trkpt lat="43.49515" lon="1.53618">
        <ele>159</ele>
        <time>2012-09-09T08:10:22Z</time>
      </trkpt>
      <trkpt lat="43.49546" lon="1.53606">
        <ele>159</ele>
        <time>2012-09-09T08:10:26Z</time>
      </trkpt>
      <trkpt lat="43.49578" lon="1.53594">
        <ele>159</ele>
        <time>2012-09-09T08:10:30Z</time>
      </trkpt>
      <trkpt lat="43.49598" lon="1.53583">
        <ele>160</ele>
        <time>2012-09-09T08:10:34Z</time>
      </trkpt>
      <trkpt lat="43.49603" lon="1.53584">
        <ele>159</ele>
        <time>2012-09-09T08:10:38Z</time>
      </trkpt>
      <trkpt lat="43.49603" lon="1.53582">
        <ele>158</ele>
        <time>2012-09-09T08:10:42Z</time>
      </trkpt>
      <trkpt lat="43.49604" lon="1.53582">
        <ele>157</ele>
        <time>2012-09-09T08:10:46Z</time>
      </trkpt>
      <trkpt lat="43.49608" lon="1.53585">
        <ele>157</ele>
        <time>2012-09-09T08:10:50Z</time>
      </trkpt>
      <trkpt lat="43.49604" lon="1.5358">
        <ele>156</ele>
        <time>2012-09-09T08:10:54Z</time>
      </trkpt>
      <trkpt lat="43.49602" lon="1.53576">
        <ele>156</ele>
        <time>2012-09-09T08:10:58Z</time>
      </trkpt>
      <trkpt lat="43.49601" lon="1.53579">
        <ele>156</ele>
        <time>2012-09-09T08:11:02Z</time>
      </trkpt>
      <trkpt lat="43.4959" lon="1.53581">
        <ele>155</ele>
        <time>2012-09-09T08:11:06Z</time>
      </trkpt>
      <trkpt lat="43.49588" lon="1.53579">
        <ele>154</ele>
        <time>2012-09-09T08:11:10Z</time>
      </trkpt>
      <trkpt lat="43.4959" lon="1.53578">
        <ele>155</ele>
        <time>2012-09-09T08:11:14Z</time>
      </trkpt>
      <trkpt lat="43.49595" lon="1.53577">
        <ele>152</ele>
        <time>2012-09-09T08:11:22Z</time>
      </trkpt>
      <trkpt lat="43.49596" lon="1.53574">
        <ele>157</ele>
        <time>2012-09-09T08:11:26Z</time>
      </trkpt>
      <trkpt lat="43.49593" lon="1.53575">
        <ele>158</ele>
        <time>2012-09-09T08:11:30Z</time>
      </trkpt>
      <trkpt lat="43.49592" lon="1.5358">
        <ele>161</ele>
        <time>2012-09-09T08:11:34Z</time>
      </trkpt>
      <trkpt lat="43.49595" lon="1.53583">
        <ele>162</ele>
        <time>2012-09-09T08:11:38Z</time>
      </trkpt>
      <trkpt lat="43.49599" lon="1.5359">
        <ele>163</ele>
        <time>2012-09-09T08:11:42Z</time>
      </trkpt>
      <trkpt lat="43.49607" lon="1.53585">
        <ele>163</ele>
        <time>2012-09-09T08:11:50Z</time>
      </trkpt>
      <trkpt lat="43.49607" lon="1.53579">
        <ele>161</ele>
        <time>2012-09-09T08:11:54Z</time>
      </trkpt>
      <trkpt lat="43.49601" lon="1.53579">
        <ele>159</ele>
        <time>2012-09-09T08:12:06Z</time>
      </trkpt>
      <trkpt lat="43.49603" lon="1.53577">
        <ele>158</ele>
        <time>2012-09-09T08:12:10Z</time>
      </trkpt>
      <trkpt lat="43.49602" lon="1.53574">
        <ele>158</ele>
        <time>2012-09-09T08:12:18Z</time>
      </trkpt>
      <trkpt lat="43.49603" lon="1.5357">
        <ele>157</ele>
        <time>2012-09-09T08:12:22Z</time>
      </trkpt>
      <trkpt lat="43.49604" lon="1.53566">
        <ele>157</ele>
        <time>2012-09-09T08:12:26Z</time>
      </trkpt>
      <trkpt lat="43.49604" lon="1.53566">
        <ele>157</ele>
        <time>2012-09-09T08:12:30Z</time>
      </trkpt>
      <trkpt lat="43.49604" lon="1.53568">
        <ele>156</ele>
        <time>2012-09-09T08:12:34Z</time>
      </trkpt>
      <trkpt lat="43.49606" lon="1.53569">
        <ele>154</ele>
        <time>2012-09-09T08:12:38Z</time>
      </trkpt>
      <trkpt lat="43.49602" lon="1.53572">
        <ele>154</ele>
        <time>2012-09-09T08:12:42Z</time>
      </trkpt>
      <trkpt lat="43.49602" lon="1.53573">
        <ele>153</ele>
        <time>2012-09-09T08:12:46Z</time>
      </trkpt>
      <trkpt lat="43.49608" lon="1.53569">
        <ele>153</ele>
        <time>2012-09-09T08:12:50Z</time>
      </trkpt>
      <trkpt lat="43.49608" lon="1.53567">
        <ele>150</ele>
        <time>2012-09-09T08:12:54Z</time>
      </trkpt>
      <trkpt lat="43.49608" lon="1.53567">
        <ele>148</ele>
        <time>2012-09-09T08:12:58Z</time>
      </trkpt>
      <trkpt lat="43.49608" lon="1.53566">
        <ele>149</ele>
        <time>2012-09-09T08:13:02Z</time>
      </trkpt>
      <trkpt lat="43.4961" lon="1.53572">
        <ele>153</ele>
        <time>2012-09-09T08:13:10Z</time>
      </trkpt>
      <trkpt lat="43.49607" lon="1.53575">
        <ele>161</ele>
        <time>2012-09-09T08:13:26Z</time>
      </trkpt>
      <trkpt lat="43.49608" lon="1.53573">
        <ele>159</ele>
        <time>2012-09-09T08:13:46Z</time>
      </trkpt>
      <trkpt lat="43.49609" lon="1.53583">
        <ele>157</ele>
        <time>2012-09-09T08:13:54Z</time>
      </trkpt>
      <trkpt lat="43.49608" lon="1.5359">
        <ele>158</ele>
        <time>2012-09-09T08:13:58Z</time>
      </trkpt>
      <trkpt lat="43.49606" lon="1.53586">
        <ele>158</ele>
        <time>2012-09-09T08:14:06Z</time>
      </trkpt>
      <trkpt lat="43.49604" lon="1.53585">
        <ele>160</ele>
        <time>2012-09-09T08:14:10Z</time>
      </trkpt>
      <trkpt lat="43.49602" lon="1.53582">
        <ele>161</ele>
        <time>2012-09-09T08:14:14Z</time>
      </trkpt>
      <trkpt lat="43.496" lon="1.5358">
        <ele>160</ele>
        <time>2012-09-09T08:14:18Z</time>
      </trkpt>
      <trkpt lat="43.49601" lon="1.53578">
        <ele>159</ele>
        <time>2012-09-09T08:14:26Z</time>
      </trkpt>
      <trkpt lat="43.49608" lon="1.5358">
        <ele>158</ele>
        <time>2012-09-09T08:14:34Z</time>
      </trkpt>
      <trkpt lat="43.49609" lon="1.53581">
        <ele>157</ele>
        <time>2012-09-09T08:14:38Z</time>
      </trkpt>
      <trkpt lat="43.49613" lon="1.53586">
        <ele>155</ele>
        <time>2012-09-09T08:14:42Z</time>
      </trkpt>
      <trkpt lat="43.49622" lon="1.53626">
        <ele>155</ele>
        <time>2012-09-09T08:14:46Z</time>
      </trkpt>
      <trkpt lat="43.49633" lon="1.53665">
        <ele>154</ele>
        <time>2012-09-09T08:14:50Z</time>
      </trkpt>
      <trkpt lat="43.49645" lon="1.5371">
        <ele>153</ele>
        <time>2012-09-09T08:14:54Z</time>
      </trkpt>
      <trkpt lat="43.49653" lon="1.53752">
        <ele>153</ele>
        <time>2012-09-09T08:14:58Z</time>
      </trkpt>
      <trkpt lat="43.49662" lon="1.53793">
        <ele>152</ele>
        <time>2012-09-09T08:15:02Z</time>
      </trkpt>
      <trkpt lat="43.49669" lon="1.53827">
        <ele>153</ele>
        <time>2012-09-09T08:15:06Z</time>
      </trkpt>
      <trkpt lat="43.49675" lon="1.53862">
        <ele>152</ele>
        <time>2012-09-09T08:15:10Z</time>
      </trkpt>
      <trkpt lat="43.49686" lon="1.53896">
        <ele>151</ele>
        <time>2012-09-09T08:15:14Z</time>
      </trkpt>
      <trkpt lat="43.49701" lon="1.5393">
        <ele>149</ele>
        <time>2012-09-09T08:15:18Z</time>
      </trkpt>
      <trkpt lat="43.49717" lon="1.53964">
        <ele>151</ele>
        <time>2012-09-09T08:15:22Z</time>
      </trkpt>
      <trkpt lat="43.49733" lon="1.54001">
        <ele>154</ele>
        <time>2012-09-09T08:15:26Z</time>
      </trkpt>
      <trkpt lat="43.49749" lon="1.54037">
        <ele>153</ele>
        <time>2012-09-09T08:15:30Z</time>
      </trkpt>
      <trkpt lat="43.49769" lon="1.54072">
        <ele>153</ele>
        <time>2012-09-09T08:15:34Z</time>
      </trkpt>
      <trkpt lat="43.49792" lon="1.54107">
        <ele>153</ele>
        <time>2012-09-09T08:15:38Z</time>
      </trkpt>
      <trkpt lat="43.49821" lon="1.54146">
        <ele>154</ele>
        <time>2012-09-09T08:15:42Z</time>
      </trkpt>
      <trkpt lat="43.49846" lon="1.54189">
        <ele>153</ele>
        <time>2012-09-09T08:15:46Z</time>
      </trkpt>
      <trkpt lat="43.4987" lon="1.54234">
        <ele>151</ele>
        <time>2012-09-09T08:15:50Z</time>
      </trkpt>
      <trkpt lat="43.49891" lon="1.54275">
        <ele>152</ele>
        <time>2012-09-09T08:15:54Z</time>
      </trkpt>
      <trkpt lat="43.4991" lon="1.54313">
        <ele>153</ele>
        <time>2012-09-09T08:15:58Z</time>
      </trkpt>
      <trkpt lat="43.49928" lon="1.54353">
        <ele>152</ele>
        <time>2012-09-09T08:16:02Z</time>
      </trkpt>
      <trkpt lat="43.49946" lon="1.54387">
        <ele>152</ele>
        <time>2012-09-09T08:16:06Z</time>
      </trkpt>
      <trkpt lat="43.49964" lon="1.54422">
        <ele>151</ele>
        <time>2012-09-09T08:16:10Z</time>
      </trkpt>
      <trkpt lat="43.4998" lon="1.54459">
        <ele>151</ele>
        <time>2012-09-09T08:16:14Z</time>
      </trkpt>
      <trkpt lat="43.49991" lon="1.54493">
        <ele>152</ele>
        <time>2012-09-09T08:16:18Z</time>
      </trkpt>
      <trkpt lat="43.50001" lon="1.54525">
        <ele>152</ele>
        <time>2012-09-09T08:16:22Z</time>
      </trkpt>
      <trkpt lat="43.50011" lon="1.54552">
        <ele>152</ele>
        <time>2012-09-09T08:16:26Z</time>
      </trkpt>
      <trkpt lat="43.5002" lon="1.54589">
        <ele>152</ele>
        <time>2012-09-09T08:16:30Z</time>
      </trkpt>
      <trkpt lat="43.5003" lon="1.54627">
        <ele>152</ele>
        <time>2012-09-09T08:16:34Z</time>
      </trkpt>
      <trkpt lat="43.50038" lon="1.54668">
        <ele>152</ele>
        <time>2012-09-09T08:16:38Z</time>
      </trkpt>
      <trkpt lat="43.50046" lon="1.54711">
        <ele>153</ele>
        <time>2012-09-09T08:16:42Z</time>
      </trkpt>
      <trkpt lat="43.50056" lon="1.54753">
        <ele>152</ele>
        <time>2012-09-09T08:16:46Z</time>
      </trkpt>
      <trkpt lat="43.50068" lon="1.54796">
        <ele>151</ele>
        <time>2012-09-09T08:16:50Z</time>
      </trkpt>
      <trkpt lat="43.50081" lon="1.54837">
        <ele>151</ele>
        <time>2012-09-09T08:16:54Z</time>
      </trkpt>
      <trkpt lat="43.50092" lon="1.54879">
        <ele>150</ele>
        <time>2012-09-09T08:16:58Z</time>
      </trkpt>
      <trkpt lat="43.50103" lon="1.54919">
        <ele>149</ele>
        <time>2012-09-09T08:17:02Z</time>
      </trkpt>
      <trkpt lat="43.50111" lon="1.54959">
        <ele>148</ele>
        <time>2012-09-09T08:17:06Z</time>
      </trkpt>
      <trkpt lat="43.5012" lon="1.55001">
        <ele>149</ele>
        <time>2012-09-09T08:17:10Z</time>
      </trkpt>
      <trkpt lat="43.50126" lon="1.55036">
        <ele>150</ele>
        <time>2012-09-09T08:17:14Z</time>
      </trkpt>
      <trkpt lat="43.50135" lon="1.5507">
        <ele>151</ele>
        <time>2012-09-09T08:17:18Z</time>
      </trkpt>
      <trkpt lat="43.5014" lon="1.55105">
        <ele>153</ele>
        <time>2012-09-09T08:17:22Z</time>
      </trkpt>
      <trkpt lat="43.50159" lon="1.5513">
        <ele>152</ele>
        <time>2012-09-09T08:17:26Z</time>
      </trkpt>
      <trkpt lat="43.50158" lon="1.55147">
        <ele>154</ele>
        <time>2012-09-09T08:17:30Z</time>
      </trkpt>
      <trkpt lat="43.50161" lon="1.55169">
        <ele>153</ele>
        <time>2012-09-09T08:17:34Z</time>
      </trkpt>
      <trkpt lat="43.50158" lon="1.55192">
        <ele>153</ele>
        <time>2012-09-09T08:17:38Z</time>
      </trkpt>
      <trkpt lat="43.50161" lon="1.55216">
        <ele>152</ele>
        <time>2012-09-09T08:17:42Z</time>
      </trkpt>
      <trkpt lat="43.50169" lon="1.55241">
        <ele>151</ele>
        <time>2012-09-09T08:17:46Z</time>
      </trkpt>
      <trkpt lat="43.5018" lon="1.55262">
        <ele>151</ele>
        <time>2012-09-09T08:17:50Z</time>
      </trkpt>
      <trkpt lat="43.50194" lon="1.55281">
        <ele>153</ele>
        <time>2012-09-09T08:17:54Z</time>
      </trkpt>
      <trkpt lat="43.5021" lon="1.55295">
        <ele>155</ele>
        <time>2012-09-09T08:17:58Z</time>
      </trkpt>
      <trkpt lat="43.5023" lon="1.55306">
        <ele>157</ele>
        <time>2012-09-09T08:18:02Z</time>
      </trkpt>
      <trkpt lat="43.50248" lon="1.55319">
        <ele>159</ele>
        <time>2012-09-09T08:18:06Z</time>
      </trkpt>
      <trkpt lat="43.50265" lon="1.5533">
        <ele>160</ele>
        <time>2012-09-09T08:18:10Z</time>
      </trkpt>
      <trkpt lat="43.50284" lon="1.55347">
        <ele>162</ele>
        <time>2012-09-09T08:18:14Z</time>
      </trkpt>
      <trkpt lat="43.50302" lon="1.55364">
        <ele>164</ele>
        <time>2012-09-09T08:18:18Z</time>
      </trkpt>
      <trkpt lat="43.5032" lon="1.5538">
        <ele>164</ele>
        <time>2012-09-09T08:18:22Z</time>
      </trkpt>
      <trkpt lat="43.50337" lon="1.55395">
        <ele>166</ele>
        <time>2012-09-09T08:18:26Z</time>
      </trkpt>
      <trkpt lat="43.50353" lon="1.55409">
        <ele>167</ele>
        <time>2012-09-09T08:18:30Z</time>
      </trkpt>
      <trkpt lat="43.50368" lon="1.55425">
        <ele>168</ele>
        <time>2012-09-09T08:18:34Z</time>
      </trkpt>
      <trkpt lat="43.50383" lon="1.55443">
        <ele>168</ele>
        <time>2012-09-09T08:18:38Z</time>
      </trkpt>
      <trkpt lat="43.50401" lon="1.55458">
        <ele>168</ele>
        <time>2012-09-09T08:18:42Z</time>
      </trkpt>
      <trkpt lat="43.50416" lon="1.55484">
        <ele>168</ele>
        <time>2012-09-09T08:18:46Z</time>
      </trkpt>
      <trkpt lat="43.50427" lon="1.55509">
        <ele>165</ele>
        <time>2012-09-09T08:18:50Z</time>
      </trkpt>
      <trkpt lat="43.50439" lon="1.55531">
        <ele>164</ele>
        <time>2012-09-09T08:18:54Z</time>
      </trkpt>
      <trkpt lat="43.50448" lon="1.55553">
        <ele>164</ele>
        <time>2012-09-09T08:18:58Z</time>
      </trkpt>
      <trkpt lat="43.5046" lon="1.55574">
        <ele>163</ele>
        <time>2012-09-09T08:19:02Z</time>
      </trkpt>
      <trkpt lat="43.50477" lon="1.55585">
        <ele>166</ele>
        <time>2012-09-09T08:19:06Z</time>
      </trkpt>
      <trkpt lat="43.50492" lon="1.55577">
        <ele>166</ele>
        <time>2012-09-09T08:19:10Z</time>
      </trkpt>
      <trkpt lat="43.50512" lon="1.55566">
        <ele>168</ele>
        <time>2012-09-09T08:19:14Z</time>
      </trkpt>
      <trkpt lat="43.50531" lon="1.55565">
        <ele>169</ele>
        <time>2012-09-09T08:19:18Z</time>
      </trkpt>
      <trkpt lat="43.5054" lon="1.55583">
        <ele>169</ele>
        <time>2012-09-09T08:19:22Z</time>
      </trkpt>
      <trkpt lat="43.50545" lon="1.55608">
        <ele>168</ele>
        <time>2012-09-09T08:19:26Z</time>
      </trkpt>
      <trkpt lat="43.50568" lon="1.55595">
        <ele>169</ele>
        <time>2012-09-09T08:19:30Z</time>
      </trkpt>
      <trkpt lat="43.50581" lon="1.5561">
        <ele>170</ele>
        <time>2012-09-09T08:19:34Z</time>
      </trkpt>
      <trkpt lat="43.50585" lon="1.55636">
        <ele>170</ele>
        <time>2012-09-09T08:19:38Z</time>
      </trkpt>
      <trkpt lat="43.50586" lon="1.55655">
        <ele>167</ele>
        <time>2012-09-09T08:19:42Z</time>
      </trkpt>
      <trkpt lat="43.50585" lon="1.55676">
        <ele>165</ele>
        <time>2012-09-09T08:19:46Z</time>
      </trkpt>
      <trkpt lat="43.50586" lon="1.55693">
        <ele>164</ele>
        <time>2012-09-09T08:19:50Z</time>
      </trkpt>
      <trkpt lat="43.50589" lon="1.55708">
        <ele>162</ele>
        <time>2012-09-09T08:19:54Z</time>
      </trkpt>
      <trkpt lat="43.50589" lon="1.55711">
        <ele>161</ele>
        <time>2012-09-09T08:19:58Z</time>
      </trkpt>
      <trkpt lat="43.5059" lon="1.55711">
        <ele>160</ele>
        <time>2012-09-09T08:20:02Z</time>
      </trkpt>
      <trkpt lat="43.50592" lon="1.5571">
        <ele>161</ele>
        <time>2012-09-09T08:20:10Z</time>
      </trkpt>
      <trkpt lat="43.50592" lon="1.55712">
        <ele>156</ele>
        <time>2012-09-09T08:20:34Z</time>
      </trkpt>
      <trkpt lat="43.50594" lon="1.55713">
        <ele>157</ele>
        <time>2012-09-09T08:23:02Z</time>
      </trkpt>
      <trkpt lat="43.50599" lon="1.55711">
        <ele>159</ele>
        <time>2012-09-09T08:23:06Z</time>
      </trkpt>
      <trkpt lat="43.50603" lon="1.55706">
        <ele>159</ele>
        <time>2012-09-09T08:23:10Z</time>
      </trkpt>
      <trkpt lat="43.50606" lon="1.55702">
        <ele>159</ele>
        <time>2012-09-09T08:23:14Z</time>
      </trkpt>
      <trkpt lat="43.5061" lon="1.55702">
        <ele>160</ele>
        <time>2012-09-09T08:23:18Z</time>
      </trkpt>
      <trkpt lat="43.50617" lon="1.55703">
        <ele>160</ele>
        <time>2012-09-09T08:23:22Z</time>
      </trkpt>
      <trkpt lat="43.50627" lon="1.55697">
        <ele>161</ele>
        <time>2012-09-09T08:23:26Z</time>
      </trkpt>
      <trkpt lat="43.50635" lon="1.5569">
        <ele>161</ele>
        <time>2012-09-09T08:23:30Z</time>
      </trkpt>
      <trkpt lat="43.50646" lon="1.5568">
        <ele>164</ele>
        <time>2012-09-09T08:23:34Z</time>
      </trkpt>
      <trkpt lat="43.50667" lon="1.55669">
        <ele>164</ele>
        <time>2012-09-09T08:23:42Z</time>
      </trkpt>
      <trkpt lat="43.50676" lon="1.5567">
        <ele>163</ele>
        <time>2012-09-09T08:23:46Z</time>
      </trkpt>
      <trkpt lat="43.50684" lon="1.55669">
        <ele>163</ele>
        <time>2012-09-09T08:23:50Z</time>
      </trkpt>
      <trkpt lat="43.50699" lon="1.55671">
        <ele>163</ele>
        <time>2012-09-09T08:23:54Z</time>
      </trkpt>
      <trkpt lat="43.5071" lon="1.55682">
        <ele>161</ele>
        <time>2012-09-09T08:23:58Z</time>
      </trkpt>
      <trkpt lat="43.50714" lon="1.55684">
        <ele>160</ele>
        <time>2012-09-09T08:24:02Z</time>
      </trkpt>
      <trkpt lat="43.50715" lon="1.5568">
        <ele>163</ele>
        <time>2012-09-09T08:24:22Z</time>
      </trkpt>
      <trkpt lat="43.50715" lon="1.55679">
        <ele>162</ele>
        <time>2012-09-09T08:24:26Z</time>
      </trkpt>
      <trkpt lat="43.50717" lon="1.55682">
        <ele>160</ele>
        <time>2012-09-09T08:24:30Z</time>
      </trkpt>
      <trkpt lat="43.50721" lon="1.55686">
        <ele>161</ele>
        <time>2012-09-09T08:24:34Z</time>
      </trkpt>
      <trkpt lat="43.50723" lon="1.55689">
        <ele>162</ele>
        <time>2012-09-09T08:24:38Z</time>
      </trkpt>
      <trkpt lat="43.50723" lon="1.55693">
        <ele>158</ele>
        <time>2012-09-09T08:24:42Z</time>
      </trkpt>
      <trkpt lat="43.50725" lon="1.55695">
        <ele>155</ele>
        <time>2012-09-09T08:24:46Z</time>
      </trkpt>
      <trkpt lat="43.50726" lon="1.55694">
        <ele>155</ele>
        <time>2012-09-09T08:24:50Z</time>
      </trkpt>
      <trkpt lat="43.50729" lon="1.55692">
        <ele>156</ele>
        <time>2012-09-09T08:24:54Z</time>
      </trkpt>
      <trkpt lat="43.50735" lon="1.55689">
        <ele>156</ele>
        <time>2012-09-09T08:24:58Z</time>
      </trkpt>
      <trkpt lat="43.50742" lon="1.55686">
        <ele>157</ele>
        <time>2012-09-09T08:25:02Z</time>
      </trkpt>
      <trkpt lat="43.50751" lon="1.55681">
        <ele>157</ele>
        <time>2012-09-09T08:25:06Z</time>
      </trkpt>
      <trkpt lat="43.50774" lon="1.55676">
        <ele>158</ele>
        <time>2012-09-09T08:25:14Z</time>
      </trkpt>
      <trkpt lat="43.50787" lon="1.55672">
        <ele>159</ele>
        <time>2012-09-09T08:25:18Z</time>
      </trkpt>
      <trkpt lat="43.50799" lon="1.55671">
        <ele>159</ele>
        <time>2012-09-09T08:25:22Z</time>
      </trkpt>
      <trkpt lat="43.50811" lon="1.55673">
        <ele>159</ele>
        <time>2012-09-09T08:25:26Z</time>
      </trkpt>
      <trkpt lat="43.50826" lon="1.55679">
        <ele>160</ele>
        <time>2012-09-09T08:25:30Z</time>
      </trkpt>
      <trkpt lat="43.50842" lon="1.55677">
        <ele>161</ele>
        <time>2012-09-09T08:25:34Z</time>
      </trkpt>
      <trkpt lat="43.50857" lon="1.55666">
        <ele>162</ele>
        <time>2012-09-09T08:25:38Z</time>
      </trkpt>
      <trkpt lat="43.50874" lon="1.55649">
        <ele>163</ele>
        <time>2012-09-09T08:25:42Z</time>
      </trkpt>
      <trkpt lat="43.50888" lon="1.55633">
        <ele>163</ele>
        <time>2012-09-09T08:25:46Z</time>
      </trkpt>
      <trkpt lat="43.50902" lon="1.5562">
        <ele>164</ele>
        <time>2012-09-09T08:25:50Z</time>
      </trkpt>
      <trkpt lat="43.50915" lon="1.55609">
        <ele>162</ele>
        <time>2012-09-09T08:25:54Z</time>
      </trkpt>
      <trkpt lat="43.50925" lon="1.556">
        <ele>163</ele>
        <time>2012-09-09T08:25:58Z</time>
      </trkpt>
      <trkpt lat="43.50934" lon="1.55588">
        <ele>162</ele>
        <time>2012-09-09T08:26:02Z</time>
      </trkpt>
      <trkpt lat="43.50942" lon="1.55576">
        <ele>162</ele>
        <time>2012-09-09T08:26:06Z</time>
      </trkpt>
      <trkpt lat="43.50953" lon="1.55565">
        <ele>162</ele>
        <time>2012-09-09T08:26:10Z</time>
      </trkpt>
      <trkpt lat="43.5096" lon="1.55542">
        <ele>165</ele>
        <time>2012-09-09T08:26:14Z</time>
      </trkpt>
      <trkpt lat="43.50962" lon="1.55528">
        <ele>166</ele>
        <time>2012-09-09T08:26:18Z</time>
      </trkpt>
      <trkpt lat="43.50965" lon="1.55519">
        <ele>168</ele>
        <time>2012-09-09T08:26:22Z</time>
      </trkpt>
      <trkpt lat="43.50971" lon="1.55509">
        <ele>167</ele>
        <time>2012-09-09T08:26:26Z</time>
      </trkpt>
      <trkpt lat="43.50979" lon="1.55495">
        <ele>166</ele>
        <time>2012-09-09T08:26:30Z</time>
      </trkpt>
      <trkpt lat="43.50986" lon="1.55483">
        <ele>165</ele>
        <time>2012-09-09T08:26:34Z</time>
      </trkpt>
      <trkpt lat="43.50989" lon="1.55478">
        <ele>167</ele>
        <time>2012-09-09T08:26:38Z</time>
      </trkpt>
      <trkpt lat="43.50991" lon="1.55476">
        <ele>169</ele>
        <time>2012-09-09T08:26:42Z</time>
      </trkpt>
      <trkpt lat="43.50991" lon="1.55471">
        <ele>167</ele>
        <time>2012-09-09T08:26:50Z</time>
      </trkpt>
      <trkpt lat="43.50987" lon="1.55468">
        <ele>166</ele>
        <time>2012-09-09T08:26:58Z</time>
      </trkpt>
      <trkpt lat="43.51006" lon="1.55478">
        <ele>173</ele>
        <time>2012-09-09T08:27:22Z</time>
      </trkpt>
      <trkpt lat="43.51012" lon="1.5548">
        <ele>170</ele>
        <time>2012-09-09T08:27:26Z</time>
      </trkpt>
      <trkpt lat="43.51016" lon="1.5548">
        <ele>164</ele>
        <time>2012-09-09T08:27:30Z</time>
      </trkpt>
      <trkpt lat="43.51016" lon="1.55485">
        <ele>168</ele>
        <time>2012-09-09T08:27:54Z</time>
      </trkpt>
      <trkpt lat="43.51013" lon="1.55489">
        <ele>170</ele>
        <time>2012-09-09T08:27:58Z</time>
      </trkpt>
      <trkpt lat="43.5101" lon="1.55486">
        <ele>171</ele>
        <time>2012-09-09T08:28:02Z</time>
      </trkpt>
      <trkpt lat="43.51012" lon="1.55485">
        <ele>172</ele>
        <time>2012-09-09T08:28:10Z</time>
      </trkpt>
      <trkpt lat="43.51016" lon="1.55489">
        <ele>172</ele>
        <time>2012-09-09T08:28:14Z</time>
      </trkpt>
      <trkpt lat="43.51024" lon="1.55496">
        <ele>171</ele>
        <time>2012-09-09T08:28:18Z</time>
      </trkpt>
      <trkpt lat="43.51035" lon="1.55502">
        <ele>171</ele>
        <time>2012-09-09T08:28:22Z</time>
      </trkpt>
      <trkpt lat="43.51044" lon="1.55507">
        <ele>170</ele>
        <time>2012-09-09T08:28:26Z</time>
      </trkpt>
      <trkpt lat="43.51053" lon="1.55513">
        <ele>170</ele>
        <time>2012-09-09T08:28:30Z</time>
      </trkpt>
      <trkpt lat="43.51062" lon="1.55519">
        <ele>171</ele>
        <time>2012-09-09T08:28:34Z</time>
      </trkpt>
      <trkpt lat="43.51073" lon="1.55525">
        <ele>172</ele>
        <time>2012-09-09T08:28:38Z</time>
      </trkpt>
      <trkpt lat="43.51085" lon="1.55532">
        <ele>171</ele>
        <time>2012-09-09T08:28:42Z</time>
      </trkpt>
      <trkpt lat="43.51094" lon="1.55538">
        <ele>172</ele>
        <time>2012-09-09T08:28:46Z</time>
      </trkpt>
      <trkpt lat="43.51106" lon="1.55545">
        <ele>171</ele>
        <time>2012-09-09T08:28:50Z</time>
      </trkpt>
      <trkpt lat="43.51116" lon="1.55553">
        <ele>171</ele>
        <time>2012-09-09T08:28:54Z</time>
      </trkpt>
      <trkpt lat="43.51125" lon="1.55558">
        <ele>172</ele>
        <time>2012-09-09T08:28:58Z</time>
      </trkpt>
      <trkpt lat="43.51137" lon="1.55564">
        <ele>173</ele>
        <time>2012-09-09T08:29:02Z</time>
      </trkpt>
      <trkpt lat="43.51152" lon="1.5557">
        <ele>174</ele>
        <time>2012-09-09T08:29:06Z</time>
      </trkpt>
      <trkpt lat="43.51165" lon="1.55577">
        <ele>174</ele>
        <time>2012-09-09T08:29:10Z</time>
      </trkpt>
      <trkpt lat="43.51181" lon="1.55583">
        <ele>174</ele>
        <time>2012-09-09T08:29:14Z</time>
      </trkpt>
      <trkpt lat="43.51197" lon="1.5559">
        <ele>172</ele>
        <time>2012-09-09T08:29:18Z</time>
      </trkpt>
      <trkpt lat="43.51211" lon="1.55598">
        <ele>172</ele>
        <time>2012-09-09T08:29:22Z</time>
      </trkpt>
      <trkpt lat="43.51223" lon="1.55609">
        <ele>171</ele>
        <time>2012-09-09T08:29:26Z</time>
      </trkpt>
      <trkpt lat="43.51237" lon="1.55623">
        <ele>171</ele>
        <time>2012-09-09T08:29:30Z</time>
      </trkpt>
      <trkpt lat="43.51251" lon="1.55638">
        <ele>170</ele>
        <time>2012-09-09T08:29:34Z</time>
      </trkpt>
      <trkpt lat="43.51263" lon="1.5565">
        <ele>170</ele>
        <time>2012-09-09T08:29:38Z</time>
      </trkpt>
      <trkpt lat="43.51278" lon="1.5566">
        <ele>171</ele>
        <time>2012-09-09T08:29:42Z</time>
      </trkpt>
      <trkpt lat="43.51289" lon="1.55673">
        <ele>171</ele>
        <time>2012-09-09T08:29:46Z</time>
      </trkpt>
      <trkpt lat="43.513" lon="1.55686">
        <ele>173</ele>
        <time>2012-09-09T08:29:50Z</time>
      </trkpt>
      <trkpt lat="43.51315" lon="1.55695">
        <ele>171</ele>
        <time>2012-09-09T08:29:54Z</time>
      </trkpt>
      <trkpt lat="43.51326" lon="1.55702">
        <ele>170</ele>
        <time>2012-09-09T08:29:58Z</time>
      </trkpt>
      <trkpt lat="43.51333" lon="1.55706">
        <ele>170</ele>
        <time>2012-09-09T08:30:02Z</time>
      </trkpt>
      <trkpt lat="43.51344" lon="1.55712">
        <ele>170</ele>
        <time>2012-09-09T08:30:06Z</time>
      </trkpt>
      <trkpt lat="43.51355" lon="1.55723">
        <ele>170</ele>
        <time>2012-09-09T08:30:10Z</time>
      </trkpt>
      <trkpt lat="43.51368" lon="1.55736">
        <ele>170</ele>
        <time>2012-09-09T08:30:14Z</time>
      </trkpt>
      <trkpt lat="43.51381" lon="1.55753">
        <ele>170</ele>
        <time>2012-09-09T08:30:18Z</time>
      </trkpt>
      <trkpt lat="43.51393" lon="1.55768">
        <ele>170</ele>
        <time>2012-09-09T08:30:22Z</time>
      </trkpt>
      <trkpt lat="43.51403" lon="1.55782">
        <ele>170</ele>
        <time>2012-09-09T08:30:26Z</time>
      </trkpt>
      <trkpt lat="43.51411" lon="1.55798">
        <ele>169</ele>
        <time>2012-09-09T08:30:30Z</time>
      </trkpt>
      <trkpt lat="43.51421" lon="1.55817">
        <ele>168</ele>
        <time>2012-09-09T08:30:34Z</time>
      </trkpt>
      <trkpt lat="43.51434" lon="1.55832">
        <ele>169</ele>
        <time>2012-09-09T08:30:38Z</time>
      </trkpt>
      <trkpt lat="43.51451" lon="1.55845">
        <ele>169</ele>
        <time>2012-09-09T08:30:42Z</time>
      </trkpt>
      <trkpt lat="43.51467" lon="1.55858">
        <ele>170</ele>
        <time>2012-09-09T08:30:46Z</time>
      </trkpt>
      <trkpt lat="43.51479" lon="1.55871">
        <ele>170</ele>
        <time>2012-09-09T08:30:50Z</time>
      </trkpt>
      <trkpt lat="43.51502" lon="1.55889">
        <ele>173</ele>
        <time>2012-09-09T08:30:54Z</time>
      </trkpt>
      <trkpt lat="43.51518" lon="1.55906">
        <ele>176</ele>
        <time>2012-09-09T08:30:58Z</time>
      </trkpt>
      <trkpt lat="43.51538" lon="1.55923">
        <ele>175</ele>
        <time>2012-09-09T08:31:02Z</time>
      </trkpt>
      <trkpt lat="43.51561" lon="1.55944">
        <ele>174</ele>
        <time>2012-09-09T08:31:06Z</time>
      </trkpt>
      <trkpt lat="43.51588" lon="1.55966">
        <ele>173</ele>
        <time>2012-09-09T08:31:10Z</time>
      </trkpt>
      <trkpt lat="43.51613" lon="1.5599">
        <ele>172</ele>
        <time>2012-09-09T08:31:14Z</time>
      </trkpt>
      <trkpt lat="43.51632" lon="1.56015">
        <ele>172</ele>
        <time>2012-09-09T08:31:18Z</time>
      </trkpt>
      <trkpt lat="43.5165" lon="1.56036">
        <ele>172</ele>
        <time>2012-09-09T08:31:22Z</time>
      </trkpt>
      <trkpt lat="43.51669" lon="1.56058">
        <ele>171</ele>
        <time>2012-09-09T08:31:26Z</time>
      </trkpt>
      <trkpt lat="43.51687" lon="1.56081">
        <ele>172</ele>
        <time>2012-09-09T08:31:30Z</time>
      </trkpt>
      <trkpt lat="43.51704" lon="1.56107">
        <ele>172</ele>
        <time>2012-09-09T08:31:34Z</time>
      </trkpt>
      <trkpt lat="43.51722" lon="1.5612">
        <ele>171</ele>
        <time>2012-09-09T08:31:38Z</time>
      </trkpt>
      <trkpt lat="43.51733" lon="1.56141">
        <ele>171</ele>
        <time>2012-09-09T08:31:42Z</time>
      </trkpt>
      <trkpt lat="43.51749" lon="1.56156">
        <ele>170</ele>
        <time>2012-09-09T08:31:46Z</time>
      </trkpt>
      <trkpt lat="43.51759" lon="1.56173">
        <ele>171</ele>
        <time>2012-09-09T08:31:50Z</time>
      </trkpt>
      <trkpt lat="43.51765" lon="1.56189">
        <ele>172</ele>
        <time>2012-09-09T08:31:54Z</time>
      </trkpt>
      <trkpt lat="43.51801" lon="1.56184">
        <ele>174</ele>
        <time>2012-09-09T08:31:58Z</time>
      </trkpt>
      <trkpt lat="43.51809" lon="1.56193">
        <ele>175</ele>
        <time>2012-09-09T08:32:02Z</time>
      </trkpt>
      <trkpt lat="43.5182" lon="1.56206">
        <ele>174</ele>
        <time>2012-09-09T08:32:06Z</time>
      </trkpt>
      <trkpt lat="43.51837" lon="1.56208">
        <ele>174</ele>
        <time>2012-09-09T08:32:10Z</time>
      </trkpt>
      <trkpt lat="43.51851" lon="1.56205">
        <ele>176</ele>
        <time>2012-09-09T08:32:14Z</time>
      </trkpt>
      <trkpt lat="43.51856" lon="1.56201">
        <ele>176</ele>
        <time>2012-09-09T08:32:18Z</time>
      </trkpt>
      <trkpt lat="43.51857" lon="1.56192">
        <ele>176</ele>
        <time>2012-09-09T08:32:22Z</time>
      </trkpt>
      <trkpt lat="43.51859" lon="1.56181">
        <ele>176</ele>
        <time>2012-09-09T08:32:26Z</time>
      </trkpt>
      <trkpt lat="43.51865" lon="1.56163">
        <ele>175</ele>
        <time>2012-09-09T08:32:30Z</time>
      </trkpt>
      <trkpt lat="43.51871" lon="1.56144">
        <ele>175</ele>
        <time>2012-09-09T08:32:34Z</time>
      </trkpt>
      <trkpt lat="43.51883" lon="1.56119">
        <ele>175</ele>
        <time>2012-09-09T08:32:38Z</time>
      </trkpt>
      <trkpt lat="43.51901" lon="1.56098">
        <ele>174</ele>
        <time>2012-09-09T08:32:42Z</time>
      </trkpt>
      <trkpt lat="43.51916" lon="1.56068">
        <ele>173</ele>
        <time>2012-09-09T08:32:46Z</time>
      </trkpt>
      <trkpt lat="43.5193" lon="1.56038">
        <ele>173</ele>
        <time>2012-09-09T08:32:50Z</time>
      </trkpt>
      <trkpt lat="43.51951" lon="1.56008">
        <ele>172</ele>
        <time>2012-09-09T08:32:54Z</time>
      </trkpt>
      <trkpt lat="43.51973" lon="1.5596">
        <ele>170</ele>
        <time>2012-09-09T08:32:58Z</time>
      </trkpt>
      <trkpt lat="43.51992" lon="1.55923">
        <ele>171</ele>
        <time>2012-09-09T08:33:02Z</time>
      </trkpt>
      <trkpt lat="43.52012" lon="1.55884">
        <ele>174</ele>
        <time>2012-09-09T08:33:06Z</time>
      </trkpt>
      <trkpt lat="43.52033" lon="1.55851">
        <ele>172</ele>
        <time>2012-09-09T08:33:10Z</time>
      </trkpt>
      <trkpt lat="43.52059" lon="1.55823">
        <ele>170</ele>
        <time>2012-09-09T08:33:14Z</time>
      </trkpt>
      <trkpt lat="43.52083" lon="1.55815">
        <ele>168</ele>
        <time>2012-09-09T08:33:18Z</time>
      </trkpt>
      <trkpt lat="43.52096" lon="1.55788">
        <ele>167</ele>
        <time>2012-09-09T08:33:22Z</time>
      </trkpt>
      <trkpt lat="43.52107" lon="1.5576">
        <ele>167</ele>
        <time>2012-09-09T08:33:26Z</time>
      </trkpt>
      <trkpt lat="43.52105" lon="1.5574">
        <ele>165</ele>
        <time>2012-09-09T08:33:30Z</time>
      </trkpt>
      <trkpt lat="43.52112" lon="1.55729">
        <ele>166</ele>
        <time>2012-09-09T08:33:34Z</time>
      </trkpt>
      <trkpt lat="43.5212" lon="1.55721">
        <ele>166</ele>
        <time>2012-09-09T08:33:38Z</time>
      </trkpt>
      <trkpt lat="43.52121" lon="1.55716">
        <ele>165</ele>
        <time>2012-09-09T08:33:42Z</time>
      </trkpt>
      <trkpt lat="43.52123" lon="1.55708">
        <ele>162</ele>
        <time>2012-09-09T08:33:46Z</time>
      </trkpt>
      <trkpt lat="43.52126" lon="1.55704">
        <ele>161</ele>
        <time>2012-09-09T08:33:50Z</time>
      </trkpt>
      <trkpt lat="43.52127" lon="1.55703">
        <ele>159</ele>
        <time>2012-09-09T08:33:54Z</time>
      </trkpt>
      <trkpt lat="43.52128" lon="1.55705">
        <ele>160</ele>
        <time>2012-09-09T08:33:58Z</time>
      </trkpt>
      <trkpt lat="43.52121" lon="1.55712">
        <ele>161</ele>
        <time>2012-09-09T08:34:02Z</time>
      </trkpt>
      <trkpt lat="43.52108" lon="1.55734">
        <ele>160</ele>
        <time>2012-09-09T08:34:06Z</time>
      </trkpt>
      <trkpt lat="43.5211" lon="1.55752">
        <ele>161</ele>
        <time>2012-09-09T08:34:10Z</time>
      </trkpt>
      <trkpt lat="43.52117" lon="1.55764">
        <ele>160</ele>
        <time>2012-09-09T08:34:14Z</time>
      </trkpt>
      <trkpt lat="43.52131" lon="1.55775">
        <ele>158</ele>
        <time>2012-09-09T08:34:18Z</time>
      </trkpt>
      <trkpt lat="43.52145" lon="1.5577">
        <ele>158</ele>
        <time>2012-09-09T08:34:22Z</time>
      </trkpt>
      <trkpt lat="43.52162" lon="1.55771">
        <ele>158</ele>
        <time>2012-09-09T08:34:26Z</time>
      </trkpt>
      <trkpt lat="43.52179" lon="1.55775">
        <ele>160</ele>
        <time>2012-09-09T08:34:30Z</time>
      </trkpt>
      <trkpt lat="43.52194" lon="1.55782">
        <ele>161</ele>
        <time>2012-09-09T08:34:34Z</time>
      </trkpt>
      <trkpt lat="43.5221" lon="1.55781">
        <ele>162</ele>
        <time>2012-09-09T08:34:38Z</time>
      </trkpt>
      <trkpt lat="43.5222" lon="1.55774">
        <ele>162</ele>
        <time>2012-09-09T08:34:42Z</time>
      </trkpt>
      <trkpt lat="43.52228" lon="1.55765">
        <ele>162</ele>
        <time>2012-09-09T08:34:46Z</time>
      </trkpt>
      <trkpt lat="43.5224" lon="1.55761">
        <ele>162</ele>
        <time>2012-09-09T08:34:50Z</time>
      </trkpt>
      <trkpt lat="43.52251" lon="1.55763">
        <ele>162</ele>
        <time>2012-09-09T08:34:54Z</time>
      </trkpt>
      <trkpt lat="43.52263" lon="1.55764">
        <ele>163</ele>
        <time>2012-09-09T08:34:58Z</time>
      </trkpt>
      <trkpt lat="43.52271" lon="1.55761">
        <ele>165</ele>
        <time>2012-09-09T08:35:02Z</time>
      </trkpt>
      <trkpt lat="43.52279" lon="1.55757">
        <ele>166</ele>
        <time>2012-09-09T08:35:06Z</time>
      </trkpt>
      <trkpt lat="43.52289" lon="1.55754">
        <ele>165</ele>
        <time>2012-09-09T08:35:10Z</time>
      </trkpt>
      <trkpt lat="43.52296" lon="1.55749">
        <ele>167</ele>
        <time>2012-09-09T08:35:14Z</time>
      </trkpt>
      <trkpt lat="43.52296" lon="1.55739">
        <ele>165</ele>
        <time>2012-09-09T08:35:22Z</time>
      </trkpt>
      <trkpt lat="43.52296" lon="1.5573">
        <ele>163</ele>
        <time>2012-09-09T08:35:30Z</time>
      </trkpt>
      <trkpt lat="43.52298" lon="1.55726">
        <ele>163</ele>
        <time>2012-09-09T08:35:34Z</time>
      </trkpt>
      <trkpt lat="43.5229" lon="1.55721">
        <ele>164</ele>
        <time>2012-09-09T08:35:42Z</time>
      </trkpt>
      <trkpt lat="43.52291" lon="1.55707">
        <ele>164</ele>
        <time>2012-09-09T08:35:46Z</time>
      </trkpt>
      <trkpt lat="43.52295" lon="1.55703">
        <ele>165</ele>
        <time>2012-09-09T08:35:50Z</time>
      </trkpt>
      <trkpt lat="43.52298" lon="1.55705">
        <ele>165</ele>
        <time>2012-09-09T08:35:54Z</time>
      </trkpt>
      <trkpt lat="43.52299" lon="1.5571">
        <ele>165</ele>
        <time>2012-09-09T08:35:58Z</time>
      </trkpt>
      <trkpt lat="43.52298" lon="1.55713">
        <ele>166</ele>
        <time>2012-09-09T08:36:02Z</time>
      </trkpt>
      <trkpt lat="43.52293" lon="1.55715">
        <ele>166</ele>
        <time>2012-09-09T08:36:06Z</time>
      </trkpt>
      <trkpt lat="43.5229" lon="1.55715">
        <ele>166</ele>
        <time>2012-09-09T08:36:10Z</time>
      </trkpt>
      <trkpt lat="43.52288" lon="1.55713">
        <ele>167</ele>
        <time>2012-09-09T08:36:14Z</time>
      </trkpt>
      <trkpt lat="43.52291" lon="1.55711">
        <ele>167</ele>
        <time>2012-09-09T08:36:18Z</time>
      </trkpt>
      <trkpt lat="43.52301" lon="1.55713">
        <ele>167</ele>
        <time>2012-09-09T08:36:22Z</time>
      </trkpt>
      <trkpt lat="43.52306" lon="1.5572">
        <ele>168</ele>
        <time>2012-09-09T08:36:26Z</time>
      </trkpt>
      <trkpt lat="43.52307" lon="1.55722">
        <ele>169</ele>
        <time>2012-09-09T08:36:30Z</time>
      </trkpt>
      <trkpt lat="43.52303" lon="1.55721">
        <ele>169</ele>
        <time>2012-09-09T08:36:34Z</time>
      </trkpt>
      <trkpt lat="43.523" lon="1.55725">
        <ele>174</ele>
        <time>2012-09-09T08:36:38Z</time>
      </trkpt>
      <trkpt lat="43.52298" lon="1.55725">
        <ele>173</ele>
        <time>2012-09-09T08:36:42Z</time>
      </trkpt>
      <trkpt lat="43.52296" lon="1.55726">
        <ele>171</ele>
        <time>2012-09-09T08:36:46Z</time>
      </trkpt>
    </trkseg>
  </trk>
</gpx>